Date StartTime U_cm/s V_cm/s W_cm/s Ustd_cm/s Vstd_cm/s Wstd_cm/s Uvar_(cm/s)^2 Vvar_(cm/s)^2 Wvar_(cm/s)^2 KE_(m/s)^2 TurbulentKE_(m/s)^2 HorizWindSpeed_cm/s FrictionSpeec_cm/s DragCoef SpeedOfSound_m/s SonicTemperature_C Pressure_mb 
09/06/2014  00:00:00      -44.687       -1.755       -9.539       21.858       17.825       16.599      477.780      317.740      275.530        0.158        0.054       44.722       10.469        0.055      342.759       18.392      862.086
09/06/2014  00:01:00      -52.046      -10.418       -4.120       16.471       17.768       10.019      271.286      315.713      100.373        0.176        0.034       53.078        8.238        0.024      342.752       18.381      862.096
09/06/2014  00:02:00      -41.166      -31.755        0.988       31.357       17.252       15.874      983.234      297.639      251.970        0.212        0.077       51.990       16.147        0.096      342.571       18.073      862.094
09/06/2014  00:03:00      -85.931      -62.392       -8.410       46.359       24.080       18.109     2149.111      579.862      327.931        0.720        0.153      106.192       17.496        0.027      342.505       17.960      862.103
09/06/2014  00:04:00      -43.664      -33.106       18.220       57.363       40.218       26.618     3290.477     1617.492      708.505        0.447        0.281       54.796       30.120        0.302      342.458       17.881      862.113
09/06/2014  00:05:00     -108.916      -74.050        0.352       64.820       38.251       32.224     4201.664     1463.132     1038.383        1.202        0.335      131.705       32.494        0.061      342.570       18.072      862.113
09/06/2014  00:06:00     -165.995     -104.337       -2.638       52.226       40.245       30.087     2727.505     1619.695      905.241        2.185        0.263      196.063       24.282        0.015      342.719       18.322      862.111
09/06/2014  00:07:00     -106.230      -65.790       -6.348       55.205       43.815       30.949     3047.635     1919.759      957.850        1.079        0.296      124.952       23.497        0.035      342.584       18.096      862.112
09/06/2014  00:08:00     -108.950      -80.728        0.675       67.731       43.655       29.225     4587.429     1905.754      854.108        1.287        0.367      135.599       30.074        0.049      342.541       18.023      862.102
09/06/2014  00:09:00     -144.867      -89.163       -3.386       45.083       38.881       24.436     2032.442     1511.705      597.125        1.654        0.207      170.107       21.927        0.017      342.638       18.187      862.088
09/06/2014  00:10:00     -141.488      -71.290      -12.811       21.671       31.673       16.003      469.623     1003.150      256.094        1.350        0.086      158.433       10.036        0.004      342.591       18.108      862.089
09/06/2014  00:11:00     -150.020      -37.842       -7.118       34.774       23.847       18.071     1209.222      568.702      326.554        1.305        0.105      154.720       17.036        0.012      342.509       17.969      862.079
09/06/2014  00:12:00     -100.198      -22.062        2.196       42.927       25.790       22.181     1842.734      665.135      491.983        0.676        0.150      102.598       20.523        0.040      342.436       17.844      862.076
09/06/2014  00:13:00     -128.140      -40.920       -0.009       35.069       30.148       22.236     1229.852      908.914      494.459        1.036        0.132      134.515       12.201        0.008      342.425       17.826      862.081
09/06/2014  00:14:00      -94.598      -50.846        9.891       51.940       44.205       22.323     2697.806     1954.060      498.300        0.839        0.258      107.397       26.336        0.060      342.346       17.691      862.073
09/06/2014  00:15:00     -141.277      -82.552        4.377       46.443       40.571       31.284     2156.982     1645.967      978.687        1.579        0.239      163.627       26.770        0.027      342.407       17.796      862.062
09/06/2014  00:16:00     -140.120      -81.510       -8.346       45.039       35.278       22.683     2028.513     1244.522      514.523        1.507        0.189      162.103       13.161        0.007      342.444       17.859      862.069
09/06/2014  00:17:00      -70.811      -67.897        4.925       44.837       33.578       24.571     2010.371     1127.485      603.734        0.669        0.187       98.103       28.399        0.084      342.378       17.747      862.062
09/06/2014  00:18:00      -58.700      -76.552       18.522       90.069       59.771       37.257     8112.385     3572.555     1388.083        1.136        0.654       96.467       49.366        0.262      342.285       17.585      862.064
09/06/2014  00:19:00     -143.816      -86.334       -1.172       53.751       55.522       30.922     2889.182     3082.719      956.148        1.753        0.346      167.739       27.042        0.026      342.196       17.436      862.065
09/06/2014  00:20:00     -145.455     -101.111        7.698       57.859       51.210       25.622     3347.639     2622.423      656.489        1.903        0.331      177.145       30.494        0.030      342.180       17.407      862.065
09/06/2014  00:21:00     -126.326      -77.566       -0.148       65.197       43.899       35.037     4250.710     1927.102     1227.611        1.469        0.370      148.239       33.722        0.052      342.155       17.365      862.057
09/06/2014  00:22:00     -143.817      -90.553        2.876       58.278       39.625       32.897     3396.345     1570.128     1082.195        1.747        0.302      169.950       34.064        0.040      342.159       17.372      862.049
09/06/2014  00:23:00     -121.060      -50.307        3.449       72.289       40.676       26.975     5225.732     1654.545      727.637        1.240        0.380      131.097       32.527        0.062      342.126       17.317      862.055
09/06/2014  00:24:00      -97.832      -87.762        2.310       58.808       55.077       29.866     3458.340     3033.475      891.956        1.233        0.369      131.428       30.064        0.052      342.196       17.436      862.050
09/06/2014  00:25:00      -71.343      -71.625       12.329       56.949       43.785       32.721     3243.143     1917.131     1070.687        0.830        0.312      101.094       32.258        0.102      342.138       17.338      862.048
09/06/2014  00:26:00     -112.793     -124.779        4.479       67.316       77.780       37.165     4531.428     6049.664     1381.231        2.014        0.598      168.203       41.079        0.060      342.123       17.310      862.069
09/06/2014  00:27:00     -177.457     -159.091       -8.753       68.289       59.097       35.004     4663.448     3492.439     1225.248        3.313        0.469      238.330       26.499        0.012      342.125       17.310      862.069
09/06/2014  00:28:00     -161.344     -105.643       -0.230       77.569       59.073       29.992     6016.917     3489.572      899.500        2.380        0.520      192.853       35.534        0.034      342.308       17.623      862.049
09/06/2014  00:29:00      -97.797     -132.849        7.669       67.197       70.215       33.796     4515.426     4930.088     1142.174        1.893        0.529      164.964       37.144        0.051      342.090       17.253      862.067
09/06/2014  00:30:00     -184.939     -137.172      -21.637       58.688       67.837       33.705     3444.270     4601.801     1136.015        3.133        0.459      230.258       32.444        0.020      341.956       17.025      862.073
09/06/2014  00:31:00     -128.800     -123.327        1.944       69.087       52.267       35.995     4773.047     2731.854     1295.651        2.030        0.440      178.323       32.999        0.034      342.136       17.332      862.068
09/06/2014  00:32:00     -127.231      -98.319       -2.152       62.985       42.840       32.876     3967.166     1835.292     1080.854        1.637        0.344      160.792       33.276        0.043      341.960       17.034      862.077
09/06/2014  00:33:00     -113.407      -94.851       -7.514       59.489       51.781       30.928     3538.953     2681.302      956.536        1.454        0.359      147.844       31.294        0.045      341.971       17.054      862.083
09/06/2014  00:34:00     -150.347     -111.582        5.327       60.777       56.744       33.515     3693.872     3219.916     1123.266        2.156        0.402      187.229       35.760        0.036      342.066       17.213      862.073
09/06/2014  00:35:00     -144.585      -89.640       -4.940       34.292       36.612       24.791     1175.921     1340.447      614.582        1.605        0.157      170.118       20.342        0.014      342.078       17.235      862.071
09/06/2014  00:36:00     -101.860      -85.185       -0.458       34.306       31.178       23.221     1176.898      972.064      539.209        1.016        0.134      132.785       19.363        0.021      342.008       17.117      862.083
09/06/2014  00:37:00     -133.478      -62.847        5.410       35.486       32.844       21.942     1259.286     1078.722      481.449        1.231        0.141      147.533       20.048        0.018      342.091       17.259      862.075
09/06/2014  00:38:00     -116.122      -32.781        1.016       42.470       30.522       21.960     1803.706      931.614      482.236        0.889        0.161      120.660       22.296        0.034      342.025       17.148      862.070
09/06/2014  00:39:00     -107.313      -25.499       -3.107       34.691       34.237       19.221     1203.435     1172.199      369.452        0.746        0.137      110.301       18.894        0.029      341.917       16.962      862.084
09/06/2014  00:40:00     -103.457      -27.212        0.366       32.757       28.135       21.320     1073.034      791.593      454.535        0.688        0.116      106.976       20.807        0.038      341.938       16.999      862.084
09/06/2014  00:41:00     -102.184      -64.486       -4.933       41.677       28.808       18.537     1736.942      829.923      343.627        0.877        0.146      120.831       17.421        0.021      341.968       17.049      862.094
09/06/2014  00:42:00     -111.655      -40.372        4.968       46.378       41.289       26.855     2150.916     1704.753      721.170        0.935        0.229      118.730       19.063        0.026      341.973       17.057      862.124
09/06/2014  00:43:00      -96.373     -111.150       -7.296       48.118       46.633       26.454     2315.368     2174.681      699.835        1.344        0.259      147.113       16.266        0.012      341.905       16.941      862.133
09/06/2014  00:44:00     -101.086      -91.835        9.694       66.792       50.411       34.333     4461.199     2541.302     1178.773        1.346        0.409      136.573       35.893        0.069      341.848       16.845      862.148
09/06/2014  00:45:00     -129.161     -104.884       -8.961       42.236       42.290       24.852     1783.907     1788.408      617.609        1.598        0.209      166.383       21.977        0.017      341.818       16.795      862.163
09/06/2014  00:46:00     -135.878      -86.437       -5.800       45.947       54.838       26.623     2111.141     3007.211      708.803        1.590        0.291      161.041       25.922        0.026      341.824       16.805      862.162
09/06/2014  00:47:00     -123.725      -72.375       -3.645       39.328       40.664       24.905     1546.700     1653.591      620.235        1.219        0.191      143.339       19.468        0.018      341.860       16.865      862.168
09/06/2014  00:48:00     -112.676      -71.681       -9.992       23.152       26.695       14.618      536.013      712.600      213.692        0.970        0.073      133.544       14.393        0.012      341.929       16.982      862.169
09/06/2014  00:49:00      -88.700      -67.068       -3.224       34.072       21.629       17.174     1160.868      467.833      294.950        0.715        0.096      111.202       16.655        0.022      341.923       16.972      862.174
09/06/2014  00:50:00      -44.036      -21.807        8.732       44.755       21.586       20.307     2003.001      465.967      412.365        0.269        0.144       49.140       23.886        0.236      341.857       16.862      862.179
09/06/2014  00:51:00        9.338      -38.685        7.764       25.574       26.847       16.317      654.038      720.771      266.229        0.164        0.082       39.796       13.842        0.121      341.950       17.020      862.205
09/06/2014  00:52:00       -3.795      -55.116       -7.906       21.376       24.910       14.793      456.930      620.486      218.840        0.221        0.065       55.246       12.845        0.054      342.007       17.115      862.221
09/06/2014  00:53:00       -8.261      -43.192        6.033       16.076       44.923       13.077      258.428     2018.094      171.014        0.221        0.122       43.975       16.168        0.135      341.892       16.920      862.233
09/06/2014  00:54:00      -21.082      -25.294        5.354       29.238       23.862       16.939      854.834      569.375      286.913        0.141        0.086       32.928       15.210        0.213      341.873       16.890      862.242
09/06/2014  00:55:00      -93.848      -54.743       -5.604       25.821       29.211       17.345      666.726      853.295      300.843        0.683        0.091      108.648        8.445        0.006      341.818       16.795      862.245
09/06/2014  00:56:00     -119.313      -85.060      -12.056       21.196       35.725       14.297      449.260     1276.253      204.399        1.177        0.096      146.529       13.806        0.009      341.744       16.670      862.241
09/06/2014  00:57:00      -60.156      -61.878       -2.675       38.938       38.244       17.556     1516.189     1462.569      308.209        0.537        0.164       86.300       24.446        0.080      341.794       16.755      862.250
09/06/2014  00:58:00      -25.534      -41.283        5.792       31.260       28.868       21.164      977.194      833.347      447.923        0.232        0.113       48.541       19.329        0.159      341.824       16.804      862.270
09/06/2014  00:59:00      -33.885      -41.136       -2.326       23.925       18.987       14.896      572.390      360.506      221.894        0.200        0.058       53.295        9.384        0.031      341.922       16.972      862.282
09/06/2014  01:00:00      -56.468      -35.957       -2.400       13.095       17.353        9.784      171.467      301.110       95.730        0.253        0.028       66.945        5.103        0.006      341.841       16.833      862.296
09/06/2014  01:01:00      -34.002      -38.860       -0.104       21.988       43.038       16.865      483.458     1852.243      284.439        0.264        0.131       51.636        8.903        0.030      341.825       16.806      862.313
09/06/2014  01:02:00      -46.461      -20.656        1.153       24.024       16.883       11.991      577.133      285.021      143.791        0.180        0.050       50.846        7.023        0.019      341.829       16.812      862.318
09/06/2014  01:03:00      -48.176      -25.523       -0.532       26.981       15.231       13.996      727.999      231.986      195.888        0.206        0.058       54.520        9.114        0.028      341.803       16.769      862.317
09/06/2014  01:04:00      -34.466      -27.006        1.303       23.442       14.817       13.885      549.509      219.536      192.803        0.144        0.048       43.786       10.769        0.060      341.772       16.716      862.309
09/06/2014  01:05:00      -39.143      -17.501        1.351       25.910       22.130       11.563      671.309      489.742      133.697        0.157        0.065       42.877       12.082        0.079      341.686       16.572      862.314
09/06/2014  01:06:00      -65.739      -26.142       -0.415       10.346       13.408        9.584      107.042      179.771       91.856        0.269        0.019       70.746        5.677        0.006      341.668       16.543      862.324
09/06/2014  01:07:00      -93.103      -31.399       -9.046       15.780       20.776       12.625      249.012      431.632      159.379        0.529        0.042       98.255        4.718        0.002      341.667       16.539      862.335
09/06/2014  01:08:00      -88.939      -46.761       -4.249       30.777       20.291       16.029      947.218      411.736      256.942        0.587        0.081      100.482       15.265        0.023      341.617       16.453      862.341
09/06/2014  01:09:00      -64.008      -47.009       -2.221       38.093       21.987       16.831     1451.042      483.449      283.298        0.426        0.111       79.416        8.541        0.012      341.608       16.438      862.346
09/06/2014  01:10:00      -71.278      -65.605       -1.822       33.309       29.639       14.627     1109.505      878.486      213.960        0.579        0.110       96.874        2.969        0.001      341.627       16.471      862.353
09/06/2014  01:11:00      -80.180      -34.160        1.100       32.367       32.636       20.629     1047.626     1065.133      425.572        0.507        0.127       87.154       15.576        0.032      341.601       16.425      862.355
09/06/2014  01:12:00      -80.355      -53.075        3.271       45.113       29.000       22.755     2035.220      840.990      517.793        0.634        0.170       96.301       25.904        0.072      341.594       16.415      862.348
09/06/2014  01:13:00      -57.088      -40.659        0.846       35.275       28.674       19.255     1244.347      822.177      370.736        0.367        0.122       70.087       19.509        0.077      341.609       16.442      862.351
09/06/2014  01:14:00      -70.176      -23.595       -4.409       17.417       20.900       11.796      303.365      436.823      139.151        0.319        0.044       74.037        8.124        0.012      341.652       16.516      862.362
09/06/2014  01:15:00      -83.146       -9.632      -11.886       20.565       12.172       10.958      422.928      148.150      120.084        0.392        0.035       83.702       10.571        0.016      341.603       16.429      862.357
09/06/2014  01:16:00      -84.689       -2.577       -8.794       23.388       14.981       14.726      546.978      224.422      216.865        0.412        0.049       84.728       12.779        0.023      341.474       16.212      862.343
09/06/2014  01:17:00      -85.086       -5.479       -9.236       30.255       14.688       15.959      915.366      215.726      254.704        0.437        0.069       85.263       18.567        0.047      341.400       16.086      862.331
09/06/2014  01:18:00      -93.181      -13.659       -8.716       34.567       17.111       15.122     1194.863      292.793      228.678        0.533        0.086       94.177       17.268        0.034      341.417       16.115      862.325
09/06/2014  01:19:00      -93.669      -23.045       -3.898       35.805       23.440       17.238     1282.010      549.434      297.144        0.572        0.106       96.462       17.613        0.033      341.351       16.003      862.330
09/06/2014  01:20:00     -107.724      -37.504       -3.575       32.441       20.712       12.954     1052.390      428.989      167.814        0.734        0.082      114.066       16.627        0.021      341.307       15.929      862.342
09/06/2014  01:21:00      -84.345      -33.797       -2.801       28.297       30.297       14.638      800.740      917.918      214.261        0.510        0.097       90.865       11.390        0.016      341.329       15.966      862.357
09/06/2014  01:22:00      -72.971      -25.114        0.872       19.894       17.780       11.705      395.765      316.143      137.011        0.340        0.042       77.172       10.379        0.018      341.365       16.027      862.364
09/06/2014  01:23:00      -65.266      -25.587       -1.796       15.115       20.471       10.438      228.452      419.060      108.949        0.284        0.038       70.102        6.918        0.010      341.489       16.235      862.377
09/06/2014  01:24:00      -85.664      -19.797       -7.251       13.553       11.751       10.398      183.680      138.079      108.129        0.411        0.021       87.922        4.856        0.003      341.437       16.149      862.391
09/06/2014  01:25:00      -77.454      -23.424       -4.950       17.463       12.347       10.259      304.958      152.459      105.255        0.357        0.028       80.919        7.413        0.008      341.377       16.049      862.395
09/06/2014  01:26:00      -90.329      -19.165      -10.050       12.511       11.195        9.488      156.521      125.329       90.024        0.450        0.019       92.340        5.135        0.003      341.402       16.090      862.394
09/06/2014  01:27:00     -121.496      -22.898      -10.453       21.178       15.599       12.362      448.515      243.340      152.813        0.812        0.042      123.635        9.093        0.005      341.396       16.080      862.389
09/06/2014  01:28:00     -121.318      -34.937      -10.229       20.570       19.706       12.277      423.138      388.313      150.720        0.850        0.048      126.248        7.793        0.004      341.380       16.052      862.382
09/06/2014  01:29:00     -114.441      -38.941       -7.129       11.315       12.376        7.175      128.028      153.161       51.484        0.750        0.017      120.885        5.356        0.002      341.312       15.937      862.369
09/06/2014  01:30:00      -83.133      -33.122       -4.744       14.790       22.586       12.336      218.743      510.109      152.175        0.446        0.044       89.488        4.129        0.002      341.320       15.951      862.354
09/06/2014  01:31:00      -77.039      -26.383      -12.035       13.981       14.330       10.019      195.458      205.337      100.371        0.364        0.025       81.431        2.955        0.001      341.342       15.988      862.336
09/06/2014  01:32:00      -90.166      -12.264      -13.776       10.987        8.892        7.786      120.720       79.071       60.622        0.437        0.013       90.996        3.981        0.002      341.315       15.943      862.319
09/06/2014  01:33:00      -86.026       -8.488      -14.848       25.407       14.971       16.393      645.495      224.126      268.744        0.442        0.057       86.444       16.180        0.035      341.257       15.843      862.311
09/06/2014  01:34:00      -68.176      -27.588      -14.990       15.169       12.888        7.187      230.088      166.111       51.657        0.304        0.022       73.546        6.111        0.007      341.162       15.684      862.312
09/06/2014  01:35:00      -72.558      -63.080      -17.072       23.272       19.477       17.437      541.604      379.354      304.046        0.538        0.061       96.145       13.759        0.020      341.110       15.596      862.330
09/06/2014  01:36:00      -99.833      -54.496      -11.538       32.951       34.185       15.889     1085.744     1168.619      252.446        0.779        0.125      113.739       15.252        0.018      341.087       15.556      862.343
09/06/2014  01:37:00      -87.352      -39.904      -10.306       19.345       13.491        9.683      374.217      182.015       93.766        0.499        0.032       96.035        4.369        0.002      341.115       15.605      862.347
09/06/2014  01:38:00      -80.299      -44.349       -9.264        9.939       13.054        9.464       98.786      170.398       89.572        0.443        0.018       91.732        4.339        0.002      341.164       15.686      862.354
09/06/2014  01:39:00      -89.584      -42.421      -14.516       12.181       13.941       10.004      148.389      194.347      100.079        0.524        0.022       99.120        6.957        0.005      341.243       15.821      862.361
09/06/2014  01:40:00     -106.717      -42.228       -9.575       15.235       15.001        9.078      232.096      225.036       82.418        0.690        0.027      114.768        6.568        0.003      341.241       15.817      862.351
09/06/2014  01:41:00     -115.714      -30.010      -10.172       18.332       18.068       12.148      336.059      326.462      147.575        0.760        0.041      119.542       10.515        0.008      341.228       15.795      862.335
09/06/2014  01:42:00      -93.957      -46.651       -0.985       27.225       19.472       14.864      741.177      379.142      220.952        0.617        0.067      104.901       11.660        0.012      341.144       15.652      862.339
09/06/2014  01:43:00     -101.747      -63.930       -2.979       15.671       14.851       14.864      245.569      220.556      220.940        0.757        0.034      120.165        8.177        0.005      341.131       15.631      862.338
09/06/2014  01:44:00     -138.292      -58.223      -15.365       26.838       16.231       11.725      720.255      263.447      137.486        1.194        0.056      150.048        7.636        0.003      341.178       15.712      862.329
09/06/2014  01:45:00     -162.357      -55.876      -15.284       15.796       17.623       15.942      249.506      310.568      254.149        1.526        0.041      171.703        8.696        0.003      341.077       15.539      862.321
09/06/2014  01:46:00     -154.319      -68.528       -2.489       39.633       30.005       18.207     1570.799      900.326      331.477        1.566        0.140      168.850       15.831        0.009      340.991       15.394      862.322
09/06/2014  01:47:00     -162.965      -59.847        0.159       37.225       30.238       20.305     1385.715      914.321      412.289        1.643        0.136      173.607       18.679        0.012      340.877       15.200      862.312
09/06/2014  01:48:00     -156.374      -48.081       -4.432       31.451       30.110       21.014      989.155      906.636      441.601        1.456        0.117      163.599       16.300        0.010      340.797       15.066      862.297
09/06/2014  01:49:00     -113.386      -62.578       -4.324       33.190       26.671       21.353     1101.608      711.320      455.957        0.953        0.113      129.509       16.884        0.017      340.818       15.101      862.295
09/06/2014  01:50:00      -54.716        2.425       -7.751       40.573       38.532       23.703     1646.170     1484.689      561.815        0.338        0.185       54.770       23.295        0.181      340.933       15.296      862.277
09/06/2014  01:51:00     -122.088        2.598      -10.663       51.355       31.036       23.210     2637.367      963.232      538.712        0.958        0.207      122.116       20.448        0.028      341.120       15.614      862.253
09/06/2014  01:52:00     -131.149      -19.108       -9.818       51.290       36.654       25.444     2630.689     1343.545      647.415        1.114        0.231      132.534       19.737        0.022      341.144       15.652      862.253
09/06/2014  01:53:00     -125.308      -28.910       -4.086       40.410       45.600       26.800     1633.002     2079.375      718.266        1.049        0.222      128.600       20.661        0.026      341.069       15.525      862.258
09/06/2014  01:54:00     -170.063      -52.474       -7.260       48.187       43.964       23.873     2322.010     1932.876      569.900        1.828        0.241      177.975       16.356        0.008      341.047       15.489      862.260
09/06/2014  01:55:00     -160.209      -21.584       -7.743       60.180       37.615       30.993     3621.677     1414.914      960.573        1.609        0.300      161.657       33.157        0.042      340.985       15.383      862.270
09/06/2014  01:56:00     -106.830      -20.042        4.469       47.923       30.798       22.116     2296.576      948.501      489.109        0.778        0.187      108.693       23.724        0.048      341.005       15.419      862.269
09/06/2014  01:57:00     -116.348      -15.555       -3.899       32.423       28.895       21.321     1051.266      834.941      454.575        0.807        0.117      117.384       17.425        0.022      341.000       15.408      862.261
09/06/2014  01:58:00      -93.581      -11.704      -14.024       29.702       21.832       12.747      882.225      476.648      162.494        0.531        0.076       94.310        6.115        0.004      341.075       15.536      862.253
09/06/2014  01:59:00      -52.941      -28.208      -14.136       26.376       19.935       15.008      695.672      397.395      225.228        0.256        0.066       59.987       12.135        0.041      341.104       15.585      862.248
09/06/2014  02:00:00      -71.632        0.752      -21.446       27.113       20.957       13.342      735.113      439.195      178.018        0.347        0.068       71.636        7.330        0.010      341.416       16.114      862.236
09/06/2014  02:01:00      -44.057       -3.468      -16.566       23.742       12.614       12.797      563.693      159.115      163.763        0.156        0.044       44.194       14.922        0.114      341.383       16.057      862.243
09/06/2014  02:02:00      -38.610      -15.144       -4.359       11.621        7.076        6.309      135.046       50.070       39.803        0.098        0.011       41.473        2.032        0.002      341.371       16.036      862.255
09/06/2014  02:03:00      -14.575      -26.196       -3.362       25.986       15.285       13.234      675.282      233.637      175.147        0.100        0.054       29.977       12.548        0.175      341.397       16.082      862.259
09/06/2014  02:04:00      -12.654      -22.868       16.747       41.828       24.406       22.136     1749.599      595.632      490.016        0.190        0.142       26.135       20.227        0.599      341.161       15.683      862.271
09/06/2014  02:05:00      -71.043      -61.066       -1.172       35.088       43.889       28.115     1231.186     1926.250      790.441        0.636        0.197       93.681       19.335        0.043      341.235       15.806      862.298
09/06/2014  02:06:00      -80.487      -58.552       -5.810       46.181       44.662       23.233     2132.704     1994.651      539.791        0.730        0.233       99.532       29.003        0.085      341.281       15.884      862.304
09/06/2014  02:07:00      -87.327      -55.073       -5.340       47.767       45.815       36.057     2281.696     2099.057     1300.086        0.818        0.284      103.243       34.510        0.112      341.210       15.764      862.304
09/06/2014  02:08:00      -88.013      -54.899       -1.070       40.556       39.779       28.878     1644.792     1582.364      833.915        0.741        0.203      103.731       19.069        0.034      341.113       15.600      862.302
09/06/2014  02:09:00      -72.098      -49.921        3.362       36.907       28.771       18.956     1362.153      827.759      359.329        0.512        0.127       87.694       21.781        0.062      341.147       15.660      862.291
09/06/2014  02:10:00      -65.222      -46.233        0.637       33.635       25.348       17.703     1131.295      642.509      313.384        0.424        0.104       79.946       12.281        0.024      341.148       15.660      862.266
09/06/2014  02:11:00      -88.987      -44.720       -5.929       23.939       24.965       15.552      573.085      623.251      241.879        0.570        0.072       99.592       10.465        0.011      341.177       15.709      862.253
09/06/2014  02:12:00      -95.445      -68.397        0.110       38.481       25.650       19.371     1480.750      657.940      375.252        0.815        0.126      117.422       13.637        0.013      341.118       15.608      862.248
09/06/2014  02:13:00     -106.932      -77.047        2.706       52.541       32.296       23.756     2760.536     1043.049      564.327        1.087        0.218      131.798       22.427        0.029      341.036       15.470      862.234
09/06/2014  02:14:00     -101.274      -78.092        2.923       43.487       40.942       23.125     1891.122     1676.255      534.773        1.023        0.205      127.885       22.183        0.030      341.084       15.551      862.219
09/06/2014  02:15:00      -93.660      -58.686        1.917       46.656       32.632       23.640     2176.775     1064.818      558.839        0.801        0.190      110.527       20.933        0.036      341.156       15.673      862.215
09/06/2014  02:16:00      -70.680      -44.723        5.035       50.659       33.040       19.472     2566.378     1091.645      379.177        0.553        0.202       83.641       22.843        0.075      341.123       15.618      862.195
09/06/2014  02:17:00     -107.526      -52.547       -0.453       25.836       19.152       16.751      667.491      366.781      280.588        0.782        0.066      119.679       14.696        0.015      341.121       15.613      862.170
09/06/2014  02:18:00      -97.095      -58.744        1.259       28.144       17.747       17.570      792.078      314.947      308.703        0.715        0.071      113.483       16.090        0.020      341.097       15.574      862.165
09/06/2014  02:19:00      -73.775      -39.322        2.739       34.379       25.792       18.257     1181.884      665.206      333.307        0.459        0.109       83.600       17.367        0.043      341.036       15.469      862.176
09/06/2014  02:20:00      -63.193      -36.392        2.834       30.996       22.134       17.309      960.758      489.904      299.595        0.354        0.088       72.922       19.885        0.074      341.056       15.504      862.195
09/06/2014  02:21:00      -72.392      -34.088       -0.138       17.374       18.238       11.490      301.839      332.610      132.027        0.358        0.038       80.017        7.625        0.009      341.116       15.605      862.207
09/06/2014  02:22:00      -84.654      -38.804       -4.206       17.356       14.627       11.122      301.219      213.936      123.703        0.466        0.032       93.124        9.567        0.011      341.169       15.695      862.200
09/06/2014  02:23:00      -84.556      -34.090       -4.568       10.753       13.197        8.757      115.627      174.156       76.680        0.435        0.018       91.169        3.691        0.002      341.203       15.754      862.198
09/06/2014  02:24:00      -68.461      -22.883       -5.836       20.553       12.163        8.856      422.421      147.949       78.423        0.295        0.032       72.184        4.182        0.003      341.181       15.717      862.214
09/06/2014  02:25:00      -83.546      -26.749      -11.275        9.631       13.393        7.282       92.764      179.363       53.021        0.407        0.016       87.724        3.716        0.002      341.177       15.709      862.215
09/06/2014  02:26:00      -99.780      -33.125      -10.221       13.268       10.519        9.923      176.043      110.656       98.464        0.577        0.019      105.135        3.706        0.001      341.175       15.704      862.212
09/06/2014  02:27:00     -103.074      -51.883       -9.968       19.965       15.480       10.369      398.606      239.643      107.518        0.708        0.037      115.396        5.768        0.002      341.120       15.611      862.217
09/06/2014  02:28:00      -81.060      -33.449       -4.482       15.970       13.581       11.850      255.054      184.431      140.420        0.414        0.029       87.691        7.452        0.007      341.030       15.461      862.233
09/06/2014  02:29:00      -73.321      -31.585       -6.168        9.356        9.964        5.857       87.535       99.280       34.299        0.332        0.011       79.834        3.948        0.002      341.011       15.427      862.244
09/06/2014  02:30:00      -82.461      -18.717       -8.984       12.336        9.847       11.202      152.173       96.970      125.479        0.380        0.019       84.559        8.010        0.009      340.998       15.406      862.249
09/06/2014  02:31:00      -87.219      -24.958      -11.792       18.651       15.854       12.037      347.872      251.354      144.888        0.456        0.037       90.720        9.176        0.010      340.970       15.357      862.244
09/06/2014  02:32:00     -114.344      -35.019      -13.638       11.487       13.481       10.737      131.951      181.731      115.287        0.746        0.021      119.587        4.601        0.001      340.927       15.287      862.239
09/06/2014  02:33:00     -117.675      -50.732      -13.261       12.971       13.459       10.046      168.238      181.158      100.917        0.852        0.023      128.145        4.356        0.001      340.883       15.212      862.246
09/06/2014  02:34:00     -116.238      -45.674      -10.618       11.605       16.354       10.862      134.676      267.452      117.989        0.812        0.026      124.890        7.147        0.003      340.913       15.261      862.251
09/06/2014  02:35:00     -131.382      -23.097       -9.565       14.261       15.800       13.191      203.378      249.630      173.996        0.926        0.031      133.396        8.450        0.004      340.948       15.323      862.246
09/06/2014  02:36:00      -96.616      -25.865       -1.073       32.285       19.974       14.267     1042.312      398.970      203.544        0.582        0.082      100.018       15.795        0.025      340.963       15.347      862.243
09/06/2014  02:37:00      -93.714      -39.446       -3.800       17.103       12.274        8.806      292.512      150.643       77.538        0.544        0.026      101.677        8.100        0.006      340.978       15.368      862.241
09/06/2014  02:38:00     -109.514      -39.348       -7.580       12.041       15.278       11.819      144.976      233.416      139.683        0.706        0.026      116.369        4.604        0.002      341.012       15.430      862.242
09/06/2014  02:39:00      -86.975      -49.440       -2.887       43.215       23.370       16.090     1867.566      546.161      258.896        0.634        0.134      100.045       12.514        0.016      340.798       15.069      862.238
09/06/2014  02:40:00      -73.514      -66.102        7.612       46.064       45.428       32.577     2121.851     2063.728     1061.275        0.754        0.262       98.863       27.070        0.075      340.705       14.910      862.239
09/06/2014  02:41:00      -92.729      -70.356       -3.174       43.262       35.436       26.655     1871.615     1255.699      710.512        0.870        0.192      116.399        9.736        0.007      340.818       15.101      862.249
09/06/2014  02:42:00      -77.784      -78.232       -4.903       40.429       39.023       26.282     1634.468     1522.801      690.766        0.802        0.192      110.321       14.664        0.018      340.836       15.131      862.256
09/06/2014  02:43:00      -92.530      -41.365       -2.559       53.907       40.022       22.706     2905.975     1601.725      515.544        0.765        0.251      101.356       23.274        0.053      340.749       14.985      862.253
09/06/2014  02:44:00     -103.019      -61.751       -1.562       25.983       23.127       15.439      675.132      534.868      238.373        0.794        0.072      120.109        9.467        0.006      340.736       14.960      862.259
09/06/2014  02:45:00      -69.359      -47.603        8.017       31.893       27.791       20.868     1017.193      772.352      435.486        0.468        0.111       84.123       17.723        0.044      340.719       14.933      862.264
09/06/2014  02:46:00      -91.940      -72.038       -6.079       25.575       19.169       13.460      654.076      367.460      181.171        0.744        0.060      116.801       12.175        0.011      340.747       14.979      862.270
09/06/2014  02:47:00      -76.408      -64.835       -0.587       49.073       30.686       24.968     2408.145      941.631      623.381        0.701        0.199      100.209       28.496        0.081      340.681       14.870      862.278
09/06/2014  02:48:00      -89.551      -58.729        2.885       37.306       35.195       25.549     1391.744     1238.661      652.774        0.738        0.164      107.091       21.478        0.040      340.628       14.781      862.290
09/06/2014  02:49:00     -106.372      -49.584       -1.649       30.672       22.260       18.605      940.773      495.529      346.132        0.778        0.089      117.361       13.201        0.013      340.570       14.682      862.299
09/06/2014  02:50:00      -58.479      -56.379        2.604       28.160       24.972       22.013      792.989      623.609      484.558        0.425        0.095       81.230       17.264        0.045      340.580       14.699      862.302
09/06/2014  02:51:00      -76.473      -47.198        2.065       34.385       24.138       19.230     1182.362      582.623      369.791        0.511        0.107       89.865       16.886        0.035      340.555       14.655      862.300
09/06/2014  02:52:00      -85.489      -53.775       -2.114       33.845       25.415       16.850     1145.502      645.909      283.917        0.614        0.104      100.996       11.405        0.013      340.587       14.712      862.303
09/06/2014  02:53:00      -46.940      -31.338        7.644       40.835       28.034       18.751     1667.470      785.921      351.618        0.302        0.140       56.440       16.836        0.089      340.547       14.643      862.319
09/06/2014  02:54:00      -47.525      -47.519        4.635       34.952       27.922       20.312     1221.614      779.629      412.569        0.348        0.121       67.206       18.317        0.074      340.609       14.748      862.321
09/06/2014  02:55:00      -59.097      -51.507        9.163       37.287       35.168       25.782     1390.313     1236.791      664.703        0.476        0.165       78.393       19.928        0.065      340.562       14.668      862.321
09/06/2014  02:56:00     -112.008      -75.390        6.882       50.841       32.183       28.268     2584.798     1035.772      799.088        1.135        0.221      135.017       25.050        0.034      340.613       14.753      862.308
09/06/2014  02:57:00     -111.669      -71.059        5.341       76.726       41.103       29.076     5886.824     1689.470      845.433        1.298        0.421      132.361       30.274        0.052      340.613       14.753      862.311
09/06/2014  02:58:00      -81.638      -55.587        2.877       43.905       26.622       23.402     1927.663      708.754      547.665        0.647        0.159       98.765       26.891        0.074      340.579       14.696      862.321
09/06/2014  02:59:00      -76.109      -61.874        4.439       36.010       31.130       14.133     1296.697      969.069      199.743        0.605        0.123       98.086       17.695        0.033      340.608       14.747      862.334
09/06/2014  03:00:00      -54.184      -41.207        2.945       48.236       20.507       19.639     2326.725      420.557      385.699        0.389        0.157       68.073       22.672        0.111      340.635       14.791      862.343
09/06/2014  03:01:00      -79.967      -42.001       -3.110       35.048       28.412       17.210     1228.333      807.215      296.174        0.525        0.117       90.326       14.735        0.027      340.580       14.698      862.339
09/06/2014  03:02:00      -92.152      -50.667       -1.493       26.882       22.849       17.752      722.617      522.088      315.118        0.631        0.078      105.162       18.449        0.031      340.499       14.562      862.325
09/06/2014  03:03:00      -66.162      -46.066        2.095       38.880       26.411       19.000     1511.631      697.551      360.987        0.454        0.129       80.619       20.413        0.064      340.494       14.551      862.312
09/06/2014  03:04:00      -98.493      -55.045       -5.296       33.057       20.071       19.254     1092.786      402.841      370.711        0.731        0.093      112.831       12.718        0.013      340.433       14.449      862.325
09/06/2014  03:05:00      -76.524      -52.608        3.849       44.305       27.543       19.745     1962.973      758.632      389.858        0.587        0.156       92.862       16.909        0.033      340.414       14.418      862.340
09/06/2014  03:06:00      -47.923      -40.818        7.186       44.367       27.763       20.980     1968.411      770.776      440.162        0.360        0.159       62.951       21.518        0.117      340.423       14.433      862.348
09/06/2014  03:07:00      -55.409      -51.939        1.254       36.152       29.239       21.086     1306.938      854.928      444.612        0.419        0.130       75.947       20.631        0.074      340.476       14.523      862.357
09/06/2014  03:08:00      -62.134      -50.006        1.998       36.738       22.823       18.572     1349.671      520.905      344.936        0.429        0.111       79.758       20.860        0.068      340.512       14.584      862.380
09/06/2014  03:09:00      -72.880      -38.697       -1.917       31.350       23.470       21.416      982.821      550.819      458.656        0.440        0.100       82.516       15.853        0.037      340.497       14.559      862.380
09/06/2014  03:10:00      -60.293      -38.879        5.515       32.229       27.807       22.781     1038.730      773.219      518.958        0.375        0.117       71.741       18.984        0.070      340.422       14.432      862.377
09/06/2014  03:11:00      -33.546      -29.936       10.317       31.169       21.807       20.644      971.506      475.555      426.192        0.200        0.094       44.961       12.736        0.080      340.434       14.453      862.377
09/06/2014  03:12:00      -73.046      -58.135       -2.967       32.238       26.884       16.126     1039.269      722.742      260.042        0.537        0.101       93.356       14.516        0.024      340.575       14.690      862.376
09/06/2014  03:13:00      -66.775      -49.364       -4.036       31.820       28.833       20.447     1012.524      831.347      418.086        0.459        0.113       83.040       15.828        0.036      340.581       14.700      862.363
09/06/2014  03:14:00      -49.515      -35.939       -2.281       30.853       17.704       19.122      951.908      313.432      365.632        0.269        0.082       61.182       14.289        0.055      340.450       14.478      862.375
09/06/2014  03:15:00      -53.612      -35.663        1.534       19.078       13.007       12.696      363.955      169.180      161.198        0.242        0.035       64.391        9.740        0.023      340.420       14.429      862.382
09/06/2014  03:16:00      -66.166      -39.388       -4.568       19.619       13.901       12.459      384.903      193.251      155.225        0.334        0.037       77.003       10.923        0.020      340.492       14.549      862.386
09/06/2014  03:17:00      -74.459      -41.441       -0.043       28.979       18.286       14.273      839.807      334.362      203.711        0.432        0.069       85.214       13.437        0.025      340.411       14.412      862.382
09/06/2014  03:18:00     -114.350      -29.608      -13.045       15.016       19.363       11.366      225.481      374.909      129.183        0.743        0.036      118.121        7.349        0.004      340.390       14.377      862.374
09/06/2014  03:19:00     -106.063      -40.749      -11.072       12.078       16.261       11.290      145.874      264.427      127.471        0.678        0.027      113.621        6.216        0.003      340.388       14.374      862.357
09/06/2014  03:20:00      -65.433      -40.097       -3.640       28.722       15.243       12.380      824.937      232.353      153.264        0.356        0.061       76.741        5.578        0.005      340.368       14.341      862.354
09/06/2014  03:21:00      -81.502      -45.723       -1.594       21.510       23.331       18.260      462.692      544.313      333.411        0.504        0.067       93.451       15.206        0.026      340.346       14.304      862.357
09/06/2014  03:22:00      -81.941      -47.510        0.975       28.263       15.950       15.385      798.789      254.411      236.706        0.513        0.064       94.719       12.142        0.016      340.398       14.390      862.365
09/06/2014  03:23:00     -115.365      -59.915       -1.638       29.560       19.680       16.661      873.801      387.309      277.575        0.922        0.077      129.996       11.971        0.008      340.416       14.420      862.374
09/06/2014  03:24:00     -110.832      -48.202      -12.294       17.003       15.188        9.487      289.094      230.677       90.002        0.768        0.030      120.860        7.123        0.003      340.374       14.351      862.376
09/06/2014  03:25:00      -83.542      -52.647      -12.982       11.930        9.489        7.587      142.319       90.049       57.563        0.510        0.014       98.747        4.198        0.002      340.351       14.311      862.378
09/06/2014  03:26:00      -76.498      -50.079       -3.105       19.298       16.185       12.576      372.411      261.964      158.151        0.458        0.040       91.432       10.789        0.014      340.324       14.266      862.389
09/06/2014  03:27:00      -65.634      -37.862       -0.392       31.059       16.060       15.811      964.659      257.928      249.981        0.361        0.074       75.771       14.896        0.039      340.245       14.133      862.401
09/06/2014  03:28:00      -37.782      -36.166        1.436       39.934       23.862       16.981     1594.725      569.402      288.371        0.259        0.123       52.302       21.402        0.167      340.182       14.026      862.414
09/06/2014  03:29:00      -81.341      -62.666        1.361       50.214       36.496       24.599     2521.460     1331.952      605.099        0.750        0.223      102.681       25.379        0.061      340.203       14.061      862.416
09/06/2014  03:30:00      -95.068      -59.938       -9.299       40.911       28.997       19.146     1673.694      840.822      366.551        0.780        0.144      112.385       21.983        0.038      340.274       14.181      862.411
09/06/2014  03:31:00      -69.774      -39.291       -0.425       24.868       19.727       12.841      618.414      389.136      164.889        0.379        0.059       80.076        6.801        0.007      340.264       14.165      862.416
09/06/2014  03:32:00      -87.604      -44.676       -0.945       16.422       18.021       10.919      269.696      324.760      119.220        0.519        0.036       98.339        6.731        0.005      340.258       14.155      862.420
09/06/2014  03:33:00      -47.991      -24.445        1.566       25.586       20.559       16.047      654.668      422.681      257.501        0.212        0.067       53.858       12.527        0.054      340.220       14.089      862.425
09/06/2014  03:34:00      -24.773      -25.182        9.090       28.231       16.214       18.965      796.979      262.900      359.685        0.137        0.071       35.325       13.940        0.156      340.174       14.011      862.435
09/06/2014  03:35:00      -32.300      -32.405        1.493       27.746       19.560       15.341      769.858      382.583      235.358        0.174        0.069       45.754       12.254        0.072      340.250       14.141      862.450
09/06/2014  03:36:00      -63.552      -61.640        2.361       23.132       23.684       14.330      535.081      560.942      205.341        0.457        0.065       88.535       11.061        0.016      340.220       14.090      862.460
09/06/2014  03:37:00      -83.125      -69.076       -1.136       33.505       36.949       22.150     1122.600     1365.227      490.606        0.733        0.149      108.080       18.529        0.029      340.256       14.151      862.467
09/06/2014  03:38:00     -100.189      -99.503       -8.683       23.351       26.715       15.448      545.266      713.691      238.655        1.076        0.075      141.204        7.853        0.003      340.293       14.213      862.465
09/06/2014  03:39:00      -88.097      -85.393      -12.461       34.129       31.927       18.600     1164.778     1019.354      345.950        0.887        0.127      122.691       16.837        0.019      340.247       14.135      862.471
09/06/2014  03:40:00      -96.990      -62.149        1.041       44.960       27.872       22.605     2021.361      776.840      510.966        0.829        0.165      115.194       20.264        0.031      340.198       14.052      862.469
09/06/2014  03:41:00      -99.231      -60.456        1.923       32.226       21.766       16.029     1038.505      473.766      256.930        0.764        0.088      116.197       14.766        0.016      340.148       13.968      862.462
09/06/2014  03:42:00      -78.175      -40.622        5.115       27.884       21.669       16.142      777.526      469.541      260.564        0.465        0.075       88.100       15.601        0.031      340.136       13.949      862.459
09/06/2014  03:43:00      -56.267      -29.671        3.713       42.349       19.171       17.926     1793.403      367.544      321.326        0.327        0.124       63.611       15.729        0.061      340.099       13.886      862.458
09/06/2014  03:44:00      -65.240      -38.349       -4.686       34.357       18.322       18.554     1180.402      335.687      344.248        0.380        0.093       75.677       18.754        0.061      340.056       13.813      862.465
09/06/2014  03:45:00      -82.056      -52.811        0.075       27.429       16.286       19.375      752.342      265.228      375.403        0.546        0.070       97.582       11.456        0.014      340.051       13.805      862.464
09/06/2014  03:46:00     -114.033      -58.200       -3.357       21.869       17.569       14.652      478.268      308.673      214.667        0.870        0.050      128.027       11.694        0.008      340.122       13.925      862.450
09/06/2014  03:47:00     -128.326      -50.094       -9.001       14.343       20.204       12.954      205.729      408.206      167.809        0.992        0.039      137.757        4.224        0.001      340.062       13.823      862.450
09/06/2014  03:48:00     -110.846      -45.300       -0.644       22.170       18.449       15.901      491.529      340.362      252.857        0.771        0.054      119.745       12.200        0.010      340.009       13.735      862.456
09/06/2014  03:49:00     -116.518      -46.420       -6.605       16.115       17.244       12.978      259.688      297.371      168.429        0.825        0.036      125.424       10.072        0.006      339.969       13.665      862.456
09/06/2014  03:50:00     -132.215      -45.471       -7.646       11.588        9.643        8.086      134.271       92.980       65.380        0.995        0.015      139.816        4.707        0.001      340.073       13.841      862.449
09/06/2014  03:51:00     -120.300      -38.905       -8.437       20.323       18.885       13.625      413.011      356.660      185.632        0.851        0.048      126.435        8.819        0.005      340.073       13.842      862.454
09/06/2014  03:52:00     -114.890      -54.357        1.346       28.177       18.913       17.789      793.935      357.704      316.459        0.881        0.073      127.100       17.210        0.018      340.000       13.719      862.474
09/06/2014  03:53:00     -120.709      -56.102       -8.670       12.212       14.214        8.811      149.143      202.041       77.641        0.911        0.021      133.110        5.375        0.002      340.003       13.725      862.479
09/06/2014  03:54:00     -131.496      -60.108      -13.399        9.573       13.302       10.005       91.635      176.949      100.097        1.073        0.018      144.583        4.687        0.001      339.991       13.704      862.471
09/06/2014  03:55:00     -121.747      -58.027       -6.190       15.769       19.269        8.313      248.647      371.278       69.110        0.946        0.034      134.868        5.738        0.002      339.994       13.709      862.477
09/06/2014  03:56:00     -122.197      -49.152       -5.739       18.962       19.118       11.873      359.540      365.500      140.974        0.912        0.043      131.712        8.739        0.004      340.015       13.743      862.476
09/06/2014  03:57:00     -120.731      -52.906       -7.965       15.208       16.430       14.898      231.273      269.936      221.936        0.908        0.036      131.815        4.764        0.001      339.945       13.627      862.465
09/06/2014  03:58:00      -97.647      -51.210       -7.378       30.384       26.573       18.148      923.182      706.145      329.350        0.708        0.098      110.261       18.907        0.029      339.940       13.619      862.468
09/06/2014  03:59:00     -110.893      -71.741      -11.115       12.864       17.207       13.906      165.480      296.090      193.365        0.911        0.033      132.076        6.923        0.003      339.959       13.650      862.472
09/06/2014  04:00:00     -123.158      -60.218       -8.889       15.917       14.197       11.190      253.362      201.545      125.222        0.973        0.029      137.092        7.149        0.003      339.958       13.650      862.468
09/06/2014  04:01:00     -134.740      -51.032      -13.962       13.118       12.111       10.157      172.080      146.680      103.165        1.069        0.021      144.080        5.687        0.002      339.972       13.673      862.468
09/06/2014  04:02:00     -108.516      -43.015        1.728       29.088       18.197       19.706      846.121      331.140      388.316        0.760        0.078      116.731       16.239        0.019      339.900       13.551      862.481
09/06/2014  04:03:00     -109.078      -50.620        0.042       21.914       18.902       15.033      480.237      357.298      226.001        0.776        0.053      120.252       12.655        0.011      339.929       13.600      862.487
09/06/2014  04:04:00      -98.015      -44.304        0.294       23.163       14.140       11.184      536.512      199.936      125.091        0.622        0.043      107.563       11.850        0.012      339.936       13.611      862.475
09/06/2014  04:05:00     -106.140      -49.708      -11.390       12.908       14.826       10.793      166.606      219.821      116.492        0.718        0.025      117.203        5.094        0.002      339.955       13.643      862.469
09/06/2014  04:06:00     -113.537      -54.615       -8.467       13.542       17.504       12.727      183.381      306.400      161.977        0.830        0.033      125.989        7.870        0.004      339.937       13.613      862.477
09/06/2014  04:07:00      -83.200      -65.538        0.474       38.568       23.592       16.824     1487.495      556.561      283.038        0.677        0.116      105.913       17.072        0.026      339.940       13.618      862.465
09/06/2014  04:08:00      -70.271      -60.888       -2.777       28.231       19.562       19.567      796.992      382.658      382.882        0.511        0.078       92.981       15.303        0.027      339.942       13.620      862.467
09/06/2014  04:09:00      -63.480      -51.304       -3.039       19.449       16.275       13.515      378.274      264.867      182.654        0.375        0.041       81.620        6.668        0.007      339.978       13.682      862.472
09/06/2014  04:10:00      -42.575      -44.159        4.150       31.308       20.599       21.412      980.196      424.299      458.477        0.282        0.093       61.341       17.942        0.086      340.039       13.783      862.482
09/06/2014  04:11:00      -62.370      -63.379       -0.343       34.247       23.500       22.779     1172.861      552.233      518.862        0.508        0.112       88.921       21.962        0.061      340.059       13.818      862.469
09/06/2014  04:12:00      -55.785      -28.006        1.013       34.468       25.979       17.765     1188.075      674.896      315.600        0.304        0.109       62.420       20.132        0.104      339.954       13.642      862.467
09/06/2014  04:13:00      -46.204      -29.204       -2.711       18.680       17.391       12.266      348.930      302.450      150.443        0.190        0.040       54.660        9.186        0.028      339.989       13.699      862.474
09/06/2014  04:14:00      -27.944      -33.318        5.907       33.212       18.926       18.633     1103.044      358.204      347.200        0.187        0.090       43.485       15.727        0.131      339.964       13.658      862.472
09/06/2014  04:15:00      -31.596      -34.083        9.685       38.311       34.198       20.854     1467.721     1169.482      434.890        0.266        0.154       46.475       17.935        0.149      339.968       13.667      862.476
09/06/2014  04:16:00      -38.916      -49.994        5.405       30.402       22.717       22.485      924.310      516.059      505.569        0.299        0.097       63.355       18.941        0.089      339.928       13.596      862.479
09/06/2014  04:17:00      -46.272      -26.467        4.944       34.141       20.389       16.612     1165.633      415.728      275.967        0.236        0.093       53.307       18.460        0.120      339.884       13.524      862.487
09/06/2014  04:18:00      -70.160      -17.191       -6.269       10.580       17.699        7.569      111.945      313.259       57.297        0.287        0.024       72.235        4.720        0.004      339.981       13.687      862.483
09/06/2014  04:19:00      -76.428      -19.158      -14.427        8.392       13.337        7.854       70.427      177.875       61.689        0.336        0.015       78.792        5.769        0.005      340.078       13.850      862.480
09/06/2014  04:20:00      -79.265      -36.883       -6.335        9.383       10.633        8.697       88.044      113.059       75.632        0.398        0.014       87.426        6.301        0.005      340.107       13.900      862.476
09/06/2014  04:21:00      -88.632      -28.151       -4.452       14.192       15.293        8.087      201.418      233.890       65.403        0.458        0.025       92.995        6.427        0.005      340.001       13.722      862.480
09/06/2014  04:22:00      -89.808      -44.828       -8.463       11.212       12.956        6.833      125.715      167.852       46.695        0.524        0.017      100.375        5.294        0.003      339.923       13.590      862.485
09/06/2014  04:23:00      -74.552      -39.626       -4.518       12.194       11.740        9.505      148.684      137.834       90.339        0.376        0.019       84.429        4.531        0.003      339.926       13.595      862.474
09/06/2014  04:24:00      -66.625      -18.593       -5.150        9.682        9.836       11.168       93.736       96.744      124.718        0.256        0.016       69.171        7.656        0.012      339.955       13.644      862.462
09/06/2014  04:25:00      -66.481      -11.891       -8.728       12.455        9.981        8.688      155.126       99.612       75.488        0.248        0.017       67.536        5.096        0.006      340.008       13.730      862.454
09/06/2014  04:26:00      -59.030      -24.460      -10.171       12.738        9.074        8.155      162.252       82.343       66.503        0.225        0.016       63.897        6.787        0.011      339.980       13.686      862.460
09/06/2014  04:27:00      -77.015      -45.436      -10.636       12.266       11.851        7.220      150.451      140.441       52.125        0.423        0.017       89.419        4.817        0.003      339.905       13.557      862.466
09/06/2014  04:28:00      -62.918      -49.332       -6.767       26.128       20.278       19.049      682.673      411.212      362.875        0.395        0.073       79.952       10.176        0.016      339.864       13.490      862.477
09/06/2014  04:29:00      -94.969      -39.273      -12.589       13.825       15.057       11.631      191.136      226.721      135.281        0.564        0.028      102.768        6.123        0.004      339.885       13.526      862.489
09/06/2014  04:30:00      -66.868      -32.317       -5.273       14.645       16.728       12.161      214.486      279.821      147.891        0.309        0.032       74.268        8.080        0.012      339.931       13.603      862.495
09/06/2014  04:31:00      -53.290      -31.870       -4.648       19.533       12.947       12.428      381.543      167.619      154.451        0.229        0.035       62.093       11.412        0.034      339.965       13.661      862.496
09/06/2014  04:32:00      -80.167      -32.883      -10.184       13.518       15.058       12.620      182.729      226.739      159.263        0.409        0.028       86.648        8.670        0.010      339.973       13.674      862.494
09/06/2014  04:33:00      -62.270      -34.975        2.132       33.213       13.374       12.034     1103.088      178.875      144.807        0.327        0.071       71.420       13.392        0.035      339.918       13.580      862.488
09/06/2014  04:34:00      -12.583      -10.177        4.455       16.885       15.443       13.378      285.088      238.474      178.972        0.049        0.035       16.184        9.000        0.309      339.829       13.431      862.496
09/06/2014  04:35:00      -37.711      -26.276        0.522       23.907       13.139       15.079      571.521      172.629      227.366        0.154        0.049       45.962       13.144        0.082      339.820       13.416      862.502
09/06/2014  04:36:00      -49.968      -38.964        1.548       32.507       14.313       19.393     1056.687      204.873      376.099        0.283        0.082       63.364       21.713        0.117      339.831       13.435      862.516
09/06/2014  04:37:00      -54.873      -36.425       -3.475       43.149       21.301       21.394     1861.860      453.748      457.721        0.356        0.139       65.862       18.328        0.077      339.956       13.645      862.521
09/06/2014  04:38:00      -69.939      -32.051       -1.357       33.253       34.469       19.110     1105.731     1188.133      365.203        0.429        0.133       76.933       19.983        0.067      339.938       13.615      862.511
09/06/2014  04:39:00      -74.935      -48.479        0.323       28.214       28.098       19.582      796.050      789.476      383.462        0.497        0.098       89.249       17.510        0.038      339.871       13.502      862.504
09/06/2014  04:40:00      -89.744      -54.519       -6.170       31.811       22.200       16.144     1011.917      492.828      260.632        0.641        0.088      105.007       10.160        0.009      339.829       13.430      862.503
09/06/2014  04:41:00     -112.253      -60.177       -5.363       23.541       27.880       18.948      554.170      777.297      359.020        0.897        0.085      127.365       14.726        0.013      339.813       13.403      862.505
09/06/2014  04:42:00     -103.563      -51.915       -6.505       21.040       18.182       11.801      442.678      330.573      139.254        0.719        0.046      115.847       10.529        0.008      339.756       13.308      862.508
09/06/2014  04:43:00      -98.669      -27.483       -8.235       15.628       15.551       10.951      244.230      241.841      119.919        0.558        0.030      102.425        7.776        0.006      339.756       13.307      862.504
09/06/2014  04:44:00     -104.855      -25.220      -10.361       21.841       15.974       16.292      477.021      255.158      265.415        0.637        0.050      107.845       12.741        0.014      339.722       13.250      862.500
09/06/2014  04:45:00     -110.781      -20.415      -11.375       25.227       16.468       15.921      636.389      271.187      253.484        0.699        0.058      112.646       14.257        0.016      339.707       13.224      862.491
09/06/2014  04:46:00     -102.742      -20.787       -1.859       39.295       19.576       18.146     1544.094      383.201      329.281        0.662        0.113      104.824       22.391        0.046      339.668       13.160      862.499
09/06/2014  04:47:00      -92.854      -44.761        1.613       31.183       26.355       16.103      972.383      694.606      259.317        0.628        0.096      103.080       17.515        0.029      339.663       13.151      862.506
09/06/2014  04:48:00      -80.310      -33.518        3.787       37.733       39.197       18.421     1423.791     1536.422      339.342        0.544        0.165       87.023       19.741        0.051      339.737       13.276      862.507
09/06/2014  04:49:00      -91.902      -35.170       -1.492       23.412       25.059       15.454      548.126      627.950      238.837        0.555        0.071       98.402       13.965        0.020      339.741       13.283      862.514
09/06/2014  04:50:00      -82.085      -37.503       -6.312       17.104       14.282       10.847      292.557      203.961      117.662        0.440        0.031       90.247        8.353        0.009      339.808       13.394      862.518
09/06/2014  04:51:00      -84.969      -39.320      -11.962       12.995       14.948       14.181      168.874      223.447      201.102        0.475        0.030       93.626        4.754        0.003      339.850       13.466      862.524
09/06/2014  04:52:00      -64.575      -40.002       -7.099       17.020       12.177       12.681      289.665      148.277      160.804        0.321        0.030       75.961        7.657        0.010      339.827       13.427      862.517
09/06/2014  04:53:00      -72.386      -45.878       -4.424       19.916       14.920       11.741      396.650      222.621      137.859        0.406        0.038       85.700        8.957        0.011      339.784       13.354      862.505
09/06/2014  04:54:00      -69.365      -46.930       -3.660       14.237       12.526       10.325      202.690      156.900      106.607        0.375        0.023       83.749        5.019        0.004      339.779       13.346      862.500
09/06/2014  04:55:00      -60.401      -35.026       -4.341       14.660       14.715       14.725      214.916      216.529      216.832        0.277        0.032       69.823        6.311        0.008      339.800       13.381      862.507
09/06/2014  04:56:00      -37.880      -37.310        3.996       31.974       18.530       12.222     1022.357      343.361      149.370        0.218        0.076       53.169       13.825        0.068      339.821       13.417      862.508
09/06/2014  04:57:00      -26.027      -30.988        0.411       22.416       19.306       14.195      502.476      372.719      201.507        0.136        0.054       40.468        8.507        0.044      339.852       13.472      862.503
09/06/2014  04:58:00      -69.984      -35.248        0.930       43.860       23.084       14.713     1923.667      532.866      216.477        0.441        0.134       78.359       15.116        0.037      339.771       13.333      862.497
09/06/2014  04:59:00     -121.251      -39.408      -14.389       14.895       13.298       10.145      221.862      176.844      102.923        0.848        0.025      127.494        6.210        0.002      339.801       13.384      862.480
09/06/2014  05:00:00     -121.046      -41.186       -6.033       20.103       13.625       10.117      404.118      185.648      102.358        0.854        0.035      127.861        8.768        0.005      339.812       13.402      862.475
09/06/2014  05:01:00      -88.145      -41.744       -5.826       19.175       15.977       10.780      367.699      255.273      116.208        0.514        0.037       97.530        4.335        0.002      339.795       13.375      862.480
09/06/2014  05:02:00      -62.683      -45.063       -7.697       15.509       12.700       10.117      240.540      161.297      102.363        0.326        0.025       77.200        4.741        0.004      339.861       13.484      862.481
09/06/2014  05:03:00      -61.434      -46.368       -9.230       13.609       12.225        9.598      185.197      149.452       92.125        0.322        0.021       76.968        7.399        0.009      339.870       13.501      862.482
09/06/2014  05:04:00      -44.255      -46.744        4.695       28.737       20.265       15.857      825.825      410.655      251.431        0.283        0.074       64.370       18.491        0.083      339.843       13.455      862.483
09/06/2014  05:05:00      -34.890      -30.747        5.236       27.280       18.357       15.351      744.188      336.969      235.661        0.175        0.066       46.504       13.259        0.081      339.754       13.303      862.491
09/06/2014  05:06:00      -19.176      -49.814        6.698       36.371       33.004       21.860     1322.842     1089.239      477.843        0.289        0.144       53.377       25.728        0.232      339.865       13.492      862.498
09/06/2014  05:07:00      -54.978      -59.144       -7.101       24.952       25.031       12.766      622.607      626.549      162.965        0.399        0.071       80.750       11.140        0.019      339.987       13.697      862.496
09/06/2014  05:08:00      -44.119       -6.860       -1.384       31.657       17.031       14.810     1002.190      290.062      219.327        0.175        0.076       44.649       11.673        0.068      339.930       13.601      862.473
09/06/2014  05:09:00      -78.307      -22.014      -14.532       19.124       13.960       10.641      365.725      194.871      113.237        0.375        0.034       81.342        4.602        0.003      339.949       13.633      862.456
09/06/2014  05:10:00      -27.840      -43.797        5.528       36.214       21.738       16.542     1311.449      472.546      273.625        0.239        0.103       51.896       14.373        0.077      339.770       13.331      862.455
09/06/2014  05:11:00      -34.039      -61.082        4.774       41.256       39.590       23.184     1702.062     1567.375      537.490        0.436        0.190       69.926       26.609        0.145      339.814       13.407      862.467
09/06/2014  05:12:00      -39.519      -27.159       13.257       48.508       30.750       24.151     2353.040      945.588      583.254        0.318        0.194       47.951       17.130        0.128      339.688       13.193      862.480
09/06/2014  05:13:00      -92.551      -69.813       -4.437       67.733       43.809       28.659     4587.748     1919.253      821.323        1.039        0.366      115.929       26.506        0.052      339.629       13.092      862.486
09/06/2014  05:14:00      -60.919      -54.616       -1.043       52.031       42.983       30.358     2707.227     1847.552      921.620        0.608        0.274       81.817       29.671        0.132      339.618       13.076      862.496
09/06/2014  05:15:00      -60.868      -51.012        7.947       47.567       32.856       32.680     2262.623     1079.489     1067.977        0.539        0.221       79.418       26.164        0.109      339.691       13.198      862.497
09/06/2014  05:16:00      -77.653      -46.468        0.775       51.332       46.288       28.471     2634.957     2142.616      810.581        0.689        0.279       90.495       28.049        0.096      339.660       13.145      862.502
09/06/2014  05:17:00     -106.024      -62.317       -8.818       53.302       42.771       28.524     2841.072     1829.335      813.609        1.034        0.274      122.982       30.415        0.061      339.611       13.063      862.501
09/06/2014  05:18:00     -111.844      -87.002        1.614       59.451       42.534       26.930     3534.365     1809.163      725.205        1.307        0.303      141.699       31.176        0.048      339.551       12.962      862.492
09/06/2014  05:19:00     -124.300     -103.330       -0.426       36.217       38.302       26.700     1311.701     1467.010      712.892        1.481        0.175      161.640       25.306        0.025      339.585       13.018      862.496
09/06/2014  05:20:00      -95.905      -87.145       -2.808       40.666       34.755       25.439     1653.751     1207.940      647.130        1.015        0.175      129.584       25.793        0.040      339.577       13.005      862.494
09/06/2014  05:21:00      -70.283      -74.315        5.189       47.666       35.635       26.385     2272.036     1269.880      696.144        0.736        0.212      102.286       27.045        0.070      339.588       13.025      862.497
09/06/2014  05:22:00     -109.941      -88.307       -2.943       34.954       28.757       18.954     1221.786      826.955      359.255        1.115        0.120      141.015       15.693        0.012      339.627       13.091      862.499
09/06/2014  05:23:00      -88.040      -58.981       -1.959       47.313       38.555       19.972     2238.565     1486.519      398.880        0.768        0.206      105.970       17.482        0.027      339.649       13.127      862.501
09/06/2014  05:24:00      -68.482      -49.012        7.796       58.058       43.169       22.073     3370.782     1863.543      487.203        0.644        0.286       84.214       27.873        0.110      339.588       13.024      862.491
09/06/2014  05:25:00      -94.637      -68.642        0.007       41.777       28.350       22.535     1745.278      803.695      507.849        0.836        0.153      116.910       21.268        0.033      339.614       13.068      862.496
09/06/2014  05:26:00      -60.008      -44.970        4.895       45.598       29.929       20.373     2079.152      895.743      415.063        0.452        0.169       74.988       21.998        0.086      339.594       13.034      862.518
09/06/2014  05:27:00      -62.786      -61.396        4.087       50.316       40.322       27.303     2531.717     1625.897      745.429        0.631        0.245       87.816       24.252        0.076      339.614       13.068      862.533
09/06/2014  05:28:00      -80.171      -59.704        3.990       45.436       29.862       22.961     2064.459      891.721      527.197        0.675        0.174       99.960       22.482        0.051      339.565       12.987      862.539
09/06/2014  05:29:00     -100.369      -61.728        6.017       38.997       25.186       22.868     1520.776      634.313      522.927        0.830        0.134      117.832       19.756        0.028      339.545       12.952      862.533
09/06/2014  05:30:00     -114.352      -59.718        0.929       32.840       23.642       18.270     1078.481      558.931      333.782        0.931        0.099      129.007       15.216        0.014      339.558       12.974      862.527
09/06/2014  05:31:00     -114.703      -44.780      -11.405       16.325       25.372       14.670      266.506      643.729      215.220        0.821        0.056      123.134        9.061        0.005      339.589       13.026      862.518
09/06/2014  05:32:00     -106.008      -10.794       -6.015       29.408       25.918       17.674      864.859      671.737      312.353        0.662        0.092      106.556       14.028        0.017      339.485       12.850      862.505
09/06/2014  05:33:00     -104.367      -14.860       -1.674       36.484       29.135       19.107     1331.095      848.873      365.074        0.683        0.127      105.420       21.018        0.040      339.423       12.745      862.500
09/06/2014  05:34:00     -113.227      -46.580       -5.628       22.921       23.148       16.795      525.368      535.813      282.081        0.818        0.067      122.434       10.118        0.007      339.517       12.904      862.508
09/06/2014  05:35:00      -58.168      -35.546       -0.258       39.053       22.901       17.524     1525.153      524.473      307.078        0.350        0.118       68.169       19.847        0.085      339.531       12.929      862.503
09/06/2014  05:36:00     -118.408      -45.487      -13.565       13.742       16.464       12.621      188.855      271.052      159.285        0.845        0.031      126.845        6.437        0.003      339.533       12.932      862.497
09/06/2014  05:37:00     -122.014      -34.695      -20.684       10.718       11.112       10.266      114.883      123.475      105.401        0.843        0.017      126.851        4.251        0.001      339.485       12.851      862.491
09/06/2014  05:38:00     -105.511      -33.464      -19.542        8.852       14.677        8.238       78.349      215.420       67.868        0.650        0.018      110.691        3.889        0.001      339.525       12.916      862.496
09/06/2014  05:39:00     -124.170      -31.001      -12.390       16.814       14.069       10.705      282.701      197.926      114.586        0.856        0.030      127.981        3.025        0.001      339.553       12.966      862.491
09/06/2014  05:40:00      -96.210      -27.457        1.555       25.010       25.640       17.137      625.503      657.405      293.666        0.579        0.079      100.051       16.034        0.026      339.522       12.911      862.475
09/06/2014  05:41:00      -57.541      -12.557        1.279       31.435       25.196       14.404      988.163      634.821      207.463        0.265        0.092       58.895       12.468        0.045      339.508       12.889      862.462
09/06/2014  05:42:00      -90.949      -29.986       -9.984       23.857       26.748       14.939      569.164      715.460      223.165        0.539        0.075       95.765       12.728        0.018      339.445       12.783      862.463
09/06/2014  05:43:00      -97.052      -41.544       -4.527       37.341       27.387       18.046     1394.314      750.034      325.662        0.682        0.124      105.570        6.570        0.004      339.402       12.709      862.466
09/06/2014  05:44:00      -96.826      -53.270       -3.274       33.485       28.462       17.109     1121.278      810.100      292.717        0.722        0.111      110.513        4.950        0.002      339.375       12.665      862.466
09/06/2014  05:45:00     -107.961      -33.338       -9.637       21.596       18.990       14.616      466.369      360.631      213.621        0.695        0.052      112.991        9.049        0.006      339.406       12.716      862.466
09/06/2014  05:46:00     -118.793      -31.646      -14.804       20.827       21.153       14.156      433.782      447.453      200.392        0.821        0.054      122.936        8.747        0.005      339.264       12.476      862.456
09/06/2014  05:47:00      -99.291      -44.056       -4.460       28.254       21.826       19.550      798.309      476.389      382.206        0.674        0.083      108.626       16.442        0.023      339.296       12.533      862.451
09/06/2014  05:48:00      -79.980      -49.709       -1.504       32.861       22.273       15.031     1079.837      496.105      225.930        0.534        0.090       94.169       11.999        0.016      339.318       12.568      862.459
09/06/2014  05:49:00      -81.146      -46.260       -3.886       35.426       19.645       14.266     1254.987      385.914      203.533        0.529        0.092       93.406        7.038        0.006      339.317       12.566      862.469
09/06/2014  05:50:00      -93.579      -49.931       -9.454       20.756       14.846        9.859      430.795      220.412       97.200        0.604        0.037      106.067        6.040        0.003      339.391       12.693      862.481
09/06/2014  05:51:00       -3.513      -14.625        6.334       19.579       14.760       11.838      383.347      217.861      140.150        0.050        0.037       15.041       10.376        0.476      339.363       12.645      862.493
09/06/2014  05:52:00       -1.144      -28.031        7.464       19.192       21.631       12.075      368.345      467.920      145.801        0.091        0.049       28.054       13.092        0.218      339.416       12.733      862.513
09/06/2014  05:53:00      -29.456      -49.736       -4.516       20.162       22.962       12.327      406.509      527.256      151.964        0.222        0.054       57.804        6.644        0.013      339.585       13.019      862.532
09/06/2014  05:54:00      -73.666      -41.707       -0.922       28.458       25.537       13.313      809.831      652.122      177.235        0.440        0.082       84.653       15.584        0.034      339.526       12.919      862.555
09/06/2014  05:55:00      -58.365      -51.832        8.203       35.159       26.637       19.082     1236.127      709.556      364.133        0.423        0.115       78.058       19.268        0.061      339.506       12.887      862.573
09/06/2014  05:56:00      -28.620      -24.716       -3.999       24.614       24.741       16.077      605.860      612.122      258.485        0.146        0.074       37.815       12.962        0.117      339.544       12.950      862.583
09/06/2014  05:57:00      -65.768      -48.015        1.769       41.610       29.992       22.269     1731.409      899.550      495.895        0.488        0.156       81.430       19.065        0.055      339.532       12.931      862.588
09/06/2014  05:58:00     -119.033     -110.823      -12.266       38.086       32.382       23.955     1450.541     1048.564      573.851        1.484        0.154      162.636       20.109        0.015      339.484       12.848      862.606
09/06/2014  05:59:00      -94.414     -106.142        0.568       44.360       40.496       25.238     1967.773     1639.951      636.976        1.221        0.212      142.057       19.205        0.018      339.387       12.684      862.637
09/06/2014  06:00:00      -85.034      -84.681       -1.531       50.348       47.595       22.772     2534.925     2265.260      518.579        0.986        0.266      120.007       19.822        0.027      339.333       12.594      862.651
09/06/2014  06:01:00      -85.454      -64.915       -0.340       39.444       46.586       25.310     1555.854     2170.301      640.617        0.794        0.218      107.314       29.380        0.075      339.330       12.588      862.651
09/06/2014  06:02:00      -88.261      -50.716        1.969       54.748       22.485       24.227     2997.318      505.594      586.971        0.723        0.204      101.795       29.636        0.085      339.397       12.701      862.633
09/06/2014  06:03:00      -88.926      -34.778      -13.229       21.852       21.546       14.369      477.499      464.230      206.460        0.522        0.057       95.484        8.866        0.009      339.441       12.779      862.614
09/06/2014  06:04:00      -63.637      -40.878       -2.119       23.961       21.815       16.775      574.151      475.890      281.399        0.353        0.067       75.635       12.519        0.027      339.550       12.961      862.606
09/06/2014  06:05:00      -29.101      -18.943        1.503       30.283       26.083       16.896      917.057      680.331      285.460        0.155        0.094       34.723       14.087        0.165      339.517       12.904      862.600
09/06/2014  06:06:00      -64.154      -53.317       -4.330       26.044       28.829       16.724      678.298      831.105      279.683        0.438        0.089       83.417       13.930        0.028      339.439       12.773      862.614
09/06/2014  06:07:00      -76.907      -56.868       -1.278       41.975       21.629       18.469     1761.876      467.801      341.096        0.586        0.129       95.648       18.472        0.037      339.346       12.615      862.644
09/06/2014  06:08:00      -90.993      -51.994        4.000       43.794       28.417       25.568     1917.940      807.527      653.707        0.719        0.169      104.800       22.687        0.047      339.194       12.360      862.675
09/06/2014  06:09:00     -100.469      -68.394       -1.330       50.571       37.213       28.817     2557.459     1384.773      830.447        0.977        0.239      121.539       27.417        0.051      339.224       12.410      862.692
09/06/2014  06:10:00     -129.319      -46.944        2.306       45.353       25.211       22.558     2056.858      635.609      508.859        1.107        0.160      137.576       21.579        0.025      339.343       12.612      862.692
09/06/2014  06:11:00      -91.820      -42.475       -4.557       24.784       20.697       19.758      614.245      428.374      390.375        0.584        0.072      101.168       14.964        0.022      339.360       12.640      862.684
09/06/2014  06:12:00      -67.356      -46.077       -3.074       38.124       13.779       14.346     1453.472      189.862      205.818        0.426        0.092       81.609       18.678        0.052      339.436       12.768      862.670
09/06/2014  06:13:00      -93.646      -47.778      -11.216       10.767       19.425       12.701      115.933      377.326      161.315        0.592        0.033      105.130        8.148        0.006      339.447       12.788      862.655
09/06/2014  06:14:00      -67.005      -46.005       -7.875       31.967       16.354       14.655     1021.904      267.447      214.757        0.409        0.075       81.278       16.788        0.043      339.434       12.765      862.644
09/06/2014  06:15:00      -24.726      -39.848        7.998       31.735       17.781       13.082     1007.110      316.178      171.138        0.188        0.075       46.896       16.247        0.120      339.399       12.707      862.643
09/06/2014  06:16:00       -3.350      -24.435        7.877       36.328       14.028       14.843     1319.759      196.791      220.308        0.120        0.087       24.664       18.980        0.592      339.388       12.687      862.646
09/06/2014  06:17:00      -21.431      -29.573        3.337       25.834       17.408       17.380      667.396      303.027      302.078        0.131        0.064       36.522       13.126        0.129      339.373       12.664      862.655
09/06/2014  06:18:00      -28.694      -37.221        3.523       24.471       17.911       17.420      598.850      320.799      303.451        0.172        0.061       46.997       14.794        0.099      339.378       12.669      862.665
09/06/2014  06:19:00      -72.265      -38.216      -10.334        9.915       11.144        7.611       98.316      124.193       57.921        0.353        0.014       81.748        4.563        0.003      339.332       12.594      862.671
09/06/2014  06:20:00      -54.241      -31.375       -0.938       28.306       16.801       12.181      801.250      282.273      148.367        0.258        0.062       62.662        7.742        0.015      339.371       12.658      862.678
09/06/2014  06:21:00      -76.601      -52.304        2.717       32.589       25.124       18.548     1062.062      631.225      344.022        0.532        0.102       92.755       13.101        0.020      339.337       12.602      862.688
09/06/2014  06:22:00      -94.673      -63.142       -4.901       19.085       21.218       16.105      364.249      450.211      259.372        0.702        0.054      113.798       10.530        0.009      339.298       12.535      862.694
09/06/2014  06:23:00     -120.904      -69.024       -9.804       22.638       19.752       13.560      512.457      390.151      183.864        1.028        0.054      139.220        8.476        0.004      339.296       12.531      862.697
09/06/2014  06:24:00      -97.958      -67.549       -8.230       21.695       17.140       14.374      470.692      293.772      206.621        0.760        0.049      118.990       10.528        0.008      339.236       12.430      862.705
09/06/2014  06:25:00      -72.614      -52.067        5.097       35.978       21.521       19.191     1294.426      463.138      368.287        0.507        0.106       89.352       15.754        0.031      339.186       12.346      862.705
09/06/2014  06:26:00      -72.080      -33.866        0.779       47.596       26.031       24.907     2265.366      677.636      620.349        0.495        0.178       79.639       28.051        0.124      339.203       12.377      862.712
09/06/2014  06:27:00     -111.774      -37.036      -10.195       15.670       15.858       12.638      245.564      251.475      159.730        0.731        0.033      117.750        8.959        0.006      339.215       12.396      862.711
09/06/2014  06:28:00      -84.976      -48.057       -2.958       34.981       20.743       18.541     1223.681      430.262      343.776        0.577        0.100       97.624        6.513        0.004      339.238       12.434      862.710
09/06/2014  06:29:00      -20.323      -27.753        7.665       28.106       22.271       16.725      789.953      495.978      279.716        0.140        0.078       34.398       12.724        0.137      339.163       12.308      862.705
09/06/2014  06:30:00      -71.083      -43.843       -1.734       30.662       18.069       15.613      940.128      326.497      243.761        0.424        0.076       83.516       16.756        0.040      339.208       12.383      862.714
09/06/2014  06:31:00      -69.240      -49.883       -5.122       26.635       15.753       12.432      709.401      248.158      154.549        0.421        0.056       85.338       12.546        0.022      339.162       12.306      862.724
09/06/2014  06:32:00      -38.698      -40.779       10.892       37.360       20.258       20.414     1395.776      410.382      416.723        0.275        0.111       56.218       23.074        0.168      339.225       12.413      862.740
09/06/2014  06:33:00      -64.644      -67.949        8.553       43.094       35.124       27.390     1857.090     1233.699      750.231        0.635        0.192       93.786       27.340        0.085      339.217       12.398      862.773
09/06/2014  06:34:00     -106.097      -71.099        3.305       47.294       42.143       31.131     2236.747     1776.024      969.152        1.065        0.249      127.717       24.975        0.038      339.255       12.463      862.795
09/06/2014  06:35:00      -82.951      -24.447       14.525       50.900       36.653       32.664     2590.790     1343.452     1066.956        0.634        0.250       86.478       21.454        0.062      339.214       12.393      862.787
09/06/2014  06:36:00     -172.295      -87.258      -15.241       60.532       50.371       22.975     3664.070     2537.267      527.858        2.213        0.336      193.131       23.692        0.015      339.223       12.407      862.751
09/06/2014  06:37:00     -134.551      -23.556      -11.082       37.828       30.745       20.198     1430.939      945.263      407.961        1.078        0.139      136.598       17.855        0.017      339.226       12.415      862.715
09/06/2014  06:38:00      -90.832      -54.342       -3.379       47.150       34.322       23.349     2223.097     1177.976      545.184        0.758        0.197      105.847       26.615        0.063      339.346       12.616      862.709
09/06/2014  06:39:00      -56.140      -49.700        6.026       48.999       30.902       23.836     2400.946      954.913      568.137        0.479        0.196       74.979       27.661        0.136      339.256       12.463      862.754
09/06/2014  06:40:00      -85.271     -116.586       -0.114       66.769       57.568       37.666     4458.162     3314.090     1418.740        1.503        0.460      144.442       39.120        0.073      339.259       12.469      862.810
09/06/2014  06:41:00     -103.431     -157.356       -8.186       60.997       74.318       32.200     3720.657     5523.179     1036.854        2.290        0.514      188.305       31.193        0.027      339.235       12.428      862.845
09/06/2014  06:42:00      -60.159      -78.101       15.214       77.124       58.513       42.376     5948.043     3423.765     1795.685        1.056        0.558       98.584       39.485        0.160      339.113       12.224      862.837
09/06/2014  06:43:00      -66.492      -45.653       11.914       69.067       40.010       28.657     4770.244     1600.788      821.252        0.692        0.360       80.657       35.533        0.194      339.032       12.087      862.802
09/06/2014  06:44:00      -78.533      -56.201        6.182       58.320       39.812       25.384     3401.177     1584.978      644.337        0.750        0.282       96.571       30.564        0.100      339.076       12.161      862.793
09/06/2014  06:45:00      -76.103      -91.463        4.165       47.185       46.986       30.141     2226.419     2207.685      908.501        0.976        0.267      118.984       30.908        0.067      339.113       12.221      862.829
09/06/2014  06:46:00     -111.587     -135.068       -4.029       57.827       48.774       31.112     3343.963     2378.926      967.945        1.870        0.335      175.200       35.649        0.041      339.118       12.231      862.895
09/06/2014  06:47:00      -99.388     -104.728      -10.041       82.152       59.128       44.024     6749.002     3496.157     1938.124        1.656        0.609      144.381       38.571        0.071      339.093       12.190      862.944
09/06/2014  06:48:00     -106.785      -88.091       -0.433       65.994       44.020       37.644     4355.155     1937.744     1417.091        1.344        0.385      138.431       31.576        0.052      339.027       12.079      862.945
09/06/2014  06:49:00     -128.178      -16.241        2.104       57.884       44.208       34.142     3350.575     1954.307     1165.655        1.158        0.324      129.203       27.548        0.045      338.947       11.944      862.898
09/06/2014  06:50:00     -137.061      -37.153      -17.847       30.230       40.817       22.981      913.868     1666.028      528.143        1.180        0.155      142.007       16.193        0.013      338.962       11.971      862.866
09/06/2014  06:51:00     -127.028      -38.977      -17.557       25.705       28.753       18.070      660.756      826.752      326.512        0.989        0.091      132.873       12.024        0.008      339.048       12.116      862.882
09/06/2014  06:52:00      -84.621      -58.784       -2.160       44.692       30.571       22.660     1997.349      934.576      513.476        0.703        0.172      103.035       23.627        0.053      339.063       12.139      862.920
09/06/2014  06:53:00      -88.792      -61.667        2.246       64.903       48.813       28.711     4212.437     2382.682      824.293        0.955        0.371      108.106       33.262        0.095      339.109       12.217      862.953
09/06/2014  06:54:00      -49.385      -47.525        5.977       40.399       37.846       26.686     1632.092     1432.306      712.151        0.425        0.189       68.539       24.164        0.124      339.084       12.176      862.971
09/06/2014  06:55:00     -112.182      -49.180       -3.290       26.832       26.757       14.831      719.983      715.933      219.966        0.833        0.083      122.488       12.227        0.010      339.104       12.207      862.962
09/06/2014  06:56:00      -36.213      -27.627        7.463       33.414       26.171       18.388     1116.477      684.929      338.126        0.213        0.107       45.548       20.094        0.195      339.162       12.306      862.957
09/06/2014  06:57:00      -40.079      -27.065        6.760       35.654       21.397       18.653     1271.230      457.853      347.950        0.223        0.104       48.362       18.000        0.139      339.158       12.301      862.964
09/06/2014  06:58:00      -65.534      -65.363        5.062       45.977       42.484       23.498     2113.865     1804.856      552.143        0.653        0.224       92.558       27.613        0.089      339.175       12.327      862.991
09/06/2014  06:59:00      -92.813      -79.831       -2.953       55.206       28.806       20.456     3047.699      829.780      418.438        0.965        0.215      122.423       22.902        0.035      339.109       12.216      863.009
09/06/2014  07:00:00      -71.882      -71.693        4.885       45.033       46.319       30.930     2028.000     2145.470      956.694        0.773        0.257      101.523       24.186        0.057      339.125       12.244      863.023
09/06/2014  07:01:00      -99.878      -90.571       -2.372       33.723       37.410       22.503     1137.259     1399.503      506.393        1.061        0.152      134.829       21.541        0.026      339.113       12.223      863.029
09/06/2014  07:02:00      -92.488      -57.630        3.141       43.879       29.135       25.927     1925.390      848.838      672.184        0.767        0.172      108.974       27.044        0.062      339.142       12.274      863.032
09/06/2014  07:03:00     -111.453      -37.735       -7.248       38.026       20.692       18.452     1445.957      428.141      340.459        0.806        0.111      117.668       20.824        0.031      339.131       12.253      863.023
09/06/2014  07:04:00      -59.908      -36.594       -0.704       42.743       18.854       15.041     1826.977      355.460      226.234        0.367        0.120       70.201       14.235        0.041      339.158       12.299      863.022
09/06/2014  07:05:00      -89.342      -43.878       -8.749       18.194       18.414       13.040      331.030      339.087      170.037        0.541        0.042       99.535        8.577        0.007      339.205       12.379      863.023
09/06/2014  07:06:00      -76.356      -29.343       -3.753       15.363       17.248       12.715      236.028      297.488      161.672        0.370        0.035       81.800        7.192        0.008      339.157       12.298      863.025
09/06/2014  07:07:00      -55.921      -28.862       -2.997       21.979       19.998       10.682      483.091      399.925      114.108        0.248        0.050       62.930        7.791        0.015      339.221       12.406      863.028
09/06/2014  07:08:00      -47.713      -24.055       -2.025       20.156       14.768        8.014      406.265      218.081       64.223        0.177        0.034       53.434        8.593        0.026      339.265       12.478      863.040
09/06/2014  07:09:00      -37.691      -29.433       -3.493       20.864       13.453        8.870      435.321      180.990       78.671        0.150        0.035       47.822        3.339        0.005      339.316       12.565      863.048
09/06/2014  07:10:00       -8.182       -6.602       -6.515       10.986        8.663        8.266      120.691       75.054       68.327        0.021        0.013       10.514        6.336        0.363      339.404       12.714      863.063
09/06/2014  07:11:00       -2.116      -22.289       -5.467       12.339       17.215       14.704      152.239      296.345      216.199        0.060        0.033       22.389        8.784        0.154      339.528       12.923      863.084
09/06/2014  07:12:00       31.526      -23.388        0.943       29.988       28.976       23.217      899.261      839.631      539.020        0.191        0.114       39.255       20.596        0.275      339.249       12.453      863.097
09/06/2014  07:13:00        5.065        0.810       18.982       23.798       34.598       21.892      566.326     1197.029      479.252        0.131        0.112        5.129       20.318       15.690      339.353       12.628      863.121
09/06/2014  07:14:00       28.924      -20.593       16.353       33.793       36.711       25.632     1141.966     1347.707      657.000        0.234        0.157       35.506       21.588        0.370      339.234       12.428      863.139
09/06/2014  07:15:00       18.208       -3.438       25.472       20.255       22.711       15.641      410.258      515.786      244.640        0.108        0.059       18.530       13.797        0.554      339.432       12.762      863.144
09/06/2014  07:16:00       14.418       -7.596       12.149       12.747       21.806       13.129      162.489      475.500      172.372        0.061        0.041       16.296       12.723        0.610      339.459       12.807      863.168
09/06/2014  07:17:00       13.017      -36.339       -3.166       25.651       27.485       20.047      657.955      755.406      401.897        0.166        0.091       38.600       15.276        0.157      339.274       12.494      863.192
09/06/2014  07:18:00       -5.120      -23.988        7.933       25.437       21.981       16.237      647.018      483.184      263.648        0.103        0.070       24.529       11.415        0.217      339.559       12.976      863.213
09/06/2014  07:19:00      -34.344        3.329        9.996       16.648       22.653       14.287      277.156      513.147      204.126        0.114        0.050       34.505       11.845        0.118      339.486       12.852      863.218
09/06/2014  07:20:00      -50.587      -19.916       -3.614       13.817       12.166        8.566      190.898      148.013       73.384        0.169        0.021       54.366        3.273        0.004      339.569       12.992      863.221
09/06/2014  07:21:00      -36.478      -29.925       -6.926       20.221       17.800       13.015      408.871      316.832      169.388        0.158        0.045       47.183       10.554        0.050      339.563       12.982      863.220
09/06/2014  07:22:00      -33.435      -24.512       -0.967       23.823       18.424       15.710      567.536      339.437      246.813        0.144        0.058       41.457       15.453        0.139      339.625       13.088      863.235
09/06/2014  07:23:00      -48.872      -62.400        0.349       53.668       51.032       18.459     2880.285     2604.250      340.724        0.605        0.291       79.261       29.923        0.143      339.696       13.208      863.244
09/06/2014  07:24:00      -43.977      -52.510        8.231       36.075       39.067       22.424     1301.387     1526.252      502.833        0.404        0.167       68.493       20.320        0.088      339.711       13.232      863.266
09/06/2014  07:25:00      -55.654      -66.657        4.602       35.698       37.552       24.159     1274.325     1410.150      583.659        0.541        0.163       86.837       18.606        0.046      339.758       13.312      863.281
09/06/2014  07:26:00      -36.168      -59.359        0.910       34.088       44.901       30.521     1162.006     2016.113      931.521        0.447        0.205       69.509       25.612        0.136      339.831       13.435      863.286
09/06/2014  07:27:00       -9.831      -40.018       20.898       25.567       47.239       19.077      653.696     2231.527      363.926        0.269        0.162       41.208       20.601        0.250      339.881       13.519      863.300
09/06/2014  07:28:00       -9.633      -23.901       14.025       14.445       30.574       18.629      208.665      934.760      347.058        0.118        0.075       25.769       10.992        0.182      339.983       13.689      863.299
09/06/2014  07:29:00        2.766      -27.860        6.142       18.592       23.580       14.821      345.676      556.037      219.660        0.097        0.056       27.997        8.836        0.100      340.002       13.722      863.310
09/06/2014  07:30:00      -30.162      -24.566        5.974       30.658       30.110       21.675      939.903      906.615      469.802        0.193        0.116       38.901       20.884        0.288      339.887       13.529      863.316
09/06/2014  07:31:00      -33.403      -38.323        3.996       31.549       36.501       15.518      995.323     1332.346      240.806        0.258        0.128       50.837        9.093        0.032      339.862       13.485      863.329
09/06/2014  07:32:00        3.981      -33.421        3.626       22.900       19.119       16.930      524.418      365.551      286.629        0.116        0.059       33.657       12.006        0.127      339.930       13.601      863.337
09/06/2014  07:33:00      -14.000        3.496       13.263       15.081       22.243       15.639      227.447      494.735      244.581        0.068        0.048       14.430       10.824        0.563      340.191       14.041      863.353
09/06/2014  07:34:00       -1.963       11.091       17.271       10.376        9.975        9.739      107.663       99.496       94.847        0.036        0.015       11.263        3.270        0.084      340.315       14.251      863.373
09/06/2014  07:35:00        0.429        6.195       15.259       17.815       15.668       18.679      317.372      245.478      348.908        0.059        0.046        6.210       13.901        5.011      340.149       13.971      863.388
09/06/2014  07:36:00       -6.116       -9.765        3.633       22.836       17.096       27.517      521.463      292.273      757.163        0.086        0.079       11.522       16.994        2.175      340.040       13.787      863.407
09/06/2014  07:37:00        0.270      -38.107       15.336       32.564       32.099       22.730     1060.402     1030.333      516.643        0.215        0.130       38.108       16.676        0.191      339.968       13.665      863.423
09/06/2014  07:38:00        2.655        7.710        3.839       24.904       26.058       23.970      620.187      679.011      574.584        0.098        0.094        8.154       21.332        6.844      340.029       13.768      863.430
09/06/2014  07:39:00      -37.035      -26.730       -1.313       19.145       31.735       14.755      366.517     1007.081      217.707        0.184        0.080       45.674       10.609        0.054      340.092       13.874      863.455
09/06/2014  07:40:00      -23.307        4.278        8.234       17.427        7.976       11.272      303.687       63.623      127.051        0.056        0.025       23.697        9.214        0.151      340.310       14.242      863.475
09/06/2014  07:41:00      -14.211       -5.348       -3.440       26.404       18.485       22.358      697.188      341.679      499.875        0.089        0.077       15.184       10.013        0.435      340.206       14.066      863.492
09/06/2014  07:42:00      -25.982       -8.348        7.679       20.597       14.767       14.631      424.227      218.053      214.068        0.083        0.043       27.290        9.813        0.129      340.368       14.340      863.498
09/06/2014  07:43:00      -23.117      -15.611        5.509       34.594       16.983       13.895     1196.740      288.410      193.064        0.124        0.084       27.895       10.400        0.139      340.195       14.047      863.502
09/06/2014  07:44:00       -4.971        6.524       10.748       17.533        9.215       13.605      307.393       84.911      185.086        0.038        0.029        8.202        8.143        0.986      340.392       14.381      863.507
09/06/2014  07:45:00        2.568       14.752       -4.523       15.285       16.867       20.091      233.640      284.484      403.636        0.058        0.046       14.974       14.957        0.998      340.177       14.017      863.509
09/06/2014  07:46:00        4.893       -0.635       20.436       23.494       19.513       16.089      551.985      380.741      258.844        0.082        0.060        4.934        9.163        3.449      340.588       14.712      863.521
09/06/2014  07:47:00        4.637       -3.995       13.279       23.256       23.989       22.780      540.844      575.490      518.908        0.092        0.082        6.121       15.783        6.649      340.455       14.487      863.536
09/06/2014  07:48:00       10.745        1.066       28.381       21.768       38.965       20.664      473.829     1518.242      426.984        0.167        0.121       10.798       23.392        4.693      340.635       14.792      863.552
09/06/2014  07:49:00       -5.708       19.340       30.464       18.882       20.658       24.597      356.515      426.772      605.007        0.136        0.069       20.165       18.417        0.834      340.629       14.781      863.549
09/06/2014  07:50:00       13.587       29.743       49.093       24.115       19.471       13.248      581.548      379.102      175.504        0.231        0.057       32.699        8.059        0.061      340.445       14.471      863.536
09/06/2014  07:51:00       22.113       -8.982       11.197       37.611       28.522       24.726     1414.566      813.519      611.352        0.177        0.142       23.868       20.414        0.732      340.386       14.370      863.531
09/06/2014  07:52:00       26.147      -40.553       14.827       25.767       27.726       26.652      663.940      768.736      710.353        0.235        0.107       48.251       19.307        0.160      340.475       14.522      863.536
09/06/2014  07:53:00        8.169       -8.459       26.071       24.280       39.295       17.515      589.534     1544.104      306.766        0.163        0.122       11.760       10.278        0.764      340.749       14.985      863.538
09/06/2014  07:54:00      -11.146       27.901       33.667       18.530       27.813       21.534      343.367      773.568      463.714        0.181        0.079       30.045       12.561        0.175      340.440       14.461      863.537
09/06/2014  07:55:00       -1.796        6.958       28.624       13.702       27.255       21.037      187.744      742.859      442.538        0.112        0.069        7.187       12.296        2.927      340.815       15.097      863.532
09/06/2014  07:56:00       -5.513        8.825       29.957       19.886       23.571       21.996      395.466      555.592      483.826        0.122        0.072       10.405       21.892        4.427      341.045       15.485      863.528
09/06/2014  07:57:00       31.431      -16.643       12.570       21.941       21.018       25.894      481.399      441.747      670.517        0.151        0.080       35.566       16.360        0.212      340.707       14.913      863.538
09/06/2014  07:58:00        1.545        7.630       19.964       17.508       15.951       13.002      306.535      254.437      169.055        0.059        0.037        7.785        9.947        1.633      340.917       15.269      863.544
09/06/2014  07:59:00       -0.745       10.496       22.155       11.195       17.604       16.131      125.333      309.902      260.217        0.065        0.035       10.523        7.861        0.558      341.071       15.530      863.549
09/06/2014  08:00:00       -0.591       11.321        5.084       10.356       12.176       16.658      107.245      148.267      277.486        0.034        0.027       11.337        4.656        0.169      340.727       14.949      863.537
09/06/2014  08:01:00      -52.181      -30.550        5.932       25.275       25.211       13.884      638.849      635.571      192.775        0.258        0.073       60.467        9.835        0.026      340.545       14.638      863.526
09/06/2014  08:02:00       -7.694      -33.548        4.108       19.644       15.947       11.672      385.904      254.309      136.225        0.099        0.039       34.419        9.976        0.084      340.602       14.735      863.521
09/06/2014  08:03:00      -10.435      -33.469       -0.017       16.879       22.708       11.036      284.888      515.648      121.789        0.108        0.046       35.058        9.546        0.074      340.648       14.813      863.522
09/06/2014  08:04:00      -42.674      -21.442       -3.977       13.810        7.245        6.798      190.716       52.490       46.219        0.129        0.014       47.758        4.302        0.008      340.627       14.778      863.519
09/06/2014  08:05:00      -17.302      -11.937        1.820        9.306       10.771       11.193       86.609      116.025      125.283        0.039        0.016       21.020        5.020        0.057      340.803       15.076      863.524
09/06/2014  08:06:00      -11.437       -3.144       14.404        9.553        8.270       14.489       91.257       68.396      209.945        0.036        0.018       11.861        8.693        0.537      341.275       15.874      863.522
09/06/2014  08:07:00        1.486       10.772       26.229       10.731       12.730        8.181      115.152      162.056       66.930        0.058        0.017       10.875        5.292        0.237      341.119       15.611      863.528
09/06/2014  08:08:00       26.216       10.235       -1.406       16.241       14.943       18.049      263.776      223.282      325.750        0.080        0.041       28.143        7.496        0.071      340.481       14.531      863.536
09/06/2014  08:09:00       26.250       12.929       -8.502       24.290       19.216       15.444      590.026      369.260      238.521        0.106        0.060       29.261        9.917        0.115      340.462       14.497      863.537
09/06/2014  08:10:00       37.030       -3.657       -3.394       20.493       20.252       17.705      419.956      410.146      313.460        0.127        0.057       37.211        8.033        0.047      340.425       14.436      863.515
09/06/2014  08:11:00      -14.047       -2.076       19.712       24.059       16.159       23.180      578.833      261.109      537.298        0.098        0.069       14.200       19.088        1.807      341.121       15.614      863.503
09/06/2014  08:12:00      -39.379      -14.450       -1.086       14.539       21.691       14.794      211.373      470.518      218.856        0.133        0.045       41.946       16.703        0.159      340.618       14.764      863.506
09/06/2014  08:13:00        3.732       -9.555       17.121       38.189       19.526       16.710     1458.401      381.262      279.216        0.126        0.106       10.258       12.005        1.370      341.011       15.429      863.513
09/06/2014  08:14:00       17.262       15.050       40.156       34.273       28.679       17.663     1174.665      822.474      311.994        0.222        0.115       22.902       19.859        0.752      341.084       15.551      863.517
09/06/2014  08:15:00       24.272       13.495       30.128       27.924       18.815       20.380      779.771      354.015      415.326        0.161        0.077       27.771       11.321        0.166      341.002       15.413      863.515
09/06/2014  08:16:00       21.477       15.027       37.401       28.038       24.763       17.090      786.156      613.213      292.060        0.189        0.085       26.212       10.828        0.171      341.320       15.951      863.513
09/06/2014  08:17:00       14.814       20.991       37.102       21.045       23.276       15.871      442.885      541.781      251.903        0.164        0.062       25.692        8.423        0.107      341.074       15.534      863.523
09/06/2014  08:18:00       26.748       -0.231       23.366       32.706       26.040       29.698     1069.660      678.085      881.968        0.195        0.131       26.749       24.470        0.837      341.034       15.468      863.530
09/06/2014  08:19:00       38.072      -11.494       10.481       30.205       18.385       21.939      912.354      338.020      481.309        0.171        0.087       39.769       11.413        0.082      340.642       14.804      863.526
09/06/2014  08:20:00       37.251        1.687        9.301       42.403       23.410       27.794     1798.044      548.007      772.487        0.230        0.156       37.289       20.047        0.289      340.916       15.267      863.516
09/06/2014  08:21:00       -2.129      -22.467        7.266       20.954       22.525       17.735      439.062      507.363      314.523        0.091        0.063       22.568       12.255        0.295      340.774       15.028      863.507
09/06/2014  08:22:00       -0.251       -2.844       21.358       12.607       10.623       11.501      158.933      112.846      132.263        0.043        0.020        2.855        4.467        2.448      341.616       16.452      863.501
09/06/2014  08:23:00       25.549      -10.193       -8.777       29.385       32.656       29.236      863.497     1066.385      854.729        0.181        0.139       27.507        9.127        0.110      340.965       15.351      863.508
09/06/2014  08:24:00      -31.756      -10.175       -6.155       12.540       13.407       11.769      157.247      179.761      138.510        0.081        0.024       33.346        8.875        0.071      341.034       15.467      863.516
09/06/2014  08:25:00       -4.161       -1.710       23.370       18.334       20.502       17.906      336.150      420.313      320.616        0.082        0.054        4.498       13.195        8.605      341.870       16.884      863.518
09/06/2014  08:26:00      -11.479      -17.845       19.090       11.546       16.351       18.434      133.307      267.346      339.819        0.078        0.037       21.218        7.627        0.129      341.655       16.521      863.520
09/06/2014  08:27:00       -0.209      -16.030        2.677       22.602       19.670       20.453      510.862      386.898      418.339        0.079        0.066       16.031       14.276        0.793      341.318       15.948      863.516
09/06/2014  08:28:00      -15.188       -7.439        8.418       27.250       17.092       16.038      742.564      292.127      257.229        0.082        0.065       16.912       14.865        0.773      341.479       16.221      863.513
09/06/2014  08:29:00      -25.913        6.275        9.054       27.394       25.855       23.072      750.444      668.464      532.335        0.137        0.098       26.662       19.914        0.558      341.415       16.112      863.504
09/06/2014  08:30:00      -25.289      -15.041        7.076       21.367       24.676       16.484      456.555      608.893      271.730        0.113        0.067       29.424       16.402        0.311      341.487       16.235      863.503
09/06/2014  08:31:00      -45.115       -2.642        1.390       10.959        7.735        6.073      120.106       59.836       36.878        0.113        0.011       45.192        6.123        0.018      341.267       15.863      863.501
09/06/2014  08:32:00      -45.514      -15.526        6.002       23.158       14.241       16.154      536.274      202.807      260.948        0.167        0.050       48.090       17.481        0.132      341.562       16.363      863.493
09/06/2014  08:33:00      -32.982       -9.990        5.603       22.643       20.166       16.838      512.708      406.683      283.521        0.121        0.060       34.462       16.459        0.228      341.628       16.473      863.484
09/06/2014  08:34:00      -29.905       -2.269        3.990       25.173       16.745       16.927      633.674      280.411      286.525        0.106        0.060       29.991       10.624        0.125      341.705       16.603      863.473
09/06/2014  08:35:00      -10.346        3.471        2.494       15.879       24.936       16.181      252.138      621.828      261.829        0.063        0.057       10.912       18.358        2.830      341.950       17.018      863.458
09/06/2014  08:36:00      -41.692       -4.454       -5.896       17.243       24.655        7.517      297.309      607.871       56.510        0.138        0.048       41.930        5.281        0.016      341.565       16.366      863.456
09/06/2014  08:37:00      -28.901      -12.690       -1.331       14.788       13.386       11.517      218.688      179.184      132.641        0.076        0.027       31.565        6.590        0.044      341.618       16.456      863.454
09/06/2014  08:38:00        5.238       -0.929       10.197       17.026       19.736       19.664      289.872      389.499      386.662        0.060        0.053        5.319       12.841        5.828      341.860       16.866      863.454
09/06/2014  08:39:00       11.581       -6.345       22.229       25.068       11.573       16.000      628.403      133.924      256.013        0.084        0.051       13.205       12.134        0.844      342.078       17.238      863.448
09/06/2014  08:40:00       -0.099       21.844       14.397       16.033       23.168       17.306      257.057      536.764      299.496        0.089        0.055       21.844       12.489        0.327      342.153       17.364      863.432
09/06/2014  08:41:00       11.079       15.724        2.300       11.484       11.385       13.421      131.871      129.614      180.125        0.041        0.022       19.235        8.610        0.200      341.922       16.970      863.426
09/06/2014  08:42:00       -2.170       19.324       -2.796       15.860       14.996       12.474      251.537      224.870      155.601        0.051        0.032       19.445        3.040        0.024      342.012       17.124      863.440
09/06/2014  08:43:00        7.472       16.739       10.156       19.717       15.659       28.029      388.761      245.216      785.600        0.093        0.071       18.331       19.205        1.098      341.937       16.999      863.449
09/06/2014  08:44:00      -10.756       -2.490       19.292       15.597       21.216       13.130      243.268      450.116      172.401        0.068        0.043       11.040       11.374        1.061      342.251       17.532      863.471
09/06/2014  08:45:00       -9.594       -2.760       21.513       13.845       25.354       19.960      191.694      642.830      398.410        0.090        0.062        9.983       19.022        3.631      342.029       17.154      863.477
09/06/2014  08:46:00      -41.884      -30.194       10.793       43.696       28.149       16.827     1909.340      792.388      283.144        0.288        0.149       51.633       13.850        0.072      341.924       16.976      863.479
09/06/2014  08:47:00      -11.309      -44.584       -0.248       28.065       28.072       23.871      787.663      788.039      569.828        0.213        0.107       45.996       16.896        0.135      341.891       16.919      863.486
09/06/2014  08:48:00      -26.555      -58.601       -1.804       38.422       29.504       15.687     1476.275      870.501      246.079        0.337        0.130       64.337       15.912        0.061      341.858       16.863      863.501
09/06/2014  08:49:00      -53.064      -58.763      -12.725       27.180       24.609       12.553      738.765      605.603      157.586        0.397        0.075       79.176        9.677        0.015      341.801       16.767      863.503
09/06/2014  08:50:00      -19.144       -4.139       -3.629       22.373       12.783       12.836      500.572      163.415      164.759        0.061        0.041       19.586       12.568        0.412      342.132       17.327      863.500
09/06/2014  08:51:00      -15.284       -2.936        1.882       19.881       13.221       16.781      395.269      174.791      281.589        0.055        0.043       15.563        9.273        0.355      342.216       17.470      863.500
09/06/2014  08:52:00       -2.582       24.231       44.407       38.600       23.723       22.278     1489.976      562.783      496.330        0.256        0.127       24.368       16.151        0.439      342.526       17.998      863.505
09/06/2014  08:53:00        5.933       14.544       42.515       30.952       26.838       24.012      958.001      720.278      576.593        0.215        0.113       15.708       20.350        1.678      342.605       18.133      863.514
09/06/2014  08:54:00       17.771       12.590       28.077       30.984       26.579       22.904      960.005      706.421      524.612        0.173        0.110       21.779       22.609        1.078      342.123       17.313      863.505
09/06/2014  08:55:00       37.606       32.134        7.399       27.340       24.319       24.696      747.500      591.417      609.889        0.222        0.097       49.465       19.890        0.162      341.862       16.871      863.484
09/06/2014  08:56:00       35.175       42.676        2.492       14.123       19.702       19.060      199.455      388.172      363.297        0.201        0.048       55.304        6.948        0.016      342.035       17.162      863.453
09/06/2014  08:57:00       11.866        7.177        1.150       15.020       13.163       16.968      225.598      173.266      287.912        0.044        0.034       13.867        5.116        0.136      342.300       17.613      863.447
09/06/2014  08:58:00       16.283       -2.511       19.696       22.657       15.824       21.864      513.325      250.404      478.025        0.095        0.062       16.476       14.588        0.784      342.753       18.383      863.461
09/06/2014  08:59:00        8.803       25.571       32.885       24.508       19.694       18.773      600.659      387.862      352.433        0.158        0.067       27.044       13.183        0.238      342.341       17.682      863.470
09/06/2014  09:00:00      -27.315      -14.300       12.954       39.854       33.822       23.448     1588.338     1143.940      549.812        0.220        0.164       30.832       28.922        0.880      342.594       18.113      863.480
09/06/2014  09:01:00     -100.237      -34.844       -4.589       18.983       23.109       13.113      360.338      534.007      171.942        0.617        0.053      106.121        7.425        0.005      342.219       17.476      863.477
09/06/2014  09:02:00      -60.607      -20.692       -8.810       16.196       16.010       11.354      262.306      256.309      128.911        0.241        0.032       64.042        7.231        0.013      342.322       17.650      863.471
09/06/2014  09:03:00      -62.292      -92.311       -0.816       30.844       27.381       18.563      951.360      749.699      344.572        0.722        0.102      111.362       15.469        0.019      342.306       17.624      863.467
09/06/2014  09:04:00      -37.674     -114.381        1.342       15.740       32.088       11.871      247.748     1029.625      140.928        0.796        0.071      120.426        7.883        0.004      342.315       17.638      863.481
09/06/2014  09:05:00      -93.790      -87.768       -5.129       50.326       42.585       27.195     2532.673     1813.510      739.588        1.081        0.254      128.452       25.138        0.038      342.459       17.883      863.491
09/06/2014  09:06:00     -107.943      -86.318        1.543       61.822       42.281       30.240     3822.019     1787.652      914.478        1.281        0.326      138.212       29.984        0.047      342.545       18.029      863.497
09/06/2014  09:07:00      -86.091      -75.941        1.245       52.101       37.977       23.177     2714.559     1442.277      537.193        0.894        0.235      114.798       24.578        0.046      342.534       18.011      863.491
09/06/2014  09:08:00      -51.728      -53.383        4.201       36.669       41.521       22.425     1344.632     1724.018      502.878        0.456        0.179       74.334       29.031        0.153      342.659       18.223      863.487
09/06/2014  09:09:00      -27.641      -23.785        5.963       33.630       24.010       20.244     1130.968      576.486      409.829        0.174        0.106       36.466       16.880        0.214      342.861       18.567      863.481
09/06/2014  09:10:00      -21.277      -43.853        4.858       32.423       23.163       20.033     1051.283      536.511      401.318        0.219        0.099       48.743       18.204        0.139      342.793       18.452      863.476
09/06/2014  09:11:00      -14.215      -45.076       14.790       23.924       19.593       10.412      572.380      383.870      108.409        0.176        0.053       47.264       11.055        0.055      342.717       18.322      863.463
09/06/2014  09:12:00       -6.145      -18.171        6.398       11.861       12.223       10.349      140.692      149.407      107.099        0.040        0.020       19.182        6.606        0.119      342.869       18.580      863.454
09/06/2014  09:13:00      -12.880       67.188       -0.109       25.077       44.430       19.871      628.857     1974.010      394.864        0.384        0.150       68.412        8.829        0.017      343.024       18.845      863.456
09/06/2014  09:14:00      -10.321       38.827        8.508       20.458       39.134       22.417      418.514     1531.496      502.502        0.207        0.123       40.176       25.892        0.415      343.338       19.381      863.478
09/06/2014  09:15:00      -12.851        0.055       25.203       22.978       15.143       16.393      527.999      229.317      268.718        0.091        0.051       12.851        9.256        0.519      343.568       19.771      863.500
09/06/2014  09:16:00      -19.905      -42.418       -6.190       20.926       43.964       20.565      437.912     1932.794      422.904        0.251        0.140       46.857       10.904        0.054      342.857       18.559      863.510
09/06/2014  09:17:00      -30.785      -16.961       -0.067       13.440       15.474        7.970      180.627      239.455       63.519        0.086        0.024       35.148        3.866        0.012      342.757       18.389      863.514
09/06/2014  09:18:00      -33.186      -15.429       -1.601       16.707       23.866       13.277      279.124      569.601      176.271        0.118        0.051       36.597       14.754        0.163      343.010       18.820      863.499
09/06/2014  09:19:00      -11.733        2.088        6.352       12.631       14.523       14.539      159.546      210.920      211.390        0.038        0.029       11.917        7.434        0.389      343.407       19.499      863.471
09/06/2014  09:20:00      -18.167        5.582       12.747       16.350       10.770       17.201      267.328      115.987      295.871        0.060        0.034       19.005       12.481        0.431      343.674       19.953      863.465
09/06/2014  09:21:00      -16.808      -20.316        7.135       18.161       17.966       12.299      329.836      322.761      151.261        0.077        0.040       26.368        5.829        0.049      343.171       19.095      863.473
09/06/2014  09:22:00       15.743        9.884       24.623       30.257       32.106       30.785      915.503     1030.773      947.705        0.192        0.145       18.589       24.204        1.695      343.533       19.711      863.484
09/06/2014  09:23:00        5.653        6.589       23.929       27.260       42.423       42.435      743.128     1799.721     1800.696        0.250        0.217        8.681       38.608       19.778      343.150       19.059      863.497
09/06/2014  09:24:00      -26.288       -8.434       -9.163       18.028       25.986       24.487      325.026      675.283      599.615        0.122        0.080       27.608       19.350        0.491      343.180       19.110      863.505
09/06/2014  09:25:00        6.993       -0.628       32.295       18.797       29.693       29.045      353.325      881.659      843.635        0.159        0.104        7.021       26.038       13.752      343.687       19.975      863.497
09/06/2014  09:26:00       34.423        8.924       -0.755       33.145       21.392       29.503     1098.569      457.615      870.401        0.185        0.121       35.561       23.978        0.455      342.803       18.470      863.503
09/06/2014  09:27:00       16.580       29.776       40.962       31.627       26.764       24.355     1000.299      716.288      593.155        0.257        0.115       34.081       20.822        0.373      343.224       19.185      863.511
09/06/2014  09:28:00      -12.878       19.685       37.232       20.073       23.100       24.704      402.912      533.598      610.274        0.174        0.077       23.524       17.022        0.524      343.703       20.002      863.523
09/06/2014  09:29:00       13.427       -9.809       -4.872       23.902       23.702       24.826      571.291      561.805      616.310        0.102        0.087       16.629       19.038        1.311      343.191       19.128      863.536
09/06/2014  09:30:00       16.895      -27.611        2.263       41.966       32.220       32.647     1761.172     1038.139     1065.857        0.246        0.193       32.370       30.784        0.904      343.092       18.961      863.533
09/06/2014  09:31:00       48.241      -66.006       -9.924       30.958       52.983       32.432      958.380     2807.218     1051.819        0.580        0.241       81.755       21.620        0.070      343.242       19.215      863.524
09/06/2014  09:32:00       44.996      -53.232       10.982       31.698       37.113       29.663     1004.762     1377.358      879.880        0.412        0.163       69.702       21.091        0.092      343.028       18.852      863.522
09/06/2014  09:33:00       47.563      -36.338        9.475       44.358       42.398       42.857     1967.600     1797.570     1836.702        0.464        0.280       59.856       31.985        0.286      343.185       19.119      863.531
09/06/2014  09:34:00       41.997       -5.314        5.573       33.123       18.088       22.347     1097.117      327.160      499.370        0.187        0.096       42.331       12.197        0.083      342.760       18.396      863.536
09/06/2014  09:35:00       27.563      -32.289       -0.921       46.163       35.631       33.559     2131.021     1269.534     1126.219        0.316        0.226       42.454       23.501        0.306      343.161       19.078      863.521
09/06/2014  09:36:00       22.823       19.790       36.852       30.862       26.191       20.821      952.450      685.981      433.498        0.217        0.104       30.208       14.456        0.229      343.698       19.994      863.503
09/06/2014  09:37:00        0.182       13.557       43.697       22.345       26.177       17.747      499.289      685.246      314.964        0.180        0.075       13.558       14.441        1.134      344.091       20.665      863.485
09/06/2014  09:38:00        9.536      -31.426       10.786       22.238       37.760       24.189      494.525     1425.834      585.107        0.185        0.125       32.841       21.258        0.419      343.242       19.216      863.471
09/06/2014  09:39:00       36.663      -63.309       10.427       30.821       33.957       26.534      949.907     1153.108      704.079        0.413        0.140       73.159       16.274        0.049      342.800       18.464      863.479
09/06/2014  09:40:00       46.315      -31.786       12.300       36.529       36.813       29.927     1334.362     1355.230      895.628        0.345        0.179       56.174       23.872        0.181      343.065       18.914      863.489
09/06/2014  09:41:00       23.698      -24.498       12.010       17.480       27.009       21.525      305.549      729.485      463.309        0.140        0.075       34.084       17.735        0.271      343.580       19.793      863.507
09/06/2014  09:42:00       56.441       21.492       29.169       36.633       26.003       26.758     1341.960      676.166      715.977        0.362        0.137       60.395       21.682        0.129      343.449       19.569      863.509
09/06/2014  09:43:00       49.106       25.936       -1.730       15.949       18.508       23.144      254.383      342.544      535.640        0.211        0.057       55.535        3.024        0.003      343.040       18.872      863.511
09/06/2014  09:44:00       50.406       29.067       -5.138       19.549       30.958       32.734      382.170      958.407     1071.495        0.291        0.121       58.187       23.068        0.157      342.932       18.688      863.511
09/06/2014  09:45:00       72.508       39.797        7.025       24.308       22.375       25.756      590.896      500.641      663.397        0.432        0.088       82.711       11.670        0.020      343.307       19.326      863.505
09/06/2014  09:46:00       74.541       38.384        6.334       19.564       19.415       27.877      382.764      376.929      777.128        0.430        0.077       83.843        9.716        0.013      343.562       19.762      863.500
09/06/2014  09:47:00       43.509       42.438       -6.179       39.810       25.759       25.551     1584.809      663.528      652.871        0.332        0.145       60.778       18.873        0.096      343.583       19.796      863.502
09/06/2014  09:48:00       11.420        6.579       32.750       27.863       47.566       30.205      776.349     2262.556      912.317        0.260        0.198       13.180       30.552        5.374      344.153       20.768      863.497
09/06/2014  09:49:00       26.444      -34.262       28.299       30.691       58.486       33.827      941.966     3420.589     1144.287        0.409        0.275       43.280       36.574        0.714      343.665       19.939      863.502
09/06/2014  09:50:00       48.123       42.535       26.308       31.980       23.305       22.736     1022.697      543.140      516.927        0.345        0.104       64.226       11.788        0.034      344.161       20.785      863.502
09/06/2014  09:51:00       48.326       22.208       17.239       30.665       43.672       26.361      940.342     1907.282      694.904        0.333        0.177       53.185       12.486        0.055      343.785       20.140      863.494
09/06/2014  09:52:00       39.598        9.070       18.475       37.772       40.701       39.037     1426.721     1656.564     1523.858        0.330        0.230       40.623       36.015        0.786      343.680       19.962      863.489
09/06/2014  09:53:00       24.702      -19.243       19.429       36.583       38.254       31.523     1338.332     1463.362      993.725        0.258        0.190       31.312       20.938        0.447      344.045       20.587      863.467
09/06/2014  09:54:00       20.218      -31.084       15.585       39.476       41.135       36.682     1558.350     1692.080     1345.550        0.311        0.230       37.081       22.438        0.366      343.841       20.238      863.458
09/06/2014  09:55:00       30.294      -32.058       18.758       28.182       33.016       34.837      794.240     1090.036     1213.637        0.270        0.155       44.107       17.074        0.150      343.927       20.383      863.437
09/06/2014  09:56:00       76.790      -30.254       -4.651       33.932       41.085       35.369     1151.347     1687.941     1250.965        0.546        0.205       82.535       23.176        0.079      343.385       19.459      863.439
09/06/2014  09:57:00       73.371       -8.980       10.916       40.239       33.862       25.027     1619.147     1146.663      626.348        0.449        0.170       73.919       19.849        0.072      343.784       20.141      863.429
09/06/2014  09:58:00        5.082       21.644       43.869       23.672       40.489       23.091      560.383     1639.331      533.195        0.258        0.137       22.233       13.885        0.390      344.544       21.439      863.427
09/06/2014  09:59:00       10.712       40.221       47.648       36.129       35.421       28.739     1305.299     1254.652      825.917        0.369        0.169       41.623       22.403        0.290      344.552       21.452      863.425
09/06/2014  10:00:00       82.278       50.936       19.276       46.225       26.254       30.414     2136.749      689.249      924.996        0.674        0.188       96.768       13.538        0.020      344.244       20.925      863.423
09/06/2014  10:01:00       62.522       65.425       30.790       45.077       38.425       41.395     2031.944     1476.467     1713.537        0.718        0.261       90.495       30.549        0.114      344.348       21.104      863.424
09/06/2014  10:02:00      138.399       90.665        6.761       34.215       27.386       24.318     1170.672      749.967      591.359        1.497        0.126      165.452       15.442        0.009      344.112       20.700      863.415
09/06/2014  10:03:00       84.560       65.452       29.029       46.203       39.804       48.501     2134.755     1584.373     2352.388        0.917        0.304      106.932       41.301        0.149      344.056       20.604      863.418
09/06/2014  10:04:00       94.606       90.089       66.453       51.130       35.790       47.026     2614.242     1280.929     2211.463        1.379        0.305      130.638       31.335        0.058      343.727       20.043      863.414
09/06/2014  10:05:00      112.015       66.533       10.663       40.205       30.170       30.772     1616.413      910.234      946.910        1.028        0.174      130.284        9.494        0.005      343.852       20.257      863.409
09/06/2014  10:06:00       64.357       57.613       12.214       33.749       32.720       34.850     1138.964     1070.605     1214.515        0.552        0.171       86.378       19.453        0.051      344.242       20.922      863.400
09/06/2014  10:07:00       70.628       78.501       46.919       32.088       31.972       26.873     1029.660     1022.235      722.157        0.806        0.139      105.597       21.113        0.040      344.094       20.669      863.390
09/06/2014  10:08:00      130.335       66.919       27.035       40.615       28.197       27.933     1649.596      795.061      780.258        1.271        0.161      146.511       10.748        0.005      343.975       20.467      863.385
09/06/2014  10:09:00       18.129       37.517       38.415       32.325       37.149       22.015     1044.894     1380.061      484.677        0.306        0.145       41.667       11.065        0.071      344.464       21.302      863.382
09/06/2014  10:10:00       33.898       17.911       14.193       27.167       49.071       32.772      738.034     2407.971     1074.026        0.294        0.211       38.339       24.391        0.405      344.280       20.987      863.374
09/06/2014  10:11:00       22.650       19.257       56.451       40.751       67.693       39.114     1660.604     4582.397     1529.887        0.592        0.389       29.730       45.769        2.370      344.713       21.727      863.381
09/06/2014  10:12:00       43.611        1.593       59.530       41.890       54.429       33.294     1754.744     2962.472     1108.470        0.564        0.291       43.640       23.305        0.285      344.406       21.202      863.384
09/06/2014  10:13:00       92.748      -38.155       24.921       58.881       66.140       46.104     3466.914     4374.484     2125.581        1.032        0.498      100.290       44.620        0.198      344.400       21.193      863.370
09/06/2014  10:14:00       30.217       -4.667        4.706       48.776       71.754       42.022     2379.114     5148.595     1765.825        0.512        0.465       30.575       19.825        0.420      344.741       21.774      863.355
09/06/2014  10:15:00       43.268       37.730       15.189       60.937       46.613       32.587     3713.362     2172.803     1061.911        0.524        0.347       57.408       15.973        0.077      344.980       22.185      863.345
09/06/2014  10:16:00       29.625       19.937        4.872       46.559       75.833       39.541     2167.724     5750.714     1563.525        0.539        0.474       35.709       30.451        0.727      344.899       22.045      863.351
09/06/2014  10:17:00      133.497       62.947       22.062       81.038       49.798       45.992     6567.188     2479.805     2115.268        1.671        0.558      147.593       25.234        0.029      344.606       21.542      863.351
09/06/2014  10:18:00       31.965       66.285       65.128       49.069       51.052       41.653     2407.791     2606.263     1734.986        0.820        0.337       73.590       38.820        0.278      344.586       21.510      863.355
09/06/2014  10:19:00       52.799      -39.875       15.959       39.265       37.464       37.805     1541.731     1403.555     1429.197        0.450        0.219       66.165       24.964        0.142      344.506       21.373      863.347
09/06/2014  10:20:00       66.188       15.652       33.275       39.120       27.890       37.739     1530.364      777.859     1424.233        0.473        0.187       68.013       19.681        0.084      344.401       21.194      863.352
09/06/2014  10:21:00       46.820       39.643       43.151       52.904       77.859       41.867     2798.802     6061.969     1752.839        0.812        0.531       61.349       47.785        0.607      344.728       21.754      863.344
09/06/2014  10:22:00       49.958       70.584        8.197       52.997       38.146       34.117     2808.710     1455.093     1163.943        0.649        0.271       86.475       23.378        0.073      345.027       22.265      863.328
09/06/2014  10:23:00      118.065       73.543       19.899       33.528       30.650       25.165     1124.099      939.447      633.260        1.122        0.135      139.097       13.260        0.009      344.867       21.991      863.313
09/06/2014  10:24:00       45.620       -2.590       34.285       52.856       65.576       45.955     2793.714     4300.227     2111.875        0.623        0.460       45.694       44.352        0.942      344.975       22.175      863.310
09/06/2014  10:25:00       30.016      -21.494       44.016       47.558       49.186       34.132     2261.733     2419.255     1165.007        0.457        0.292       36.918       35.653        0.933      345.535       23.135      863.292
09/06/2014  10:26:00       34.748       -3.766       38.383       49.850       62.921       37.808     2484.989     3959.044     1429.434        0.528        0.394       34.951       37.810        1.170      345.229       22.611      863.295
09/06/2014  10:27:00       57.828       26.921       31.766       54.615       28.255       25.645     2982.765      798.327      657.691        0.476        0.222       63.787       20.161        0.100      345.029       22.268      863.291
09/06/2014  10:28:00       94.548       41.448        7.623       47.820       36.272       34.476     2286.783     1315.624     1188.566        0.775        0.240      103.234       24.120        0.055      344.763       21.812      863.285
09/06/2014  10:29:00       15.600        6.641       29.326       20.622       16.141       17.852      425.257      260.546      318.705        0.108        0.050       16.955        9.050        0.285      345.667       23.360      863.268
09/06/2014  10:30:00        6.050       14.230       53.129       33.469       36.466       20.197     1120.163     1329.784      407.921        0.296        0.143       15.463       15.193        0.965      345.327       22.778      863.264
09/06/2014  10:31:00       46.701       24.546       14.227       30.762       36.502       26.699      946.305     1332.409      712.824        0.299        0.150       52.759       23.560        0.199      345.073       22.343      863.254
09/06/2014  10:32:00       32.587      -37.953       -0.709       26.483       27.433       33.502      701.340      752.561     1122.362        0.254        0.129       50.024       16.379        0.107      344.989       22.199      863.248
09/06/2014  10:33:00       24.753        3.053       24.582       24.889       30.972       27.905      619.439      959.257      778.692        0.179        0.118       24.941       21.791        0.763      345.467       23.019      863.236
09/06/2014  10:34:00       58.785       34.887       26.882       43.490       39.255       34.732     1891.376     1540.993     1206.339        0.502        0.232       68.358       19.679        0.083      345.169       22.508      863.231
09/06/2014  10:35:00       58.113       58.999       21.166       65.470       51.096       33.671     4286.295     2610.759     1133.746        0.767        0.402       82.813       23.690        0.082      345.445       22.982      863.224
09/06/2014  10:36:00       20.818       47.758        2.756       22.172       33.094       23.415      491.602     1095.191      548.285        0.243        0.107       52.098       19.257        0.137      345.629       23.296      863.219
09/06/2014  10:37:00       11.181       28.372       61.230       47.125       33.995       35.536     2220.753     1155.684     1262.796        0.466        0.232       30.496       34.566        1.285      345.798       23.587      863.220
09/06/2014  10:38:00       35.281       13.068       28.179       29.283       32.451       34.858      857.482     1053.088     1215.074        0.267        0.156       37.623       27.685        0.541      345.147       22.470      863.221
09/06/2014  10:39:00       12.812       26.460       20.390       24.261       27.994       24.348      588.608      783.674      592.821        0.162        0.098       29.398       16.808        0.327      345.231       22.613      863.214
09/06/2014  10:40:00       33.601        2.606       17.584       33.975       22.295       29.759     1154.317      497.081      885.585        0.199        0.127       33.702       19.009        0.318      345.710       23.433      863.205
09/06/2014  10:41:00       61.468      -12.357       15.808       42.506       27.344       32.221     1806.734      747.669     1038.188        0.389        0.180       62.698       13.367        0.045      345.168       22.507      863.197
09/06/2014  10:42:00      110.126       69.542       45.381       42.465       29.621       36.646     1803.256      877.409     1342.953        1.152        0.201      130.245       17.085        0.017      345.455       22.997      863.175
09/06/2014  10:43:00       95.098       40.324       23.122       58.168       54.383       28.457     3383.460     2957.522      809.829        0.918        0.358      103.294       28.354        0.075      345.492       23.061      863.177
09/06/2014  10:44:00       58.425        9.346       19.105       59.837       57.350       33.692     3580.426     3289.025     1135.161        0.593        0.400       59.167       25.418        0.185      345.641       23.316      863.155
09/06/2014  10:45:00       52.992       30.103       22.115       73.079       44.110       31.821     5340.494     1945.677     1012.551        0.625        0.415       60.945       29.374        0.232      345.959       23.862      863.148
09/06/2014  10:46:00       80.403       87.611       18.550       50.416       36.311       42.450     2541.727     1318.524     1801.972        1.007        0.283      118.913       23.178        0.038      345.884       23.735      863.142
09/06/2014  10:47:00       43.263       80.034      -11.311       26.176       36.017       32.007      685.190     1297.199     1024.465        0.571        0.150       90.979       21.403        0.055      345.750       23.503      863.136
09/06/2014  10:48:00       37.035       40.360       20.806       28.632       26.328       27.016      819.792      693.172      729.838        0.284        0.112       54.777        8.759        0.026      346.096       24.098      863.128
09/06/2014  10:49:00       32.644       50.082       18.742       42.906       32.144       32.922     1840.920     1033.217     1083.884        0.394        0.198       59.782       22.380        0.140      346.202       24.282      863.130
09/06/2014  10:50:00      104.108       59.306       35.839       41.330       35.453       30.697     1708.140     1256.896      942.300        0.977        0.195      119.815       20.916        0.030      345.803       23.595      863.120
09/06/2014  10:51:00       69.386       50.290       10.341       38.936       42.107       27.108     1516.023     1773.020      734.821        0.574        0.201       85.694       16.745        0.038      345.686       23.394      863.119
09/06/2014  10:52:00       -0.565        1.454       21.571       14.683       21.797       14.630      215.582      475.113      214.029        0.069        0.045        1.560        5.406       12.016      346.325       24.492      863.112
09/06/2014  10:53:00       22.640       22.825       21.540       50.468       37.761       23.347     2547.008     1425.865      545.084        0.301        0.226       32.149       16.495        0.263      346.413       24.644      863.107
09/06/2014  10:54:00       94.037       56.770       12.668       32.740       35.832       29.653     1071.899     1283.903      879.290        0.773        0.162      109.845       23.822        0.047      345.936       23.824      863.100
09/06/2014  10:55:00       69.043       76.084       39.921       49.605       42.100       45.778     2460.652     1772.422     2095.655        0.924        0.316      102.741       37.085        0.130      345.923       23.801      863.094
09/06/2014  10:56:00       85.825       77.798       49.767       47.378       34.109       36.399     2244.645     1163.447     1324.883        1.031        0.237      115.838       25.025        0.047      345.688       23.398      863.089
09/06/2014  10:57:00       50.995       61.959       30.994       46.162       28.076       40.298     2130.910      788.242     1623.965        0.597        0.227       80.246       34.074        0.180      346.107       24.118      863.070
09/06/2014  10:58:00       19.757      117.577      109.882       50.213       42.478       37.168     2521.329     1804.383     1381.451        1.600        0.285      119.225       31.648        0.070      345.613       23.269      863.055
09/06/2014  10:59:00       52.583       60.176       32.299       45.643       32.158       49.621     2083.262     1034.163     2462.218        0.650        0.279       79.914       17.252        0.047      345.590       23.230      863.054
09/06/2014  11:00:00       46.176      -31.799       -3.363       26.051       36.003       31.096      678.663     1296.220      966.971        0.305        0.147       56.067       24.135        0.185      345.354       22.825      863.038
09/06/2014  11:01:00       83.392       39.237       19.729       41.400       59.698       38.066     1713.985     3563.893     1449.054        0.780        0.336       92.162       25.295        0.075      345.697       23.414      863.031
09/06/2014  11:02:00       43.827       63.797       29.452       38.970       34.804       50.610     1518.646     1211.318     2561.377        0.607        0.265       77.400       31.506        0.166      346.382       24.590      863.021
09/06/2014  11:03:00       50.127       54.986        8.628       32.387       26.085       34.335     1048.913      680.407     1178.921        0.426        0.145       74.405        8.160        0.012      346.104       24.111      863.007
09/06/2014  11:04:00      104.891       88.747       13.032       42.751       30.521       33.634     1827.683      931.516     1131.214        1.147        0.195      137.397       23.109        0.028      345.950       23.846      862.996
09/06/2014  11:05:00       39.868       36.704       16.501       39.120       26.141       25.326     1530.343      683.347      641.404        0.303        0.143       54.191       12.860        0.056      346.588       24.943      862.982
09/06/2014  11:06:00       31.735       28.853       31.118       27.670       36.434       32.030      765.611     1327.453     1025.914        0.296        0.156       42.890       20.300        0.224      346.472       24.745      862.984
09/06/2014  11:07:00       34.205       17.237       40.554       30.512       44.663       33.321      930.965     1994.779     1110.264        0.357        0.202       38.303       34.335        0.804      346.077       24.065      862.964
09/06/2014  11:08:00       26.035       28.693       59.565       32.455       63.010       39.551     1053.332     3970.227     1564.255        0.582        0.329       38.744       35.823        0.855      346.477       24.752      862.962
09/06/2014  11:09:00       14.888      -20.701       22.402       39.389       56.457       32.621     1551.476     3187.409     1064.128        0.348        0.290       25.498       30.862        1.465      346.518       24.824      862.949
09/06/2014  11:10:00       22.384     -114.801        0.097       60.871       73.842       43.931     3705.264     5452.705     1929.955        1.238        0.554      116.963       48.102        0.169      346.429       24.670      862.938
09/06/2014  11:11:00       49.118      -30.742       13.016       63.845       96.153       53.061     4076.169     9245.428     2815.505        0.983        0.807       57.945       71.043        1.503      346.338       24.515      862.938
09/06/2014  11:12:00      -13.014       33.838       64.452       18.682       37.680       23.216      349.008     1419.781      538.964        0.389        0.115       36.254       22.426        0.383      346.770       25.257      862.931
09/06/2014  11:13:00      123.121       -1.303       50.316       80.330      104.145       64.773     6452.848    10846.220     4195.606        1.959        1.075      123.128       72.406        0.346      346.401       24.621      862.924
09/06/2014  11:14:00      101.191       47.897       38.582       72.703       65.477       45.474     5285.793     4287.243     2067.918        1.283        0.582      111.955       35.677        0.102      346.436       24.683      862.904
09/06/2014  11:15:00       74.353     -119.265        7.458       72.331       98.995       52.071     5231.795     9799.989     2711.438        1.877        0.887      140.544       55.076        0.154      346.527       24.837      862.900
09/06/2014  11:16:00       43.781       64.015       76.576       56.933       54.624       35.117     3241.345     2983.763     1233.236        0.967        0.373       77.554       28.582        0.136      347.050       25.739      862.896
09/06/2014  11:17:00       60.593       73.812       99.399       63.198       80.404       58.105     3994.020     6464.774     3376.212        1.642        0.692       95.498       62.961        0.435      346.515       24.818      862.884
09/06/2014  11:18:00      119.049      102.762       40.002       59.691       36.239       50.076     3562.969     1313.269     2507.572        1.686        0.369      157.267       27.292        0.030      346.164       24.214      862.879
09/06/2014  11:19:00       79.104       58.042        3.198       55.186       34.339       41.462     3045.492     1179.159     1719.093        0.779        0.297       98.113       23.908        0.059      346.372       24.572      862.867
09/06/2014  11:20:00      143.270      123.506       44.328       64.685       42.723       47.549     4184.179     1825.239     2260.924        2.301        0.414      189.156       21.900        0.013      346.437       24.681      862.849
09/06/2014  11:21:00       51.691       94.692       96.099       62.242       49.403       37.801     3874.128     2440.621     1428.926        1.431        0.387      107.882       22.630        0.044      347.079       25.789      862.849
09/06/2014  11:22:00       53.060       34.787       52.284       50.880       50.330       47.581     2588.809     2533.127     2263.972        0.707        0.369       63.447       36.826        0.337      346.863       25.418      862.848
09/06/2014  11:23:00        9.973       27.787       43.647       36.240       45.754       48.570     1313.354     2093.428     2359.022        0.427        0.288       29.522       38.049        1.661      347.077       25.786      862.841
09/06/2014  11:24:00       59.732       60.532       69.181       72.879       56.052       73.099     5311.366     3141.874     5343.534        1.291        0.690       85.041       59.300        0.486      346.756       25.232      862.826
09/06/2014  11:25:00      148.605      105.551       61.806       35.980       33.358       43.595     1294.560     1112.746     1900.526        2.068        0.215      182.276       29.836        0.027      346.337       24.511      862.830
09/06/2014  11:26:00       71.362       53.641       13.398       47.480       38.741       28.487     2254.336     1500.882      811.526        0.636        0.228       89.274       20.672        0.054      346.610       24.981      862.827
09/06/2014  11:27:00       92.390       76.297       12.374       41.486       31.835       33.990     1721.122     1013.463     1155.314        0.920        0.194      119.821       15.119        0.016      346.491       24.777      862.818
09/06/2014  11:28:00       56.184       47.007       43.430       54.419       29.174       30.254     2961.479      851.111      915.300        0.599        0.236       73.255       21.352        0.085      346.818       25.340      862.821
09/06/2014  11:29:00       33.950       26.514       29.471       44.576       27.224       24.062     1987.047      741.129      578.966        0.302        0.165       43.077       10.621        0.061      347.249       26.081      862.801
09/06/2014  11:30:00       89.862       71.054       37.077       35.100       26.688       32.068     1231.975      712.257     1028.362        0.874        0.149      114.560       22.238        0.038      346.711       25.156      862.791
09/06/2014  11:31:00       29.750       60.136       48.531       49.337       49.855       36.496     2434.109     2485.527     1331.946        0.655        0.313       67.092       26.227        0.153      347.281       26.136      862.772
09/06/2014  11:32:00       40.474       70.808      100.239       63.112       75.004       46.181     3983.157     5625.534     2132.689        1.422        0.587       81.560       52.205        0.410      347.071       25.776      862.764
09/06/2014  11:33:00       81.132     -100.731       12.550       55.437       63.676       47.532     3073.270     4054.584     2259.291        1.314        0.469      129.342       35.458        0.075      346.821       25.345      862.757
09/06/2014  11:34:00      119.576       72.058       13.231       66.800      103.113       38.552     4462.222    10632.262     1486.238        1.812        0.829      139.609       19.348        0.019      346.694       25.126      862.746
09/06/2014  11:35:00      124.209       85.452        7.088       29.036       35.648       27.790      843.067     1270.797      772.284        1.283        0.144      150.764       18.156        0.015      346.568       24.910      862.757
09/06/2014  11:36:00      105.034       72.786       20.977       45.365       29.702       35.474     2057.970      882.205     1258.404        1.048        0.210      127.789       11.591        0.008      346.804       25.314      862.746
09/06/2014  11:37:00      109.252       55.678       20.910       44.342       34.361       40.669     1966.183     1180.705     1653.952        1.014        0.240      122.621        9.102        0.006      346.866       25.422      862.736
09/06/2014  11:38:00       96.662       69.807       10.087       46.033       34.969       34.365     2119.063     1222.806     1180.924        0.942        0.226      119.233       20.070        0.028      346.861       25.413      862.722
09/06/2014  11:39:00      103.765       64.130       20.811       28.324       24.349       28.584      802.237      592.871      817.046        0.876        0.111      121.983       17.304        0.020      346.762       25.244      862.717
09/06/2014  11:40:00       89.997       63.352       13.575       19.921       18.210       18.271      396.865      331.621      333.819        0.668        0.053      110.059       12.334        0.013      346.459       24.726      862.702
09/06/2014  11:41:00        1.471      -26.196        7.985       51.975       96.658       34.899     2701.434     9342.791     1217.969        0.700        0.663       26.237       40.775        2.415      346.758       25.237      862.693
09/06/2014  11:42:00       65.453      -98.998       11.729       47.098       89.465       42.068     2218.248     8004.012     1769.733        1.311        0.600      118.679       48.790        0.169      346.783       25.277      862.683
09/06/2014  11:43:00       16.057       17.890       34.387       31.912       35.788       23.450     1018.352     1280.777      549.903        0.230        0.142       24.039       21.284        0.784      347.219       26.030      862.664
09/06/2014  11:44:00      -27.205      -32.491        5.577       30.884       27.126       23.241      953.841      735.827      540.139        0.203        0.111       42.377       17.206        0.165      347.190       25.979      862.656
09/06/2014  11:45:00       50.346      -86.539      -12.587       45.104       30.224       28.506     2034.401      913.503      812.572        0.697        0.188      100.118       21.159        0.045      347.065       25.765      862.644
09/06/2014  11:46:00       51.175      -93.081      -17.816       26.012       26.173       17.027      676.625      685.006      289.928        0.663        0.083      106.221        5.162        0.002      346.784       25.282      862.651
09/06/2014  11:47:00      -29.715      -32.041      -15.769       23.990       30.868       19.863      575.501      952.855      394.520        0.204        0.096       43.699       14.732        0.114      347.053       25.742      862.628
09/06/2014  11:48:00      -31.828       13.320       11.625       39.642       15.697       18.749     1571.452      246.389      351.539        0.175        0.108       34.503       23.823        0.477      347.583       26.659      862.612
09/06/2014  11:49:00      -12.748        8.463       21.678       23.909       13.645       20.890      571.644      186.189      436.373        0.095        0.060       15.302       19.912        1.693      348.035       27.439      862.593
09/06/2014  11:50:00      -36.780       28.837       12.733       56.672       24.758       28.392     3211.733      612.940      806.127        0.349        0.232       46.737       33.802        0.523      347.450       26.428      862.577
09/06/2014  11:51:00      -73.973       12.438       -3.125       33.929       29.968       21.130     1151.198      898.061      446.462        0.407        0.125       75.012       19.546        0.068      347.024       25.694      862.559
09/06/2014  11:52:00      -69.910        3.244       -4.536       43.456       30.771       18.674     1888.389      946.844      348.734        0.405        0.159       69.985       16.522        0.056      346.922       25.519      862.556
09/06/2014  11:53:00      -60.864       -9.012       -1.557       34.442       37.667       22.827     1186.272     1418.783      521.063        0.346        0.156       61.527       21.833        0.126      347.104       25.833      862.541
09/06/2014  11:54:00     -106.259       62.935      -12.810       42.670       38.059       25.451     1820.703     1448.467      647.732        0.967        0.196      123.498       15.373        0.015      346.714       25.161      862.545
09/06/2014  11:55:00      -38.496       26.140        0.228       42.211       31.830       28.614     1781.809     1013.148      818.735        0.289        0.181       46.532       29.514        0.402      347.088       25.804      862.527
09/06/2014  11:56:00       67.232       45.052        3.324       26.014       23.916       36.077      676.714      571.963     1301.566        0.456        0.128       80.931       18.920        0.055      347.202       26.001      862.519
09/06/2014  11:57:00       66.540       50.590        5.164       32.532       42.741       29.976     1058.344     1826.784      898.590        0.540        0.189       83.588       14.073        0.028      347.255       26.091      862.496
09/06/2014  11:58:00       58.001       29.004       35.211       63.805       65.886       48.569     4071.023     4340.932     2358.961        0.811        0.539       64.849       46.594        0.516      347.410       26.359      862.470
09/06/2014  11:59:00       56.260       22.601       44.671       69.119       49.458       33.883     4777.474     2446.116     1148.045        0.702        0.419       60.630       37.352        0.380      347.352       26.261      862.459
09/06/2014  12:00:00       22.080       23.855       32.796       50.011       50.399       29.646     2501.098     2540.061      878.910        0.403        0.296       32.505       19.069        0.344      347.379       26.305      862.447
09/06/2014  12:01:00       84.575       77.909       21.543       72.013       47.309       45.841     5185.847     2238.157     2101.391        1.160        0.476      114.991       35.346        0.094      347.409       26.358      862.447
09/06/2014  12:02:00       62.029       78.358       10.420       62.902       48.407       31.824     3956.645     2343.197     1012.767        0.870        0.366       99.938       26.894        0.072      347.236       26.060      862.431
09/06/2014  12:03:00       17.656       63.485       -6.358       32.405       46.598       25.006     1050.084     2171.330      625.303        0.411        0.192       65.895       19.487        0.087      347.380       26.308      862.407
09/06/2014  12:04:00      119.113       88.643       10.298       80.579       61.448       46.534     6493.047     3775.861     2165.379        1.729        0.622      148.477       26.674        0.032      347.293       26.155      862.397
09/06/2014  12:05:00      113.806       97.589       43.508       86.882       63.997       57.345     7548.458     4095.556     3288.397        1.965        0.747      149.918       53.386        0.127      347.485       26.487      862.380
09/06/2014  12:06:00      121.618       98.328        0.320       49.850       50.094       41.280     2485.020     2509.398     1704.053        1.558        0.335      156.395       31.452        0.040      347.164       25.935      862.383
09/06/2014  12:07:00       86.947       58.175        1.387       27.292       30.979       26.982      744.868      959.702      728.032        0.669        0.122      104.614       13.309        0.016      347.172       25.948      862.381
09/06/2014  12:08:00      100.848       50.581        8.712       36.327       27.803       28.108     1319.632      772.981      790.032        0.784        0.144      112.822       11.967        0.011      346.920       25.514      862.384
09/06/2014  12:09:00        6.316       12.618        0.593       24.119       27.157       19.580      581.714      737.501      383.391        0.095        0.085       14.110       15.367        1.186      347.450       26.428      862.363
09/06/2014  12:10:00      -20.749       81.522       -7.348       37.568       74.582       23.415     1411.371     5562.440      548.240        0.732        0.376       84.121       24.312        0.084      347.432       26.396      862.356
09/06/2014  12:11:00      -29.803      107.147        1.857       25.630       63.414       28.695      656.878     4021.367      823.403        0.894        0.275      111.214       32.361        0.085      347.532       26.570      862.332
09/06/2014  12:12:00      -41.547      126.608       -1.739       33.226       57.942       31.754     1103.942     3357.248     1008.323        1.161        0.273      133.250       28.162        0.045      347.342       26.242      862.316
09/06/2014  12:13:00      -11.770       58.506      -14.171       27.020       43.079       24.806      730.081     1855.772      615.330        0.348        0.160       59.678       18.088        0.092      347.322       26.207      862.302
09/06/2014  12:14:00      -66.031       -0.678      -20.089       34.115       56.704       30.203     1163.818     3215.299      912.244        0.503        0.265       66.034       24.596        0.139      347.229       26.046      862.282
09/06/2014  12:15:00      -77.085      -11.033       -5.077       46.509       23.582       19.743     2163.093      556.102      389.804        0.460        0.155       77.871       17.101        0.048      347.305       26.179      862.267
09/06/2014  12:16:00      -41.604      -65.469        0.823       35.490       36.378       26.330     1259.534     1323.389      693.256        0.465        0.164       77.570       21.700        0.078      347.283       26.140      862.257
09/06/2014  12:17:00      -57.752      -43.518       -9.641       24.996       17.134       12.856      624.814      293.591      165.280        0.320        0.054       72.312       10.706        0.022      347.113       25.848      862.253
09/06/2014  12:18:00        6.667      -18.052      -14.227       10.958       16.582        8.232      120.088      274.957       67.761        0.052        0.023       19.244        5.466        0.081      347.450       26.428      862.233
09/06/2014  12:19:00       17.028       32.295       21.159       33.982       31.406       22.169     1154.766      986.367      491.469        0.221        0.132       36.509       15.283        0.175      347.984       27.350      862.224
09/06/2014  12:20:00       88.397       69.739       41.933       70.194       56.183       42.214     4927.135     3156.482     1782.043        1.215        0.493      112.594       34.431        0.094      347.741       26.930      862.201
09/06/2014  12:21:00       96.172       90.610       49.050       77.537       73.077       52.718     6012.022     5340.236     2779.141        1.700        0.707      132.133       38.419        0.085      347.776       26.989      862.197
09/06/2014  12:22:00      111.864       73.692       15.059       50.644       44.568       38.308     2564.765     1986.314     1467.491        1.209        0.301      133.955       19.096        0.020      347.586       26.663      862.197
09/06/2014  12:23:00       56.999       40.645       14.870       60.134       35.864       36.062     3616.050     1286.248     1300.439        0.566        0.310       70.007       36.273        0.268      347.358       26.268      862.190
09/06/2014  12:24:00      117.203       44.973       17.798       84.570       62.448       45.753     7152.038     3899.754     2093.312        1.461        0.657      125.535       19.195        0.023      347.498       26.510      862.170
09/06/2014  12:25:00      121.116       55.891       36.022       61.040       69.834       47.518     3725.856     4876.832     2257.950        1.497        0.543      133.390       25.777        0.037      347.352       26.259      862.161
09/06/2014  12:26:00      106.565      119.643       89.813       65.522       69.734       67.089     4293.166     4862.852     4500.965        2.369        0.683      160.220       55.501        0.120      347.502       26.514      862.141
09/06/2014  12:27:00      126.718       84.266       48.983       90.937       67.469       70.657     8269.585     4552.026     4992.413        2.168        0.891      152.178       59.532        0.153      347.580       26.651      862.141
09/06/2014  12:28:00       98.985       91.915       27.368       53.259       48.779       34.630     2836.479     2379.392     1199.207        1.270        0.321      135.079       26.946        0.040      347.561       26.619      862.142
09/06/2014  12:29:00       76.094       60.799        4.022       86.933       48.395       48.480     7557.382     2342.101     2350.264        1.087        0.612       97.400       14.071        0.021      347.859       27.135      862.139
09/06/2014  12:30:00      163.209      111.698        7.915       67.272       55.470       39.110     4525.571     3076.894     1529.628        2.415        0.457      197.772       15.779        0.006      347.477       26.473      862.129
09/06/2014  12:31:00      130.169       73.862       -4.111       59.266       50.730       35.244     3512.457     2573.565     1242.104        1.487        0.366      149.664       24.264        0.026      347.572       26.638      862.133
09/06/2014  12:32:00       37.286        8.598       18.716       50.153       64.435       39.313     2515.285     4151.849     1545.511        0.501        0.411       38.265       22.569        0.348      347.690       26.843      862.104
09/06/2014  12:33:00       72.496      125.888        8.441       85.884       71.865       39.506     7376.020     5164.545     1560.722        1.764        0.705      145.270       39.561        0.074      347.580       26.651      862.098
09/06/2014  12:34:00        1.128      146.391      -17.220       58.193       67.807       32.981     3386.401     4597.742     1087.730        1.540        0.454      146.396       25.426        0.030      347.848       27.116      862.082
09/06/2014  12:35:00       32.014       99.269        2.317       62.828       81.230       49.749     3947.318     6598.347     2474.953        1.195        0.651      104.304       49.288        0.223      347.893       27.192      862.080
09/06/2014  12:36:00       46.691      120.360       -6.328       54.255       74.661       52.433     2943.559     5574.325     2749.170        1.398        0.563      129.099       40.765        0.100      347.848       27.114      862.066
09/06/2014  12:37:00       77.778       59.729       -0.001       44.007       32.059       29.187     1936.621     1027.800      851.854        0.672        0.191       98.066       17.397        0.031      347.781       26.999      862.055
09/06/2014  12:38:00       50.160       33.084       24.659       41.020       53.875       46.146     1682.617     2902.472     2129.431        0.547        0.336       60.088       44.308        0.544      348.055       27.472      862.051
09/06/2014  12:39:00      105.041      -95.114       14.663       75.649      101.608       56.607     5722.840    10324.221     3204.351        1.977        0.963      141.705       70.476        0.247      347.829       27.081      862.039
09/06/2014  12:40:00      100.138      -67.184       23.968       93.428      109.427       63.323     8728.868    11974.344     4009.775        1.991        1.236      120.588       77.074        0.409      348.026       27.422      862.032
09/06/2014  12:41:00       92.462     -108.411        1.667       42.993       85.098       36.150     1848.374     7241.752     1306.830        1.535        0.520      142.485       47.028        0.109      347.715       26.884      862.029
09/06/2014  12:42:00        0.456        3.769       33.688       27.126       28.058       19.487      735.806      787.230      379.738        0.153        0.095        3.797       15.629       16.944      348.571       28.363      862.013
09/06/2014  12:43:00      -11.215       33.056       27.634       26.938       31.638       26.010      725.668     1000.953      676.503        0.219        0.120       34.907       20.955        0.360      348.651       28.502      862.004
09/06/2014  12:44:00      -34.727       25.970       30.797       33.609       30.538       28.498     1129.541      932.567      812.154        0.285        0.144       43.363       25.740        0.352      348.479       28.205      861.988
09/06/2014  12:45:00       31.496       17.327       51.249       37.171       42.872       36.507     1381.703     1838.026     1332.757        0.423        0.228       35.948       28.885        0.646      348.423       28.108      861.996
09/06/2014  12:46:00        8.591       15.161       41.831       21.388       16.400       24.276      457.461      268.961      589.346        0.168        0.066       17.425       17.026        0.955      348.501       28.242      861.994
09/06/2014  12:47:00      -32.163      -11.804       14.323       33.010       25.380       20.028     1089.672      644.170      401.122        0.176        0.107       34.260       16.664        0.237      348.203       27.729      861.977
09/06/2014  12:48:00      -55.662      -11.143        7.063       27.682       19.387       17.253      766.279      375.842      297.675        0.236        0.072       56.766       12.595        0.049      347.977       27.338      861.973
09/06/2014  12:49:00      -58.941        8.741       -6.123       28.729       21.703       24.110      825.356      471.026      581.305        0.273        0.094       59.586       20.378        0.117      347.886       27.182      861.954
09/06/2014  12:50:00      -19.968       -4.451        6.575       33.664       29.727       24.728     1133.242      883.691      611.461        0.154        0.131       20.458       17.376        0.721      348.351       27.983      861.939
09/06/2014  12:51:00      -44.446      -40.722        0.563       29.098       38.192       27.737      846.671     1458.663      769.339        0.335        0.154       60.281       21.428        0.126      348.047       27.457      861.936
09/06/2014  12:52:00        5.644      -61.836       21.427       57.980       56.154       35.253     3361.667     3153.287     1242.752        0.603        0.388       62.093       34.492        0.309      348.161       27.656      861.921
09/06/2014  12:53:00       48.139      -47.345       19.100       40.906       65.549       45.809     1673.318     4296.643     2098.488        0.649        0.403       67.520       38.336        0.322      348.067       27.493      861.909
09/06/2014  12:54:00       63.235       39.373       59.440       39.411       54.472       36.518     1553.266     2967.235     1333.593        0.747        0.293       74.491       35.053        0.221      347.983       27.347      861.895
09/06/2014  12:55:00       86.906       70.572       28.978       24.634       35.994       26.067      606.835     1295.551      679.478        0.798        0.129      111.951       24.704        0.049      347.594       26.676      861.879
09/06/2014  12:56:00       29.593       21.096       23.824       29.456       43.557       28.975      867.662     1897.242      839.526        0.275        0.180       36.343       16.238        0.200      348.330       27.947      861.867
09/06/2014  12:57:00       30.062      -21.697       -0.903       23.414       29.711       29.876      548.213      882.732      892.580        0.185        0.116       37.074       18.249        0.242      348.029       27.427      861.855
09/06/2014  12:58:00       18.142      -14.426       18.712       30.982       38.122       28.281      959.858     1453.292      799.823        0.205        0.161       23.178       20.777        0.804      348.305       27.905      861.843
09/06/2014  12:59:00        8.155      -11.973       45.108       31.403       53.608       29.970      986.129     2873.825      898.209        0.350        0.238       14.486       18.499        1.631      348.787       28.738      861.821
09/06/2014  13:00:00       25.081        0.735       63.558       45.139       61.821       58.734     2037.492     3821.815     3449.644        0.699        0.465       25.092       44.379        3.128      348.511       28.261      861.800
09/06/2014  13:01:00       30.096       -6.758       43.143       65.013       69.993       70.929     4226.657     4898.969     5030.878        0.848        0.708       30.845       48.879        2.511      348.384       28.041      861.810
09/06/2014  13:02:00       76.188       59.408       11.816       31.751       40.439       53.891     1008.153     1635.344     2904.214        0.751        0.277       96.612       29.715        0.095      347.842       27.105      861.796
09/06/2014  13:03:00      -30.871      -36.948       -7.372       45.047       86.992       21.794     2029.213     7567.564      475.000        0.622        0.504       48.147       23.414        0.236      347.923       27.244      861.789
09/06/2014  13:04:00     -133.929      -73.620        5.276       84.372       53.292       37.363     7118.567     2840.003     1396.015        1.737        0.568      152.830       33.620        0.048      348.213       27.744      861.780
09/06/2014  13:05:00      -99.274      -71.006       10.193       63.229       60.936       30.579     3997.861     3713.160      935.074        1.182        0.432      122.054       33.440        0.075      348.270       27.844      861.775
09/06/2014  13:06:00      -12.919      -77.331        6.871       64.009       46.870       36.028     4097.159     2196.809     1298.042        0.689        0.380       78.403       24.940        0.101      348.385       28.043      861.787
09/06/2014  13:07:00      -49.417      -60.354        0.176       35.249       69.102       36.436     1242.522     4775.108     1327.606        0.671        0.367       78.004       28.756        0.136      348.316       27.924      861.771
09/06/2014  13:08:00      -27.317      -82.605      -21.558       43.281       38.834       22.342     1873.227     1508.062      499.162        0.596        0.194       87.004       13.474        0.024      347.901       27.204      861.767
09/06/2014  13:09:00      -46.924      -49.124       -4.162       49.074       43.757       22.640     2408.267     1914.681      512.572        0.473        0.242       67.934       32.203        0.225      348.138       27.616      861.756
09/06/2014  13:10:00      -88.579      -31.487      -12.946       20.134       31.546       21.470      405.373      995.178      460.978        0.543        0.093       94.009       18.103        0.037      348.065       27.490      861.726
09/06/2014  13:11:00      -18.222      -42.839       -0.689       19.680       25.884       13.572      387.306      669.999      184.199        0.170        0.062       46.554        6.528        0.020      347.979       27.340      861.718
09/06/2014  13:12:00      -33.773      -33.666       11.737       22.146       25.832       24.863      490.437      667.306      618.182        0.209        0.089       47.686       16.365        0.118      348.109       27.565      861.693
09/06/2014  13:13:00       14.150       27.079       30.263       31.817       30.220       21.361     1012.341      913.236      456.284        0.212        0.119       30.553       19.926        0.425      348.832       28.817      861.668
09/06/2014  13:14:00        5.919        4.744       11.022       26.014       46.050       26.710      676.717     2120.645      713.402        0.184        0.176        7.585       13.757        3.289      348.499       28.240      861.652
09/06/2014  13:15:00       62.494       26.902       37.931       39.200       43.531       46.742     1536.664     1894.926     2184.796        0.584        0.281       68.039       32.416        0.227      348.380       28.035      861.645
09/06/2014  13:16:00       28.248       19.903       45.187       45.945       40.705       37.892     2110.935     1656.863     1435.832        0.422        0.260       34.556       32.088        0.862      348.631       28.468      861.621
09/06/2014  13:17:00       21.428      -39.599       29.388       24.037       44.367       32.789      577.800     1968.397     1075.107        0.326        0.181       45.025       30.077        0.446      348.393       28.056      861.616
09/06/2014  13:18:00        5.548     -123.198      -16.866       62.938       94.281       43.248     3961.242     8888.875     1870.431        1.510        0.736      123.323       51.472        0.174      348.497       28.235      861.587
09/06/2014  13:19:00       80.614      -78.543       -6.093       60.930       59.675       42.623     3712.414     3561.152     1816.704        1.090        0.455      112.550       41.937        0.139      348.176       27.681      861.589
09/06/2014  13:20:00       42.928       -8.503       51.489       33.320       90.309       41.377     1110.234     8155.764     1712.090        0.777        0.549       43.762       35.635        0.663      348.329       27.947      861.575
09/06/2014  13:21:00       73.676       59.786        4.071       35.624       21.803       36.191     1269.095      475.358     1309.776        0.604        0.153       94.882       29.493        0.097      348.034       27.437      861.554
09/06/2014  13:22:00       56.232       76.303        0.498       26.475       30.221       43.044      700.901      913.315     1852.772        0.623        0.173       94.785       17.924        0.036      348.066       27.491      861.549
09/06/2014  13:23:00       49.487       45.970       20.796       27.981       36.933       31.152      782.959     1364.066      970.422        0.406        0.156       67.544       27.293        0.163      348.309       27.911      861.539
09/06/2014  13:24:00       22.711        7.140       21.862       40.113       39.216       30.313     1609.021     1537.864      918.888        0.255        0.203       23.807        8.622        0.131      348.537       28.305      861.551
09/06/2014  13:25:00       20.178      -39.168      -10.945       27.634       37.134       31.029      763.655     1378.969      962.794        0.258        0.155       44.060       13.793        0.098      348.503       28.246      861.530
09/06/2014  13:26:00        9.243       -9.952       22.062       28.827       38.270       30.633      831.003     1464.579      938.367        0.195        0.162       13.582       25.958        3.653      348.961       29.039      861.526
09/06/2014  13:27:00      -32.504      -27.944       11.406       45.894       53.265       26.709     2106.229     2837.180      713.363        0.381        0.283       42.864       25.582        0.356      348.678       28.549      861.525
09/06/2014  13:28:00      -63.298      -40.879       14.537       66.614       49.552       38.039     4437.433     2455.413     1446.999        0.711        0.417       75.350       39.488        0.275      348.635       28.476      861.499
09/06/2014  13:29:00     -130.582      -42.828       -3.025       60.712       55.231       31.523     3685.984     3050.515      993.671        1.331        0.387      137.426       33.404        0.059      348.433       28.126      861.475
09/06/2014  13:30:00      -66.736       37.250       -2.529       37.130       76.920       31.236     1378.625     5916.678      975.702        0.706        0.414       76.428       28.676        0.141      348.700       28.586      861.457
09/06/2014  13:31:00      -39.748       56.364        5.846       47.349       62.087       32.637     2241.919     3854.792     1065.179        0.598        0.358       68.970       23.836        0.119      348.637       28.478      861.450
09/06/2014  13:32:00        0.040      100.843       -2.023       38.179       47.532       39.024     1457.623     2259.247     1522.909        0.771        0.262      100.843       28.297        0.079      348.549       28.329      861.425
09/06/2014  13:33:00       22.437       75.210       22.644       38.129       67.671       30.912     1453.788     4579.343      955.552        0.683        0.349       78.486       35.978        0.210      348.727       28.635      861.413
09/06/2014  13:34:00      -26.948       50.776       -6.492       57.317       39.946       33.050     3285.199     1595.670     1092.286        0.466        0.299       57.484       35.005        0.371      348.632       28.470      861.401
09/06/2014  13:35:00       -6.679       32.458        2.081       41.571       37.483       25.961     1728.134     1404.991      673.960        0.245        0.190       33.138       26.497        0.639      349.058       29.208      861.386
09/06/2014  13:36:00       -8.017      -15.101        1.670       24.922       63.172       23.665      621.111     3990.690      560.012        0.273        0.259       17.097       13.548        0.628      349.171       29.403      861.375
09/06/2014  13:37:00       10.735      -24.537       30.844       35.928       56.064       41.574     1290.838     3143.176     1728.392        0.391        0.308       26.783       45.706        2.912      348.838       28.826      861.358
09/06/2014  13:38:00       17.159      -22.263       12.994       35.292       68.667       52.672     1245.546     4715.165     2774.330        0.485        0.437       28.108       53.301        3.596      348.881       28.901      861.348
09/06/2014  13:39:00      -16.270      -10.815       42.564       46.878       71.265       42.204     2197.533     5078.755     1781.202        0.562        0.453       19.537       44.824        5.264      349.125       29.324      861.337
09/06/2014  13:40:00       29.851      -24.059       31.687       53.467       61.096       36.954     2858.672     3732.718     1365.630        0.521        0.398       38.339       45.539        1.411      349.138       29.347      861.334
09/06/2014  13:41:00       32.351      -58.662       18.168       41.587       73.631       39.424     1729.513     5421.467     1554.291        0.676        0.435       66.991       45.307        0.457      348.895       28.926      861.336
09/06/2014  13:42:00       26.124       17.221       48.656       74.683       54.070       44.193     5577.506     2923.604     1953.064        0.690        0.523       31.289       45.081        2.076      349.143       29.354      861.331
09/06/2014  13:43:00       24.196      -50.659       17.789       37.551       83.901       36.559     1410.068     7039.394     1336.591        0.663        0.489       56.141       39.117        0.485      348.639       28.482      861.329
09/06/2014  13:44:00       23.330      -33.049       32.388       27.917       40.031       28.058      779.353     1602.452      787.251        0.293        0.158       40.454       24.135        0.356      348.861       28.867      861.319
09/06/2014  13:45:00       22.955       18.965       67.243       50.732       75.185       52.285     2573.708     5652.782     2733.679        0.818        0.548       29.776       49.786        2.796      349.180       29.419      861.316
09/06/2014  13:46:00       30.197      -15.711       49.960       45.430       70.793       51.343     2063.923     5011.694     2636.127        0.668        0.486       34.040       50.858        2.232      349.016       29.135      861.305
09/06/2014  13:47:00       21.659      -60.054       38.198       58.493       78.811       46.522     3421.418     6211.199     2164.299        0.866        0.590       63.840       48.636        0.580      349.074       29.237      861.273
09/06/2014  13:48:00       40.745       -7.523       48.287       74.407      149.707       69.578     5536.405    22412.244     4841.102        1.841        1.639       41.434       48.866        1.391      349.154       29.373      861.266
09/06/2014  13:49:00       72.695       11.955       59.655       89.069       60.621       49.703     7933.295     3674.916     2470.362        1.153        0.704       73.671       44.005        0.357      349.188       29.431      861.278
09/06/2014  13:50:00       91.927       66.496       86.771      124.530       75.140       84.478    15507.644     5646.040     7136.601        2.434        1.415      113.457       84.017        0.548      348.944       29.007      861.259
09/06/2014  13:51:00       95.394       86.934        5.951       65.020       48.472       47.173     4227.581     2349.575     2225.317        1.275        0.440      129.064       30.577        0.056      348.748       28.670      861.243
09/06/2014  13:52:00      -33.849      189.444      -23.140       33.594       64.130       31.494     1128.545     4112.670      991.866        2.190        0.312      192.444       24.894        0.017      348.462       28.172      861.210
09/06/2014  13:53:00        2.338       56.181        8.870       31.625       48.330       33.194     1000.165     2335.773     1101.861        0.384        0.222       56.230       31.701        0.318      349.171       29.403      861.199
09/06/2014  13:54:00       15.211       37.428       14.745       29.978       29.512       22.140      898.693      870.935      490.195        0.205        0.113       40.401       14.145        0.123      349.118       29.311      861.172
09/06/2014  13:55:00       -8.113       40.072       -0.806       23.637       44.176       23.024      558.727     1951.506      530.125        0.236        0.152       40.885       23.215        0.322      349.046       29.188      861.136
09/06/2014  13:56:00      -29.016        3.435      -23.238       25.406       22.679       12.379      645.445      514.315      153.252        0.135        0.066       29.218       11.536        0.156      348.859       28.863      861.128
09/06/2014  13:57:00      -49.648      -36.318      -12.075       58.412       50.646       20.818     3412.014     2565.045      433.382        0.517        0.321       61.514       17.362        0.080      348.892       28.918      861.129
09/06/2014  13:58:00     -184.245      -30.846      -12.988      100.890       74.613       37.772    10178.843     5567.088     1426.744        2.612        0.859      186.810       29.895        0.026      348.831       28.814      861.087
09/06/2014  13:59:00      -38.817     -101.884       -8.680       69.218       49.373       38.916     4791.089     2437.667     1514.439        1.035        0.437      109.028       16.824        0.024      349.001       29.108      861.066
09/06/2014  14:00:00        5.568     -131.630      -16.525      104.793      103.942       65.332    10981.535    10803.928     4268.225        2.184        1.303      131.747       59.797        0.206      348.948       29.014      861.060
09/06/2014  14:01:00       73.137     -154.963       23.110      100.656      129.433       90.823    10131.575    16753.011     8248.728        3.251        1.757      171.355       85.736        0.250      349.092       29.263      861.030
09/06/2014  14:02:00      152.482       75.639       72.217      101.936      119.284       84.690    10390.966    14228.586     7172.470        3.298        1.590      170.212       81.876        0.231      348.827       28.805      861.026
09/06/2014  14:03:00       30.623      -60.655       26.056       87.904       55.134       56.619     7727.042     3039.726     3205.686        0.963        0.699       67.947       34.689        0.261      349.293       29.615      861.001
09/06/2014  14:04:00       33.715       83.815      145.007       68.937      135.451       69.244     4752.316    18346.902     4794.680        2.854        1.395       90.341       85.132        0.888      349.455       29.893      861.006
09/06/2014  14:05:00      106.937     -147.520       -3.245      104.266       81.878       58.574    10871.480     6704.027     3430.932        2.710        1.050      182.202       51.412        0.080      348.843       28.832      861.043
09/06/2014  14:06:00       48.313     -151.055        2.128       57.565       78.784       49.009     3313.745     6206.860     2401.838        1.854        0.596      158.593       49.525        0.098      348.761       28.692      861.039
09/06/2014  14:07:00       50.339      -57.615        3.368       38.342       64.222       39.592     1470.126     4124.414     1567.491        0.651        0.358       76.508       44.589        0.340      348.884       28.907      861.026
09/06/2014  14:08:00       17.905       42.821       64.756       44.882       65.973       48.378     2014.373     4352.404     2340.432        0.753        0.435       46.414       45.455        0.959      348.827       28.808      861.002
09/06/2014  14:09:00       11.056       -2.838        4.800       25.659       23.143       23.298      658.366      535.596      542.810        0.094        0.087       11.414       13.260        1.350      349.057       29.205      861.015
09/06/2014  14:10:00      -38.105       -7.098       -3.333       49.502       35.866       25.739     2450.477     1286.386      662.521        0.296        0.220       38.760       19.118        0.243      349.251       29.541      861.004
09/06/2014  14:11:00      -73.545       22.851        1.693       33.442       24.177       26.520     1118.394      584.534      703.336        0.417        0.120       77.013       11.671        0.023      348.955       29.029      860.998
09/06/2014  14:12:00      -79.043       22.067        2.304       23.580       22.029       16.785      556.011      485.277      281.724        0.403        0.066       82.066       11.439        0.019      348.628       28.463      860.992
09/06/2014  14:13:00      -39.327      -23.084       16.533       45.745       33.497       25.222     2092.582     1122.024      636.139        0.310        0.193       45.601       28.797        0.399      349.295       29.619      860.980
09/06/2014  14:14:00     -106.161       -2.997       -7.172       20.916       26.605       17.072      437.491      707.825      291.457        0.638        0.072      106.203       11.154        0.011      348.812       28.781      860.961
09/06/2014  14:15:00      -96.207       38.665      -11.389       36.831       31.661       31.615     1356.502     1002.426      999.531        0.712        0.168      103.686       28.216        0.074      348.979       29.071      860.945
09/06/2014  14:16:00      -85.224       34.781       -5.415       46.855       37.651       33.955     2195.352     1417.565     1152.916        0.663        0.238       92.048       33.134        0.130      349.040       29.176      860.929
09/06/2014  14:17:00     -134.864       35.025      -18.366       51.671       33.792       29.391     2669.900     1141.916      863.810        1.221        0.234      139.338       22.782        0.027      348.714       28.611      860.896
09/06/2014  14:18:00      -86.937      -12.365       -1.279       47.080       41.333       27.130     2216.491     1708.405      736.056        0.619        0.233       87.812       24.837        0.080      349.274       29.582      860.864
09/06/2014  14:19:00       56.907       47.221       12.517       67.074       36.152       31.824     4498.962     1306.934     1012.761        0.622        0.341       73.947       24.700        0.112      349.066       29.222      860.877
09/06/2014  14:20:00      113.464       40.842       36.970       53.554       65.029       44.494     2868.007     4228.804     1979.717        1.249        0.454      120.591       32.671        0.073      348.934       28.992      860.874
09/06/2014  14:21:00       12.119      -19.523       10.782       41.205       31.708       16.889     1697.860     1005.401      285.225        0.182        0.149       22.978       16.898        0.541      349.029       29.159      860.864
09/06/2014  14:22:00       11.517       28.132       17.252       45.628       51.554       23.076     2081.876     2657.786      532.479        0.325        0.264       30.398       22.449        0.545      349.471       29.923      860.864
09/06/2014  14:23:00       42.928       90.864       10.898       77.279       75.747       53.305     5972.056     5737.621     2841.440        1.238        0.728      100.494       44.391        0.195      349.002       29.110      860.852
09/06/2014  14:24:00       60.241        5.854       -8.823       50.309      104.152       32.073     2531.024    10847.607     1028.686        0.907        0.720       60.525       45.528        0.566      348.689       28.568      860.844
09/06/2014  14:25:00        3.475       91.060      -12.314       28.732       69.494       25.783      825.500     4829.453      664.780        0.739        0.316       91.126       22.293        0.060      349.059       29.208      860.814
09/06/2014  14:26:00      -53.500       75.233      -18.293       43.190       48.667       30.796     1865.399     2368.434      948.399        0.702        0.259       92.316       28.483        0.095      349.059       29.210      860.796
09/06/2014  14:27:00      -27.021       -9.815       16.103       28.904       27.289       20.023      835.413      744.698      400.932        0.153        0.099       28.748        8.097        0.079      349.412       29.821      860.771
09/06/2014  14:28:00      -76.572        6.103       -4.058       62.672       78.742       35.191     3927.796     6200.254     1238.431        0.864        0.568       76.815       26.737        0.121      349.629       30.197      860.743
09/06/2014  14:29:00       27.334      -75.328        7.721       37.429       78.550       44.727     1400.963     6170.101     2000.533        0.802        0.479       80.134       34.415        0.184      349.411       29.819      860.746
09/06/2014  14:30:00       34.370     -138.428       23.468      101.813       88.041       73.526    10365.857     7751.188     5406.059        2.220        1.176      142.631       66.551        0.218      349.354       29.717      860.746
09/06/2014  14:31:00       86.660      -77.380       20.406       48.441       55.728       44.086     2346.570     3105.565     1943.616        1.065        0.370      116.180       36.073        0.096      349.234       29.513      860.752
09/06/2014  14:32:00       65.973     -115.855       36.872       67.637       92.297       54.122     4574.753     8518.721     2929.183        1.758        0.801      133.323       53.629        0.162      349.363       29.736      860.741
09/06/2014  14:33:00       94.872      -48.444       49.649       90.600      156.503       77.409     8208.342    24493.122     5992.225        2.625        1.935      106.525       90.680        0.725      349.453       29.891      860.704
09/06/2014  14:34:00      122.227       19.617      139.798      153.368      211.711      158.558    23521.824    44821.430    25140.713        6.416        4.674      123.791      178.797        2.086      349.250       29.538      860.646
09/06/2014  14:35:00      150.620      -96.924       63.221      130.289      186.658      103.905    16975.252    34841.045    10796.211        4.933        3.131      179.110      126.555        0.499      349.128       29.325      860.673
09/06/2014  14:36:00      206.582     -212.791      -26.513      108.830      127.033       82.051    11843.992    16137.393     6732.426        6.168        1.736      296.574       75.528        0.065      348.932       28.985      860.680
09/06/2014  14:37:00      179.510     -139.843       23.886      137.382      177.736      120.857    18873.795    31590.187    14606.337        5.870        3.254      227.552      144.884        0.405      349.062       29.212      860.634
09/06/2014  14:38:00      116.274      -13.491       92.015      117.980      209.282      116.301    13919.382    43798.755    13525.974        4.669        3.562      117.054      143.240        1.497      349.232       29.506      860.626
09/06/2014  14:39:00      117.723      -24.340       83.967      118.922      134.781       92.954    14142.418    18165.825     8640.415        3.122        2.047      120.213       92.583        0.593      349.196       29.442      860.643
09/06/2014  14:40:00      113.456      -86.136       40.886       75.390      148.338       72.621     5683.585    22004.160     5273.743        2.746        1.648      142.449       92.234        0.419      349.230       29.503      860.638
09/06/2014  14:41:00       53.532     -114.450        1.843       56.486      111.669       34.225     3190.661    12470.066     1171.376        1.640        0.842      126.350       50.817        0.162      349.115       29.304      860.636
09/06/2014  14:42:00       66.298     -120.958       -3.010       67.946       94.000       51.191     4616.600     8835.908     2620.513        1.755        0.804      137.936       50.402        0.134      349.099       29.276      860.611
09/06/2014  14:43:00       82.412     -115.016       -8.460       65.367      103.664       54.974     4272.801    10746.188     3022.107        1.906        0.902      141.493       55.786        0.155      349.006       29.115      860.588
09/06/2014  14:44:00       32.089      -72.649       -1.378       45.575       60.189       25.698     2077.061     3622.730      660.398        0.633        0.318       79.420       24.363        0.094      348.955       29.028      860.573
09/06/2014  14:45:00       -8.068      -36.781       12.856       48.933       53.090       35.943     2394.395     2818.596     1291.899        0.404        0.325       37.655       29.503        0.614      349.437       29.864      860.555
09/06/2014  14:46:00       25.256      -85.210       -5.662       58.043       52.980       37.778     3369.021     2806.851     1427.177        0.777        0.380       88.874       26.666        0.090      349.029       29.158      860.542
09/06/2014  14:47:00       20.357     -134.101       -6.874       63.406       52.204       40.438     4020.302     2725.232     1635.236        1.341        0.419      135.637       29.836        0.048      349.120       29.315      860.521
09/06/2014  14:48:00       62.712     -174.870      -14.380       74.427       95.887       59.582     5539.371     9194.247     3550.042        2.650        0.914      185.775       53.223        0.082      349.144       29.355      860.499
09/06/2014  14:49:00       56.333     -172.289       15.949       80.789      144.242       67.914     6526.868    20805.616     4612.249        3.252        1.597      181.265       75.486        0.173      349.237       29.516      860.474
09/06/2014  14:50:00       98.409     -133.839      -12.918       68.342       80.303       51.639     4670.660     6448.582     2666.630        2.077        0.689      166.124       45.106        0.074      348.977       29.065      860.488
09/06/2014  14:51:00       59.678     -166.528      -26.472       60.017       39.554       32.008     3602.083     1564.496     1024.490        1.909        0.310      176.899       23.499        0.018      348.825       28.803      860.482
09/06/2014  14:52:00      -59.153       -3.067      -13.917       69.667       41.820       25.935     4853.450     1748.885      672.602        0.549        0.364       59.233       22.817        0.148      349.022       29.146      860.452
09/06/2014  14:53:00       10.952        2.641       31.435       48.934       50.350       30.090     2394.532     2535.112      905.433        0.347        0.292       11.266       32.499        8.322      349.385       29.775      860.438
09/06/2014  14:54:00       -0.734      -53.348       14.094       39.064       44.082       34.692     1526.012     1943.188     1203.520        0.386        0.234       53.353       20.372        0.146      349.419       29.834      860.432
09/06/2014  14:55:00       25.114      -74.976        5.332       97.291       84.235       55.290     9465.550     7095.536     3057.018        1.295        0.981       79.070       44.993        0.324      349.449       29.885      860.411
09/06/2014  14:56:00       68.832     -183.932      -12.321       57.508       74.042       42.783     3307.117     5482.240     1830.396        2.467        0.531      196.389       44.435        0.051      348.880       28.897      860.411
09/06/2014  14:57:00      114.855     -168.120       -7.744       73.692      107.739       57.985     5430.471    11607.709     3362.207        3.095        1.020      203.607       75.969        0.139      349.063       29.213      860.398
09/06/2014  14:58:00       42.781      -98.295       -4.118       79.012       75.266       59.598     6242.891     5664.960     3551.872        1.348        0.773      107.202       53.416        0.248      349.408       29.813      860.400
09/06/2014  14:59:00       49.143     -181.888       -7.855      115.377      114.047       61.826    13311.811    13006.728     3822.515        3.285        1.507      188.410       54.905        0.085      349.238       29.515      860.390
09/06/2014  15:00:00      256.651     -221.476        2.847       73.812       96.598       74.441     5448.263     9331.112     5541.468        6.762        1.016      339.000       77.302        0.052      349.024       29.147      860.389
09/06/2014  15:01:00      120.936      -10.353       86.414      108.554      122.135       94.682    11783.920    14916.859     8964.745        2.893        1.783      121.378       84.006        0.479      349.338       29.690      860.390
09/06/2014  15:02:00       63.927        8.746       26.706       56.456       42.179       39.241     3187.300     1779.028     1539.844        0.569        0.325       64.522       20.382        0.100      349.163       29.390      860.405
09/06/2014  15:03:00       18.986       50.738        0.814       38.278       48.634       23.837     1465.201     2365.219      568.219        0.367        0.220       54.174        8.499        0.025      349.131       29.333      860.395
09/06/2014  15:04:00      -27.978       35.563      -22.306       69.939       51.302       44.775     4891.500     2631.944     2004.786        0.604        0.476       45.249       28.571        0.399      349.117       29.309      860.358
09/06/2014  15:05:00       45.180       28.493       50.225       49.211       56.415       44.903     2421.695     3182.703     2016.238        0.650        0.381       53.414       36.253        0.461      349.377       29.760      860.337
09/06/2014  15:06:00       13.964       59.676       -1.239       33.461       41.522       21.155     1119.665     1724.088      447.539        0.352        0.165       61.288        9.621        0.025      349.319       29.660      860.322
09/06/2014  15:07:00      189.459      127.013       46.176       87.950       60.992       43.840     7735.203     3720.057     1921.957        3.377        0.669      228.095       46.169        0.041      349.185       29.424      860.298
09/06/2014  15:08:00       89.882      -75.875       20.667       90.082       77.803       45.439     8114.851     6053.340     2064.735        1.525        0.812      117.626       42.814        0.132      349.300       29.626      860.275
09/06/2014  15:09:00       74.069     -108.142        9.900       41.590       73.318       45.083     1729.714     5375.545     2032.440        1.321        0.457      131.076       49.600        0.143      349.510       29.990      860.273
09/06/2014  15:10:00       66.915      -92.168       24.208       56.049       74.867       48.680     3141.440     5605.127     2369.752        1.234        0.556      113.897       53.666        0.222      349.408       29.814      860.263
09/06/2014  15:11:00       29.283       24.874       -1.100       47.986       52.517       42.058     2302.641     2758.067     1768.896        0.415        0.341       38.421       42.437        1.220      349.695       30.312      860.256
09/06/2014  15:12:00       81.894       82.938        4.058       59.758       49.883       56.533     3571.046     2488.363     3195.986        1.143        0.463      116.556       33.886        0.085      349.327       29.674      860.253
09/06/2014  15:13:00      145.760       21.459       30.530       67.225       92.506       50.718     4519.257     8557.297     2572.323        1.914        0.782      147.331       41.908        0.081      349.294       29.614      860.242
09/06/2014  15:14:00       26.577       -8.627       38.257       65.452       84.599       40.491     4283.930     7156.938     1639.484        0.766        0.654       27.942       28.484        1.039      349.564       30.085      860.232
09/06/2014  15:15:00       94.020       90.215       74.577       70.951       69.705       54.829     5034.066     4858.841     3006.233        1.772        0.645      130.302       45.576        0.122      349.249       29.537      860.230
09/06/2014  15:16:00      122.850       92.395       23.302       65.990       37.007       37.315     4354.639     1369.504     1392.444        1.564        0.356      153.717       26.617        0.030      349.098       29.275      860.233
09/06/2014  15:17:00       99.472       46.488       13.293       49.879       39.027       37.674     2487.956     1523.079     1419.300        0.883        0.272      109.799       20.938        0.036      349.151       29.369      860.223
09/06/2014  15:18:00       40.313       34.420       53.187       49.075       31.920       39.170     2408.327     1018.911     1534.292        0.530        0.248       53.008       37.380        0.497      349.166       29.395      860.200
09/06/2014  15:19:00       84.948       68.147        1.231       62.846       69.066       44.756     3949.599     4770.063     2003.057        1.129        0.536      108.905       35.253        0.105      349.135       29.340      860.179
09/06/2014  15:20:00       17.980       79.712       -3.952       68.844       57.726       43.255     4739.443     3332.312     1870.969        0.832        0.497       81.715       33.442        0.167      349.266       29.568      860.157
09/06/2014  15:21:00       82.096      119.095      -11.885       76.093       63.299       47.043     5790.098     4006.737     2212.999        1.654        0.600      144.649       35.925        0.062      349.244       29.527      860.142
09/06/2014  15:22:00      -11.023      138.848       -9.040       79.683       66.472       43.627     6349.308     4418.518     1903.340        1.607        0.634      139.285       38.298        0.076      349.191       29.436      860.138
09/06/2014  15:23:00      -33.558       59.451      -10.570       34.660       44.135       23.574     1201.331     1947.878      555.735        0.424        0.185       68.268       26.274        0.148      349.344       29.703      860.135
09/06/2014  15:24:00       -5.861       55.268       -5.815       19.694       39.594       19.310      387.841     1567.653      372.861        0.273        0.116       55.578       21.725        0.153      349.342       29.701      860.130
09/06/2014  15:25:00       -7.034       70.535       -3.636       19.257       39.514       22.612      370.834     1561.356      511.285        0.374        0.122       70.885       20.617        0.085      349.322       29.667      860.133
09/06/2014  15:26:00        8.399       58.812       -3.882       28.239       45.762       22.197      797.414     2094.200      492.686        0.346        0.169       59.409       10.237        0.030      349.332       29.682      860.134
09/06/2014  15:27:00       28.706       85.883       -4.620       29.276       29.064       28.506      857.110      844.706      812.601        0.537        0.126       90.553       17.856        0.039      349.144       29.357      860.137
09/06/2014  15:28:00        8.101       63.648       14.725       26.337       30.317       23.898      693.640      919.147      571.136        0.326        0.109       64.161       12.559        0.038      349.320       29.661      860.134
09/06/2014  15:29:00       -5.281       58.512        2.132       24.896       33.297       23.904      619.830     1108.695      571.419        0.288        0.115       58.750       22.082        0.141      349.328       29.675      860.127
09/06/2014  15:30:00       36.246       65.938       17.507       46.561       38.732       35.043     2167.886     1500.143     1228.021        0.543        0.245       75.244       24.702        0.108      349.358       29.727      860.101
09/06/2014  15:31:00       53.927       53.525        9.576       47.378       32.459       28.362     2244.711     1053.603      804.410        0.498        0.205       75.980       21.832        0.083      349.400       29.800      860.098
09/06/2014  15:32:00       54.502      -10.088        3.882       29.425       51.106       23.147      865.847     2611.795      535.768        0.355        0.201       55.428       19.121        0.119      349.258       29.555      860.086
09/06/2014  15:33:00       38.688      -91.411        8.534       41.320       58.546       32.859     1707.372     3427.591     1079.709        0.807        0.311       99.261       33.929        0.117      349.670       30.267      860.062
09/06/2014  15:34:00      -26.881       67.097       -0.197       46.800       60.054       34.040     2190.270     3606.513     1158.732        0.609        0.348       72.282       41.624        0.332      349.592       30.133      860.069
09/06/2014  15:35:00      -13.591       59.971       -5.505       38.518       48.103       35.927     1483.629     2313.852     1290.720        0.445        0.254       61.492       20.393        0.110      349.356       29.725      860.064
09/06/2014  15:36:00       42.785       54.876       15.402       63.078       41.684       29.690     3978.870     1737.551      881.509        0.584        0.330       69.584       17.443        0.063      349.454       29.894      860.054
09/06/2014  15:37:00       49.777       54.431       57.022       65.136       38.491       41.032     4242.741     1481.522     1683.652        0.805        0.370       73.760       35.734        0.235      349.391       29.783      860.031
09/06/2014  15:38:00      134.813       54.274        7.194       60.403       61.760       50.581     3648.505     3814.317     2558.476        1.559        0.501      145.327       31.472        0.047      349.185       29.427      860.018
09/06/2014  15:39:00       70.420       66.623        8.554       46.900       41.477       35.284     2199.598     1720.342     1244.927        0.732        0.258       96.941       23.421        0.058      349.185       29.427      860.007
09/06/2014  15:40:00       80.831       59.147        6.906       50.318       33.295       29.155     2531.935     1108.547      850.036        0.728        0.225      100.160       29.744        0.088      349.098       29.277      859.998
09/06/2014  15:41:00      -16.500       53.758      -18.547       38.935       43.000       19.241     1515.934     1848.991      370.198        0.362        0.187       56.233       18.277        0.106      349.263       29.563      859.988
09/06/2014  15:42:00        0.432       54.899      -10.564       25.230       54.610       20.571      636.547     2982.298      423.181        0.358        0.202       54.901       20.573        0.140      349.397       29.797      859.979
09/06/2014  15:43:00       11.224       92.271      -15.958       22.126       47.218       23.564      489.542     2229.544      555.263        0.608        0.164       92.951       18.064        0.038      349.317       29.656      859.975
09/06/2014  15:44:00       13.037       47.114       14.637       46.622       39.704       33.886     2173.576     1576.376     1148.255        0.375        0.245       48.884       28.948        0.351      349.669       30.266      859.963
09/06/2014  15:45:00       88.236       48.354       16.920       62.136       51.565       40.438     3860.841     2658.946     1635.212        0.928        0.408      100.616       30.812        0.094      349.564       30.085      859.959
09/06/2014  15:46:00       42.814       42.747        5.038       47.880       45.142       31.272     2292.471     2037.758      977.925        0.450        0.265       60.501       25.362        0.176      349.451       29.888      859.963
09/06/2014  15:47:00       22.501        4.242        9.915       33.805       56.251       27.921     1142.765     3164.180      779.559        0.285        0.254       22.898       28.390        1.537      349.480       29.938      859.939
09/06/2014  15:48:00      -31.066       -2.120      -12.568       19.683       44.660       16.693      387.417     1994.547      278.664        0.189        0.133       31.138       12.087        0.151      349.674       30.275      859.926
09/06/2014  15:49:00      -38.157       46.314       -7.866       28.080       39.883       30.644      788.504     1590.662      939.065        0.349        0.166       60.008       16.714        0.078      349.948       30.752      859.915
09/06/2014  15:50:00      -41.443      -11.060       -3.340       49.031       48.980       27.314     2404.044     2399.055      746.079        0.370        0.277       42.894       27.490        0.411      349.790       30.476      859.899
09/06/2014  15:51:00       57.576        0.895       33.477       69.685       60.942       36.472     4855.968     3713.930     1330.243        0.717        0.495       57.583       20.021        0.121      349.593       30.136      859.871
09/06/2014  15:52:00       30.733      116.946        0.891       56.560      141.700       52.753     3199.085    20078.769     2782.887        2.034        1.303      120.917       73.142        0.366      349.702       30.321      859.848
09/06/2014  15:53:00       -9.235      109.134       15.117       54.523      101.125       43.251     2972.758    10226.302     1870.620        1.364        0.753      109.524       43.725        0.159      349.794       30.483      859.864
09/06/2014  15:54:00       60.070      179.564      -25.220       85.350      114.201       62.001     7284.588    13041.842     3844.102        3.033        1.209      189.346       59.832        0.100      349.350       29.711      859.859
09/06/2014  15:55:00      224.400       97.265       41.978      114.355       80.554       61.480    13077.022     6488.898     3779.796        4.246        1.167      244.573       36.070        0.022      349.284       29.596      859.827
09/06/2014  15:56:00      230.464      168.110       81.841      148.291       91.393       72.823    21990.311     8352.594     5303.236        6.185        1.782      285.262       43.959        0.024      349.317       29.653      859.796
09/06/2014  15:57:00      150.205       63.357       43.950      106.520       68.227       56.783    11346.474     4654.929     3224.323        2.386        0.961      163.020       35.116        0.046      349.292       29.611      859.780
09/06/2014  15:58:00      285.270      144.250       52.682      152.170       89.059       67.404    23155.694     7931.550     4543.268        7.029        1.782      319.667       32.578        0.010      349.509       29.985      859.764
09/06/2014  15:59:00      322.168      233.014      101.117      166.328       93.268       97.445    27665.011     8698.832     9495.548       10.708        2.293      397.603       95.542        0.058      349.444       29.874      859.766
09/06/2014  16:00:00      261.671      149.514       30.451       76.157       65.804       54.977     5799.838     4330.158     3022.477        5.245        0.658      301.374       36.271        0.014      349.228       29.496      859.851
09/06/2014  16:01:00       37.474       20.028      -24.496       56.116       39.159       32.170     3148.957     1533.428     1034.894        0.406        0.286       42.491       27.318        0.413      349.260       29.557      859.842
09/06/2014  16:02:00       43.445       35.104       12.019       34.787       53.894       28.045     1210.101     2904.571      786.531        0.408        0.245       55.855       20.570        0.136      349.338       29.692      859.790
09/06/2014  16:03:00       38.586        6.021       17.516       25.388       22.320       24.193      644.567      498.189      585.288        0.178        0.086       39.053       14.065        0.130      349.248       29.537      859.755
09/06/2014  16:04:00       65.658       44.353       46.710       92.434      106.388       54.989     8544.001    11318.509     3023.786        1.567        1.144       79.235       46.414        0.343      349.455       29.894      859.726
09/06/2014  16:05:00       63.625       57.657       30.016      100.836       69.754       50.649    10167.857     4865.619     2565.327        1.293        0.880       85.863       40.862        0.226      349.679       30.284      859.717
09/06/2014  16:06:00      160.102       94.059       60.623       97.744       69.588       62.010     9553.886     4842.543     3845.233        2.820        0.912      185.687       41.804        0.051      349.552       30.061      859.704
09/06/2014  16:07:00      134.582       86.559       45.922       69.284       57.947       51.956     4800.297     3357.872     2699.405        1.928        0.543      160.015       32.493        0.041      349.580       30.111      859.707
09/06/2014  16:08:00       47.911       21.132       28.230       49.421       40.611       38.111     2442.463     1649.252     1452.416        0.454        0.277       52.365       21.362        0.166      349.607       30.160      859.718
09/06/2014  16:09:00       62.668       25.116       27.751       84.860       35.894       37.452     7201.169     1288.354     1402.621        0.761        0.495       67.514       30.051        0.198      349.568       30.092      859.726
09/06/2014  16:10:00       72.510       45.146       37.157       69.203       53.785       50.795     4789.085     2892.793     2580.176        0.947        0.513       85.416       46.304        0.294      349.359       29.730      859.729
09/06/2014  16:11:00       35.413      -35.650        9.038       23.561       39.907       32.348      555.113     1592.595     1046.369        0.290        0.160       50.250       24.969        0.247      349.275       29.583      859.729
09/06/2014  16:12:00        9.794       53.139        0.794       39.489       50.078       32.149     1559.412     2507.854     1033.541        0.401        0.255       54.034       19.328        0.128      349.516       30.000      859.708
09/06/2014  16:13:00       55.530      -15.145       -0.143       25.407       35.695       25.479      645.537     1274.119      649.181        0.294        0.128       57.558       12.638        0.048      349.494       29.963      859.682
09/06/2014  16:14:00      -14.471        5.747       -3.414       40.901       41.477       22.766     1672.879     1720.373      518.275        0.208        0.196       15.571       23.955        2.367      349.633       30.204      859.663
09/06/2014  16:15:00      -30.472      100.713      -11.086       45.636       53.600       30.955     2082.625     2872.984      958.230        0.855        0.296      105.222       25.685        0.060      349.800       30.494      859.670
09/06/2014  16:16:00      -81.686       85.334      -12.281       69.875       51.695       30.897     4882.503     2672.417      954.637        1.131        0.425      118.129       30.467        0.067      349.871       30.618      859.653
09/06/2014  16:17:00     -115.763        8.953        9.356       74.292       76.447       42.409     5519.331     5844.116     1798.533        1.336        0.658      116.109       30.248        0.068      350.096       31.009      859.639
09/06/2014  16:18:00     -184.021      -29.483      -21.839       81.441       53.833       31.792     6632.669     2897.963     1010.762        2.287        0.527      186.368       39.961        0.046      349.518       30.000      859.639
09/06/2014  16:19:00      -46.622       45.451       23.486       49.345       64.463       35.755     2434.925     4155.461     1278.394        0.633        0.393       65.111       27.871        0.183      350.048       30.927      859.637
09/06/2014  16:20:00     -187.719       32.456        6.498      125.994      105.472       53.087    15874.504    11124.325     2818.224        3.307        1.491      190.504       52.844        0.077      349.927       30.712      859.645
09/06/2014  16:21:00     -228.717        8.114      -11.009      178.627       96.611       62.450    31907.756     9333.662     3900.026        4.881        2.257      228.861       74.459        0.106      349.658       30.244      859.612
09/06/2014  16:22:00     -132.148     -157.846       25.151      141.840      131.714       64.100    20118.692    17348.479     4108.789        4.229        2.079      205.861       72.594        0.124      350.008       30.854      859.607
09/06/2014  16:23:00     -260.687     -236.999       -0.511      155.312      134.585       70.596    24121.700    18113.186     4983.747        8.566        2.361      352.315       62.437        0.031      349.632       30.199      859.623
09/06/2014  16:24:00     -160.754     -249.667        9.271      150.629      182.323       57.120    22689.054    33241.505     3262.647        7.372        2.960      296.944       63.949        0.046      349.438       29.863      859.628
09/06/2014  16:25:00     -288.515     -125.153      -20.965      112.959       96.390       40.952    12759.657     9291.006     1677.074        6.153        1.186      314.490       27.809        0.008      349.392       29.785      859.635
09/06/2014  16:26:00     -148.729       26.676       -7.209       71.044       54.163       37.273     5047.208     2933.614     1389.276        1.613        0.469      151.103       42.235        0.078      349.574       30.101      859.643
09/06/2014  16:27:00     -172.813      144.527      -35.978      107.219       88.768       43.105    11496.001     7879.812     1858.083        3.664        1.062      225.283       51.351        0.052      349.639       30.211      859.652
09/06/2014  16:28:00       14.928      272.142      -41.211       55.217      118.203       45.227     3048.945    13971.973     2045.515        4.752        0.953      272.551       49.793        0.033      349.300       29.624      859.651
09/06/2014  16:29:00       56.699      216.227      -25.830       58.747       82.549       44.658     3451.224     6814.259     1994.335        3.145        0.613      223.537       42.912        0.037      349.281       29.589      859.636
09/06/2014  16:30:00      -23.843      156.158      -29.492       44.200       55.662       29.988     1953.634     3098.210      899.309        1.589        0.298      157.968       20.071        0.016      349.383       29.771      859.616
09/06/2014  16:31:00      -41.604      134.484      -22.934       25.458       50.083       19.941      648.089     2508.339      397.640        1.195        0.178      140.773       24.093        0.029      349.329       29.678      859.605
09/06/2014  16:32:00       -2.727      225.882      -24.988       37.331      109.463       30.457     1393.604    11982.057      927.625        3.298        0.715      225.898       38.827        0.030      349.343       29.698      859.607
09/06/2014  16:33:00       44.805      202.902      -25.051       38.820       47.593       39.995     1506.973     2265.059     1599.595        2.459        0.269      207.791       31.033        0.022      349.348       29.708      859.613
09/06/2014  16:34:00      -27.021      155.525      -21.518       53.173       98.683       40.201     2827.334     9738.278     1616.144        1.978        0.709      157.855       35.236        0.050      349.436       29.861      859.636
09/06/2014  16:35:00      -21.456       -0.240      -28.546       29.164       30.580       11.422      850.567      935.149      130.465        0.160        0.096       21.457       10.636        0.246      349.432       29.855      859.633
09/06/2014  16:36:00       -7.625       10.638      -10.397       16.139       50.507       14.828      260.472     2550.998      219.883        0.165        0.152       13.089       10.462        0.639      349.453       29.893      859.618
09/06/2014  16:37:00      -47.885       35.077       -2.502       41.164       26.550       30.733     1694.438      704.897      944.500        0.344        0.167       59.358       17.819        0.090      349.567       30.089      859.602
09/06/2014  16:38:00      -37.537      -35.860        3.790       20.574       48.335       20.900      423.305     2336.272      436.824        0.295        0.160       51.913        9.832        0.036      349.564       30.085      859.601
09/06/2014  16:39:00       -9.680      -10.990       14.986       31.968       28.841       19.757     1021.971      831.822      390.347        0.134        0.112       14.645       20.319        1.925      349.829       30.544      859.586
09/06/2014  16:40:00       -4.854       15.136       21.231       41.438       15.264       23.251     1717.133      232.980      540.625        0.160        0.125       15.895       27.090        2.905      349.732       30.376      859.586
09/06/2014  16:41:00       16.053       46.488       -7.835       28.453       42.004       21.501      809.548     1764.326      462.305        0.276        0.152       49.182       13.231        0.072      349.525       30.018      859.572
09/06/2014  16:42:00       98.887       45.887       21.694       47.279       32.555       34.836     2235.314     1059.809     1213.535        0.843        0.225      109.015       19.245        0.031      349.441       29.871      859.551
09/06/2014  16:43:00      108.139       79.435        5.554       35.732       33.113       26.722     1276.802     1096.488      714.065        1.056        0.154      134.179       14.920        0.012      349.412       29.822      859.543
09/06/2014  16:44:00      102.236       72.545        4.349       35.393       23.151       22.918     1252.691      535.987      525.257        0.902        0.116      125.360        9.819        0.006      349.395       29.793      859.530
09/06/2014  16:45:00       46.710       35.528       -0.314       49.649       29.368       20.425     2465.054      862.453      417.176        0.359        0.187       58.686       16.420        0.078      349.492       29.960      859.518
09/06/2014  16:46:00      115.501       53.531       15.425       60.900       45.761       28.536     3708.824     2094.026      814.299        1.153        0.331      127.303       28.918        0.052      349.540       30.043      859.503
09/06/2014  16:47:00       69.223       23.308       12.550       46.267       35.860       21.677     2140.677     1285.906      469.896        0.469        0.195       73.042       10.936        0.022      349.475       29.931      859.496
09/06/2014  16:48:00      106.433       67.666       15.512       44.259       44.354       34.898     1958.843     1967.274     1217.883        1.064        0.257      126.121       25.418        0.041      349.589       30.127      859.478
09/06/2014  16:49:00       99.243       79.598       11.974       87.663       55.144       32.796     7684.837     3040.904     1075.600        1.406        0.590      127.220       17.920        0.020      349.618       30.176      859.469
09/06/2014  16:50:00       49.412       84.021      -12.541       39.787       62.391       33.958     1582.994     3892.619     1153.126        0.814        0.331       97.473       31.901        0.107      349.545       30.051      859.463
09/06/2014  16:51:00      108.204       87.877       15.829       70.799       52.285       45.456     5012.430     2733.765     2066.229        1.475        0.491      139.393       30.756        0.049      349.493       29.958      859.451
09/06/2014  16:52:00       97.561       82.405       -6.440       57.670       56.480       33.556     3325.847     3189.965     1126.026        1.199        0.382      127.706       18.889        0.022      349.572       30.098      859.437
09/06/2014  16:53:00      134.192       68.101        6.682       77.482       55.890       37.390     6003.446     3123.644     1397.976        1.661        0.526      150.483       21.031        0.020      349.484       29.946      859.425
09/06/2014  16:54:00      249.034      122.646       21.829      107.265       79.564       69.140    11505.675     6330.432     4780.326        5.007        1.131      277.597       39.560        0.020      349.568       30.087      859.414
09/06/2014  16:55:00      172.032      102.388       36.965       92.423       71.608       65.640     8542.007     5127.750     4308.577        2.971        0.899      200.196       61.910        0.096      349.417       29.827      859.442
09/06/2014  16:56:00       89.282       35.165       -4.563       46.612       44.271       28.745     2172.689     1959.880      826.302        0.709        0.248       95.958       17.264        0.032      349.398       29.796      859.440
09/06/2014  16:57:00       62.526       17.426       16.895       57.931       30.188       25.592     3356.005      911.329      654.973        0.471        0.246       64.909       13.494        0.043      349.535       30.034      859.436
09/06/2014  16:58:00       27.735       11.526       29.684       40.886       27.796       31.209     1671.694      772.617      973.975        0.260        0.171       30.035       24.127        0.645      349.589       30.128      859.437
09/06/2014  16:59:00       62.009        5.593        3.457       20.997       28.216       23.678      440.883      796.154      560.630        0.284        0.090       62.260        9.787        0.025      349.335       29.687      859.450
09/06/2014  17:00:00       53.330       42.354       16.719       39.610       18.188       19.173     1568.986      330.795      367.612        0.359        0.113       68.103       12.024        0.031      349.408       29.813      859.441
09/06/2014  17:01:00       24.135       20.621        6.628       39.856       19.390       20.639     1588.490      375.967      425.959        0.172        0.120       31.745       17.857        0.316      349.610       30.164      859.432
09/06/2014  17:02:00       21.828       -5.142      -10.212       36.932       30.833       18.425     1363.958      950.661      339.497        0.163        0.133       22.425       17.883        0.636      349.585       30.121      859.428
09/06/2014  17:03:00       51.821       -3.400        5.866       17.323       16.472       16.713      300.076      271.322      279.331        0.179        0.043       51.932       12.719        0.060      349.521       30.009      859.421
09/06/2014  17:04:00        4.122        7.490      -11.481       53.876       18.716       15.626     2902.603      350.273      244.161        0.185        0.175        8.549       11.974        1.962      349.534       30.033      859.411
09/06/2014  17:05:00     -316.223       34.136      -19.769      143.278       75.548       52.428    20528.715     5707.465     2748.680        6.526        1.449      318.060       43.932        0.019      349.762       30.425      859.383
09/06/2014  17:06:00     -203.773      -51.151        4.767      115.301       80.832       57.909    13294.296     6533.799     3353.423        3.367        1.159      210.095       65.306        0.097      349.955       30.761      859.374
09/06/2014  17:07:00      -49.087      -77.238        6.498       68.313       48.388       33.263     4666.728     2341.399     1106.459        0.826        0.406       91.516       24.288        0.070      350.033       30.898      859.394
09/06/2014  17:08:00     -156.646     -136.372        2.629      119.163      103.579       64.919    14199.909    10728.576     4214.472        3.614        1.457      207.690       62.623        0.091      349.805       30.501      859.374
09/06/2014  17:09:00     -237.668     -126.173       -3.263       90.085       73.434       44.005     8115.292     5392.540     1936.452        4.393        0.772      269.084       41.442        0.024      349.653       30.235      859.369
09/06/2014  17:10:00     -164.726     -112.442       -3.547       95.883       94.699       40.891     9193.553     8967.887     1672.051        2.981        0.992      199.443       49.835        0.062      349.678       30.281      859.374
09/06/2014  17:11:00     -189.700     -176.320       -6.473      101.913       72.009       46.827    10386.329     5185.279     2192.736        4.244        0.888      258.988       52.855        0.042      349.584       30.115      859.373
09/06/2014  17:12:00     -164.915     -113.646        1.876       67.615       61.649       35.204     4571.753     3800.539     1239.351        2.486        0.481      200.281       36.779        0.034      349.559       30.074      859.361
09/06/2014  17:13:00     -140.757      -97.864       -9.011       61.312       50.213       28.672     3759.189     2521.369      822.073        1.829        0.355      171.434       21.253        0.015      349.636       30.208      859.364
09/06/2014  17:14:00     -166.409      -61.823        8.940       99.120       72.471       45.612     9824.751     5252.091     2080.410        2.437        0.858      177.522       53.887        0.092      349.779       30.455      859.363
09/06/2014  17:15:00     -137.996      -75.896       -4.327      114.441      107.634       59.340    13096.660    11585.145     3521.267        2.651        1.410      157.490       50.650        0.103      349.806       30.503      859.365
09/06/2014  17:16:00     -106.690      -26.535       11.866       55.056       48.440       36.727     3031.144     2346.442     1348.841        0.948        0.336      109.940       27.968        0.065      350.010       30.859      859.380
09/06/2014  17:17:00     -180.702      -68.843      -10.740       93.612       75.591       51.021     8763.283     5714.034     2603.184        2.729        0.854      193.371       40.701        0.044      349.874       30.621      859.378
09/06/2014  17:18:00     -143.043      -29.917       -3.238       53.686       42.629       33.757     2882.211     1817.274     1139.502        1.360        0.292      146.138       23.483        0.026      349.569       30.093      859.365
09/06/2014  17:19:00      -67.228       59.482      -10.333       33.280       64.548       30.530     1107.527     4166.457      932.103        0.718        0.310       89.764       26.289        0.086      349.608       30.161      859.360
09/06/2014  17:20:00      -24.501       29.934      -15.989       16.385       23.247       14.116      268.476      540.437      199.266        0.138        0.050       38.683        9.415        0.059      349.615       30.173      859.360
09/06/2014  17:21:00      -77.948      -28.873       -8.283       41.917       29.464       20.203     1757.057      868.134      408.151        0.501        0.152       83.124       14.453        0.030      349.709       30.337      859.359
09/06/2014  17:22:00      -88.003      -55.416       -0.721       87.269       58.516       34.794     7615.911     3424.177     1210.628        1.153        0.613      103.997       37.645        0.131      349.931       30.721      859.367
09/06/2014  17:23:00     -101.055      -37.475        2.956       84.733       65.667       48.354     7179.699     4312.124     2338.131        1.273        0.691      107.780       36.952        0.118      349.936       30.730      859.364
09/06/2014  17:24:00      -61.756      -34.253       16.878       58.997       56.941       30.699     3480.599     3242.282      942.412        0.647        0.383       70.619       35.135        0.248      349.931       30.720      859.363
09/06/2014  17:25:00     -178.371      -56.999      -15.665      140.068       74.705       39.136    19619.036     5580.854     1531.642        3.102        1.337      187.257       55.814        0.089      349.809       30.508      859.364
09/06/2014  17:26:00     -146.141      -29.604       -2.407       94.140       70.100       40.154     8862.353     4913.953     1612.306        1.881        0.769      149.110       43.325        0.084      349.906       30.677      859.367
09/06/2014  17:27:00     -171.208      -26.765       -7.872       88.703       97.143       44.812     7868.166     9436.837     2008.130        2.470        0.966      173.287       33.951        0.038      349.863       30.600      859.378
09/06/2014  17:28:00     -322.131       -4.731      -18.172      144.366       85.129       60.304    20841.558     7247.017     3636.555        6.792        1.586      322.166       69.231        0.046      349.781       30.456      859.380
09/06/2014  17:29:00     -398.649     -170.995      -24.115      109.293       99.502       56.478    11945.052     9900.686     3189.761       10.688        1.252      433.774       42.591        0.010      349.557       30.069      859.373
09/06/2014  17:30:00     -265.755      -85.459      -14.604      111.596       87.362       47.470    12453.661     7632.176     2253.428        5.024        1.117      279.158       49.562        0.032      349.622       30.182      859.374
09/06/2014  17:31:00     -140.828      -38.934       -3.463       76.340       68.561       43.812     5827.780     4700.644     1919.462        1.690        0.622      146.111       39.440        0.073      349.768       30.435      859.373
09/06/2014  17:32:00     -217.657      -52.009        0.544      136.467       96.860       42.859    18623.284     9381.831     1836.887        3.996        1.492      223.785       45.175        0.041      349.777       30.451      859.370
09/06/2014  17:33:00     -317.423     -151.063      -20.113      109.717       87.078       50.211    12037.895     7582.558     2521.114        7.306        1.107      351.536       49.287        0.020      349.564       30.080      859.341
09/06/2014  17:34:00     -203.373      -53.042        0.864       91.861      101.695       48.292     8438.443    10341.890     2332.138        3.264        1.056      210.176       49.686        0.056      349.691       30.300      859.336
09/06/2014  17:35:00     -158.157      -57.952        6.621       85.341       91.978       47.008     7283.092     8459.948     2209.789        2.318        0.898      168.441       43.388        0.066      349.724       30.361      859.335
09/06/2014  17:36:00     -149.748     -111.496       -3.558       79.227       76.510       37.329     6276.893     5853.759     1393.478        2.419        0.676      186.698       28.420        0.023      349.578       30.106      859.329
09/06/2014  17:37:00     -177.726     -100.902       -0.848       90.038       56.183       33.301     8106.887     3156.476     1108.941        2.707        0.619      204.371       44.262        0.047      349.630       30.196      859.319
09/06/2014  17:38:00     -192.605      -57.228      -13.326       85.047       57.772       38.333     7232.915     3337.648     1469.388        2.629        0.602      200.927       37.415        0.035      349.623       30.184      859.313
09/06/2014  17:39:00     -147.814      -75.037       -5.988       74.531       56.307       38.875     5554.799     3170.473     1511.244        1.887        0.512      165.769       39.334        0.056      349.662       30.252      859.305
09/06/2014  17:40:00     -167.668      -63.318       -4.753       89.915       54.797       34.282     8084.713     3002.706     1175.243        2.220        0.613      179.226       41.084        0.053      349.722       30.356      859.298
09/06/2014  17:41:00     -108.553      -53.357       -9.093       45.346       47.044       24.228     2056.265     2213.124      586.974        0.978        0.243      120.958       16.068        0.018      349.737       30.384      859.296
09/06/2014  17:42:00     -149.882       -5.542        2.419       64.002       43.720       36.943     4096.244     1911.408     1364.765        1.494        0.369      149.985       37.022        0.061      349.881       30.635      859.297
09/06/2014  17:43:00     -165.714       11.275      -12.777       56.564       60.564       33.409     3199.456     3667.978     1116.163        1.787        0.399      166.098       26.003        0.025      349.777       30.453      859.293
09/06/2014  17:44:00     -119.751       53.382      -16.924       42.187       73.595       28.306     1779.728     5416.201      801.238        1.274        0.400      131.111       19.715        0.023      349.692       30.308      859.290
09/06/2014  17:45:00      -97.104       67.435      -18.692       68.397       55.615       34.172     4678.199     3093.017     1167.731        1.163        0.447      118.223       22.248        0.035      349.662       30.255      859.289
09/06/2014  17:46:00     -135.260       -4.761       -1.354       98.367       93.332       43.441     9676.124     8710.915     1887.079        1.929        1.014      135.344       45.127        0.111      349.855       30.588      859.278
09/06/2014  17:47:00     -217.116      -55.848       -8.885      122.710       66.167       41.189    15057.810     4378.138     1696.559        3.573        1.057      224.184       54.734        0.060      349.659       30.247      859.295
09/06/2014  17:48:00     -250.158      -69.456      -15.959       76.647       80.755       47.204     5874.793     6521.364     2228.179        4.114        0.731      259.622       39.787        0.023      349.534       30.029      859.297
09/06/2014  17:49:00     -335.339      -63.728      -14.873      143.861      156.728       55.695    20696.039    24563.522     3101.965        8.254        2.418      341.341       59.793        0.031      349.429       29.847      859.295
09/06/2014  17:50:00     -209.219       26.939      -21.207       91.871       92.134       49.251     8440.211     8488.609     2425.644        3.215        0.968      210.946       50.986        0.058      349.466       29.912      859.301
09/06/2014  17:51:00     -323.818      -16.947      -31.409      149.188      158.921       76.075    22257.077    25255.847     5787.455        7.971        2.665      324.261       73.547        0.051      349.414       29.821      859.285
09/06/2014  17:52:00     -519.181      -43.323      -49.931      163.060      135.281       75.329    26588.709    18300.906     5674.424       16.223        2.528      520.986       64.983        0.016      349.307       29.637      859.291
09/06/2014  17:53:00     -198.416      -45.923      -15.889      151.940      113.835       66.172    23085.772    12958.514     4378.685        4.107        2.021      203.661       63.028        0.096      349.406       29.808      859.300
09/06/2014  17:54:00     -503.367      -24.758      -46.905      158.433      109.682       79.064    25101.121    12030.076     6251.182       14.978        2.169      503.976       81.693        0.026      349.172       29.402      859.304
09/06/2014  17:55:00     -273.088      -11.421      -30.884      141.617      112.133       70.986    20055.321    12573.833     5038.959        5.666        1.883      273.326       64.829        0.056      349.199       29.449      859.288
09/06/2014  17:56:00     -225.899      227.934      -42.502      161.770      189.950       92.754    26169.619    36081.163     8603.221        8.781        3.543      320.912       98.481        0.094      349.124       29.318      859.248
09/06/2014  17:57:00     -338.431       27.539      -37.246      158.638      134.159       84.710    25166.141    17998.532     7175.747        8.350        2.517      339.550       56.804        0.028      349.203       29.456      859.240
09/06/2014  17:58:00     -187.402      -14.920      -22.488      117.375       96.199       61.809    13776.833     9254.307     3820.320        3.135        1.343      187.995       58.616        0.097      349.301       29.627      859.272
09/06/2014  17:59:00     -277.002       75.158      -42.846      114.287      111.572       57.156    13061.441    12448.321     3266.753        5.649        1.439      287.017       54.578        0.036      349.215       29.476      859.306
09/06/2014  18:00:00     -174.839       91.631      -10.933      107.419       82.887       56.945    11538.781     6870.296     3242.785        3.036        1.083      197.395       51.787        0.069      349.221       29.487      859.287
09/06/2014  18:01:00     -174.297       13.627      -14.756      117.696      128.870       72.128    13852.282    16607.554     5202.423        3.322        1.783      174.828       55.136        0.099      349.347       29.704      859.273
09/06/2014  18:02:00     -272.541      -54.141       -3.905      143.636      100.867       62.277    20631.436    10174.115     3878.468        5.595        1.734      277.867       65.992        0.056      349.184       29.423      859.283
09/06/2014  18:03:00     -318.418      -53.437      -53.920      105.886      131.538       63.417    11211.920    17302.289     4021.757        6.984        1.627      322.871       45.764        0.020      349.114       29.302      859.274
09/06/2014  18:04:00     -356.167      -96.316      -20.521      115.546      122.958       65.760    13350.975    15118.651     4324.386        8.467        1.640      368.960       51.407        0.019      349.014       29.127      859.276
09/06/2014  18:05:00     -204.299      -17.157      -18.703      123.801       95.265       57.248    15326.585     9075.413     3277.294        3.503        1.384      205.018       64.069        0.098      349.067       29.219      859.284
09/06/2014  18:06:00     -156.120        9.879       -2.286      126.451      104.324       72.302    15989.807    10883.541     5227.580        2.828        1.605      156.432       73.448        0.220      349.116       29.306      859.300
09/06/2014  18:07:00     -253.125      -65.796       -7.949      165.243      119.699       72.945    27305.215    14327.795     5320.997        5.770        2.348      261.537       68.346        0.068      349.066       29.216      859.278
09/06/2014  18:08:00     -341.242      -96.360      -19.047       97.974      123.374       61.384     9598.906    15221.218     3768.038        7.734        1.429      354.586       47.394        0.018      349.022       29.142      859.296
09/06/2014  18:09:00     -236.665      109.930      -35.602      157.370      137.269       77.286    24765.269    18842.721     5973.111        5.946        2.479      260.950       45.323        0.030      349.025       29.147      859.315
09/06/2014  18:10:00     -107.488      103.844      -31.231       93.812      113.891       61.026     8800.751    12971.238     3724.162        2.440        1.275      149.457       46.452        0.097      349.021       29.142      859.318
09/06/2014  18:11:00     -143.793       27.331      -13.947      138.578      148.478       82.694    19203.863    22045.576     6838.256        3.484        2.404      146.367       86.670        0.351      349.039       29.172      859.317
09/06/2014  18:12:00     -183.793      124.788      -35.242      105.652      111.752       55.321    11162.250    12488.615     3060.381        3.865        1.336      222.153       52.592        0.056      349.023       29.144      859.327
09/06/2014  18:13:00     -281.306       32.795      -32.382      133.311      102.211       54.999    17771.876    10447.068     3024.941        5.625        1.562      283.211       35.627        0.016      349.036       29.167      859.318
09/06/2014  18:14:00     -190.108       52.633      -30.410      108.595       95.891       46.799    11792.865     9195.023     2190.169        3.150        1.159      197.259       51.881        0.069      349.024       29.145      859.312
09/06/2014  18:15:00     -225.641      115.924      -28.831      160.344      159.218       96.152    25710.081    25350.496     9245.158        6.273        3.015      253.677       83.540        0.108      348.971       29.053      859.306
09/06/2014  18:16:00     -169.598      122.161      -37.276      127.595      136.450       68.338    16280.472    18618.494     4670.066        4.232        1.978      209.014       54.852        0.069      348.922       28.968      859.327
09/06/2014  18:17:00     -217.276      103.585      -40.598      106.521      150.722       64.478    11346.733    22717.104     4157.414        4.890        1.911      240.705       57.400        0.057      348.927       28.977      859.322
09/06/2014  18:18:00     -184.326        7.475      -13.793      121.535       86.797       48.004    14770.771     7533.764     2304.418        2.941        1.230      184.477       49.320        0.071      348.963       29.041      859.317
09/06/2014  18:19:00     -159.696      195.345      -31.854      141.587      174.902       75.920    20047.019    30590.547     5763.882        6.053        2.820      252.315       89.634        0.126      348.925       28.974      859.335
09/06/2014  18:20:00     -205.917       10.674      -29.296       70.957       88.150       38.499     5034.928     7770.403     1482.145        2.883        0.714      206.193       36.952        0.032      349.044       29.181      859.325
09/06/2014  18:21:00     -132.345       14.038      -11.384       77.884       57.506       45.407     6065.874     3306.899     2061.831        1.464        0.572      133.087       41.972        0.099      349.037       29.169      859.330
09/06/2014  18:22:00     -220.269        1.352      -26.757       71.308      105.257       49.702     5084.881    11078.964     2470.284        3.393        0.932      220.273       40.818        0.034      349.068       29.222      859.336
09/06/2014  18:23:00     -251.836      -34.822       -4.161      126.980      110.060       58.017    16123.971    12113.102     3365.949        4.812        1.580      254.232       66.845        0.069      349.018       29.135      859.328
09/06/2014  18:24:00     -396.526       10.405      -38.326      117.999      114.811       49.584    13923.709    13181.527     2458.528        9.418        1.478      396.663       36.944        0.009      348.927       28.978      859.363
09/06/2014  18:25:00     -311.126      -49.034      -25.916      195.402      156.497       67.259    38181.861    24491.299     4523.816        8.352        3.360      314.966       66.383        0.044      348.818       28.789      859.349
09/06/2014  18:26:00     -230.944       -9.007      -16.114      116.352      116.417       61.657    13537.877    13552.987     3801.592        4.228        1.545      231.120       44.137        0.036      348.831       28.811      859.342
09/06/2014  18:27:00     -247.916      -27.658       -7.193      155.020      120.567       76.761    24031.110    14536.468     5892.261        5.336        2.223      249.454       69.951        0.079      348.785       28.731      859.323
09/06/2014  18:28:00     -267.700      -79.332      -10.409      134.640      130.269       68.344    18127.861    16969.991     4670.876        5.891        1.988      279.207       63.272        0.051      348.699       28.581      859.342
09/06/2014  18:29:00     -356.909       72.470      -46.285      145.012      141.452       67.013    21028.481    20008.782     4490.759        9.015        2.276      364.192       58.662        0.026      348.658       28.510      859.338
09/06/2014  18:30:00     -269.200      127.211      -16.269      146.866      127.117       85.835    21569.580    16158.758     7367.613        6.700        2.255      297.744       88.574        0.088      348.679       28.548      859.333
09/06/2014  18:31:00     -245.503      110.328      -37.644      143.398      168.990      100.063    20563.040    28557.747    10012.546        6.649        2.957      269.154       87.248        0.105      348.712       28.607      859.319
09/06/2014  18:32:00     -171.571      155.453      -20.797      110.197      107.031       68.482    12143.336    11455.695     4689.730        4.116        1.414      231.521       65.748        0.081      348.716       28.613      859.324
09/06/2014  18:33:00     -223.086      168.459      -35.619      115.719       74.866       67.453    13390.955     5604.897     4549.906        5.148        1.177      279.546       57.388        0.042      348.708       28.598      859.336
09/06/2014  18:34:00     -181.250       78.664      -14.788      112.099      107.323       53.083    12566.297    11518.282     2817.817        3.308        1.345      197.584       47.747        0.058      348.749       28.670      859.314
09/06/2014  18:35:00     -175.040       93.153      -10.386      107.697      112.349       70.746    11598.581    12622.342     5005.008        3.432        1.461      198.284       60.951        0.094      348.735       28.646      859.308
09/06/2014  18:36:00     -133.995       19.763        0.693      101.631      101.494       55.393    10328.830    10301.069     3068.392        2.102        1.185      135.445       48.165        0.126      348.722       28.623      859.323
09/06/2014  18:37:00     -103.943       -3.974        1.853      138.628      116.410       60.674    19217.740    13551.330     3681.277        2.363        1.823      104.019       69.771        0.450      348.651       28.502      859.328
09/06/2014  18:38:00     -214.259       39.828      -34.295      109.570      127.508       75.837    12005.487    16258.305     5751.209        4.134        1.701      217.930       60.105        0.076      348.664       28.522      859.337
09/06/2014  18:39:00     -212.370       73.571      -38.471      120.980       93.295       55.728    14636.106     8703.948     3105.643        3.922        1.322      224.752       44.978        0.040      348.647       28.493      859.342
09/06/2014  18:40:00     -173.458      -44.310       -6.405      159.554      103.313       65.256    25457.379    10673.594     4258.318        3.623        2.019      179.028       62.453        0.122      348.638       28.478      859.349
09/06/2014  18:41:00     -364.338      -85.563      -17.875      107.234      103.144       57.976    11499.092    10638.608     3361.259        8.294        1.275      374.250       50.236        0.018      348.555       28.333      859.385
09/06/2014  18:42:00     -279.945      -92.375      -20.057       77.103       83.276       40.374     5944.833     6934.975     1630.083        5.090        0.725      294.792       27.232        0.009      348.557       28.336      859.404
09/06/2014  18:43:00     -271.064        5.610      -21.192       83.864      107.523       45.638     7033.159    11561.183     2082.867        4.731        1.034      271.122       40.182        0.022      348.510       28.255      859.385
09/06/2014  18:44:00     -267.747      -68.281       -7.403      127.452      125.193       61.668    16243.935    15673.202     3802.893        5.606        1.786      276.316       68.321        0.061      348.609       28.426      859.384
09/06/2014  18:45:00     -209.016      -59.211       -2.476      122.633      123.771       62.485    15038.918    15319.172     3904.395        4.073        1.713      217.241       57.679        0.070      348.651       28.500      859.384
09/06/2014  18:46:00     -343.218      -64.901      -23.423      156.665      148.707       63.550    24543.805    22113.706     4038.596        8.662        2.535      349.300       65.271        0.035      348.655       28.506      859.381
09/06/2014  18:47:00     -407.676     -104.851      -18.019      171.136      141.088       66.014    29287.514    19905.720     4357.864       11.553        2.678      420.943       73.912        0.031      348.636       28.473      859.371
09/06/2014  18:48:00     -280.839      -80.312      -15.958      112.025       92.991       53.049    12549.641     8647.356     2814.205        5.479        1.201      292.097       53.730        0.034      348.660       28.518      859.377
09/06/2014  18:49:00     -341.814      -54.318      -12.952      227.155      144.797       89.498    51599.546    20966.237     8009.857       10.025        4.029      346.102      105.351        0.093      348.627       28.458      859.381
09/06/2014  18:50:00     -393.795     -117.290      -10.171      166.557      111.976       65.438    27741.116    12538.580     4282.155       10.674        2.228      410.891       75.701        0.034      348.620       28.446      859.393
09/06/2014  18:51:00     -304.556      -53.512      -11.591      139.891      113.070       58.158    19569.422    12784.901     3382.325        6.574        1.787      309.221       49.951        0.026      348.576       28.370      859.391
09/06/2014  18:52:00     -225.745      -55.376      -29.969       69.669       65.888       33.468     4853.812     4341.280     1120.123        3.262        0.516      232.438       27.058        0.014      348.556       28.336      859.400
09/06/2014  18:53:00     -275.271      -24.174      -15.045      152.573      140.055       67.504    23278.443    19615.321     4556.846        6.201        2.373      276.331       69.319        0.063      348.381       28.033      859.402
09/06/2014  18:54:00     -316.342      -40.391      -36.281      158.356      130.142       68.688    25076.626    16937.002     4718.049        7.487        2.337      318.910       78.162        0.060      348.334       27.950      859.386
09/06/2014  18:55:00     -267.513      -52.278      -30.683      107.757       81.541       54.582    11611.637     6648.899     2979.244        4.824        1.062      272.573       54.048        0.039      348.314       27.914      859.388
09/06/2014  18:56:00     -273.478      -90.398      -28.236       92.839      113.229       52.830     8619.137    12820.749     2791.040        5.399        1.212      288.032       42.083        0.021      348.303       27.897      859.404
09/06/2014  18:57:00     -274.205      -62.048      -17.166       65.733       68.220       42.045     4320.847     4653.954     1767.761        4.504        0.537      281.137       30.525        0.012      348.283       27.859      859.419
09/06/2014  18:58:00     -304.408     -131.925       -0.946       87.392       75.986       53.749     7637.299     5773.875     2888.977        6.318        0.815      331.765       51.022        0.024      348.274       27.845      859.429
09/06/2014  18:59:00     -309.885     -116.012      -18.596      101.358      115.409       59.210    10273.381    13319.135     3505.825        6.846        1.355      330.889       58.075        0.031      348.390       28.048      859.450
09/06/2014  19:00:00     -412.631     -150.882       -4.316      175.170       94.030       67.280    30684.484     8841.554     4526.579       11.854        2.203      439.351       78.081        0.032      348.423       28.105      859.449
09/06/2014  19:01:00     -401.124     -153.776       -3.071      154.565      124.883       71.445    23890.438    15595.816     5104.368       11.457        2.230      429.590       76.600        0.032      348.389       28.047      859.466
09/06/2014  19:02:00     -213.786       -8.938       -1.664       94.673      102.857       61.533     8962.942    10579.649     3786.294        3.455        1.166      213.973       53.349        0.062      348.386       28.040      859.488
09/06/2014  19:03:00     -285.955      -41.375       -5.653      123.997       82.266       52.320    15375.151     6767.623     2737.427        5.419        1.244      288.933       61.530        0.045      348.352       27.983      859.495
09/06/2014  19:04:00     -312.213      -88.771       -2.449      178.725       92.153       67.891    31942.769     8492.154     4609.212        7.520        2.252      324.588       83.970        0.067      348.302       27.894      859.504
09/06/2014  19:05:00     -403.485      -42.748      -15.170      158.637      127.445       72.814    25165.779    16242.313     5301.864       10.578        2.335      405.743       83.627        0.042      348.335       27.951      859.522
09/06/2014  19:06:00     -420.084      -88.625      -20.775      191.817      114.180       70.466    36793.644    13037.064     4965.492       11.977        2.740      429.331       77.512        0.033      348.321       27.928      859.526
09/06/2014  19:07:00     -426.829     -121.478      -13.777      151.015      124.100       66.330    22805.554    15400.815     4399.640       11.986        2.130      443.779       66.469        0.022      348.349       27.977      859.517
09/06/2014  19:08:00     -204.793      -26.483      -10.073       89.225       89.424       50.454     7961.031     7996.599     2545.589        3.062        0.925      206.498       46.367        0.050      348.260       27.821      859.545
09/06/2014  19:09:00     -256.321       -9.655      -16.512       98.745       98.036       57.720     9750.583     9611.073     3331.642        4.438        1.135      256.503       48.811        0.036      348.262       27.823      859.547
09/06/2014  19:10:00     -250.906      -22.361      -13.152      113.482      100.109       52.513    12878.059    10021.765     2757.609        4.464        1.283      251.900       53.052        0.044      348.198       27.715      859.564
09/06/2014  19:11:00     -232.546      -30.425       -9.203      101.998       85.404       51.733    10403.645     7293.855     2676.324        3.773        1.019      234.528       55.723        0.056      348.157       27.645      859.579
09/06/2014  19:12:00     -290.096      -49.404      -11.787      135.339       88.098       58.122    18316.683     7761.288     3378.133        5.809        1.473      294.273       61.842        0.044      348.171       27.670      859.582
09/06/2014  19:13:00     -300.053      -62.318      -17.422      112.815       81.824       54.111    12727.255     6695.189     2928.017        5.828        1.118      306.456       60.798        0.039      348.169       27.664      859.590
09/06/2014  19:14:00     -299.304      -34.315       -9.462      133.431      102.564       61.448    17803.901    10519.312     3775.859        6.147        1.605      301.264       62.360        0.043      348.160       27.648      859.590
09/06/2014  19:15:00     -308.379      -17.249      -17.153      108.534      114.881       65.003    11779.540    13197.674     4225.373        6.244        1.460      308.861       66.925        0.047      348.109       27.561      859.591
09/06/2014  19:16:00     -162.865      -97.070       -2.469      139.614      106.589       70.821    19491.982    11361.216     5015.684        3.591        1.793      189.599       71.188        0.141      348.128       27.595      859.601
09/06/2014  19:17:00     -274.220      -57.572      -15.606      112.990       82.423       63.011    12766.662     6793.481     3970.374        5.114        1.177      280.198       56.844        0.041      348.134       27.604      859.609
09/06/2014  19:18:00     -342.446      -98.327      -16.747      182.723      120.063       80.268    33387.673    14415.015     6442.920        9.072        2.712      356.283       78.827        0.049      348.104       27.553      859.598
09/06/2014  19:19:00     -366.620      -28.847      -14.117      122.260      137.578       70.537    14947.403    18927.816     4975.529        8.714        1.943      367.753       66.526        0.033      348.060       27.475      859.592
09/06/2014  19:20:00     -335.636      -91.867       -7.663      118.927      126.043       62.332    14143.735    15886.932     3885.329        7.753        1.696      347.981       61.812        0.032      348.030       27.425      859.606
09/06/2014  19:21:00     -321.602      -76.409       -8.167      128.421      153.740       62.471    16491.880    23635.918     3902.616        7.667        2.202      330.554       60.027        0.033      348.013       27.396      859.613
09/06/2014  19:22:00     -399.677     -134.223      -13.595      150.728      130.342       69.057    22718.966    16989.122     4768.865       11.120        2.224      421.613       70.978        0.028      348.007       27.386      859.617
09/06/2014  19:23:00     -421.728      -66.526      -16.495      139.107      125.224       79.751    19350.695    15681.137     6360.156       11.197        2.070      426.943       81.169        0.036      348.019       27.406      859.623
09/06/2014  19:24:00     -307.795      -90.817       -4.504      165.954      139.141       81.347    27540.846    19360.117     6617.296        7.825        2.676      320.913       92.853        0.084      347.965       27.313      859.637
09/06/2014  19:25:00     -299.968      -60.597      -10.074      117.952      101.138       53.216    13912.683    10228.951     2831.910        6.036        1.349      306.028       50.357        0.027      347.960       27.303      859.641
09/06/2014  19:26:00     -387.962      -50.942       -9.249      148.095      128.344       71.754    21932.087    16472.263     5148.703        9.837        2.178      391.292       75.508        0.037      347.931       27.254      859.651
09/06/2014  19:27:00     -303.475      -35.326      -23.881      125.365       98.578       68.838    15716.353     9717.577     4738.667        6.204        1.509      305.524       74.295        0.059      347.903       27.203      859.677
09/06/2014  19:28:00     -177.961      -69.403       -4.063      171.625       97.492       69.812    29455.228     9504.655     4873.698        4.016        2.192      191.015       81.093        0.180      347.871       27.151      859.679
09/06/2014  19:29:00     -242.856      -88.274       -9.082      104.781      109.077       51.830    10978.961    11897.881     2686.307        4.620        1.278      258.402       50.250        0.038      347.875       27.157      859.697
09/06/2014  19:30:00     -363.417     -100.174      -10.244      123.287      106.532       62.558    15199.638    11349.045     3913.456        8.633        1.523      376.970       53.057        0.020      347.902       27.204      859.708
09/06/2014  19:31:00     -355.378      -80.919       -9.702      119.011      111.000       64.272    14163.653    12321.073     4130.858        8.177        1.531      364.474       59.869        0.027      347.883       27.170      859.718
09/06/2014  19:32:00     -308.788      -52.919        4.515      141.175       95.121       64.199    19930.340     9047.933     4121.572        6.563        1.655      313.289       75.697        0.058      347.825       27.070      859.728
09/06/2014  19:33:00     -240.018      -11.664       -3.320      106.915       95.688       58.026    11430.855     9156.136     3366.974        4.085        1.198      240.301       52.460        0.048      347.782       26.996      859.736
09/06/2014  19:34:00     -370.272       -7.370      -17.810      143.465      141.268       60.957    20582.190    19956.717     3715.785        9.086        2.213      370.345       65.120        0.031      347.792       27.015      859.740
09/06/2014  19:35:00     -326.853      -67.283      -13.698      134.741       83.851       55.739    18155.218     7031.024     3106.798        6.992        1.415      333.706       59.858        0.032      347.791       27.013      859.746
09/06/2014  19:36:00     -342.444      -50.115      -12.014      113.938      115.037       64.102    12981.902    13233.450     4109.106        7.512        1.516      346.091       64.105        0.034      347.750       26.941      859.767
09/06/2014  19:37:00     -368.362      -48.694      -25.683      128.334      102.234       59.874    16469.634    10451.708     3584.850        8.461        1.525      371.566       57.494        0.024      347.790       27.011      859.772
09/06/2014  19:38:00     -341.895      -21.368      -16.686      124.300       74.849       61.950    15450.568     5602.417     3837.786        7.125        1.245      342.562       68.504        0.040      347.761       26.961      859.791
09/06/2014  19:39:00     -279.616      -71.542      -12.669      117.219      109.426       63.562    13740.207    11974.024     4040.155        5.660        1.488      288.623       50.556        0.031      347.723       26.896      859.796
09/06/2014  19:40:00     -279.477     -101.054       -8.257      135.831      108.268       66.727    18450.161    11722.058     4452.486        6.150        1.731      297.186       73.810        0.062      347.709       26.873      859.794
09/06/2014  19:41:00     -323.557      -14.610      -25.898      139.879      101.548       60.508    19566.099    10311.981     3661.209        6.955        1.677      323.887       60.854        0.035      347.697       26.849      859.819
09/06/2014  19:42:00     -264.909      -76.837      -14.959      126.372       98.832       61.414    15969.773     9767.816     3771.684        5.290        1.475      275.827       56.657        0.042      347.694       26.845      859.832
09/06/2014  19:43:00     -264.822      -80.593       -5.932      112.508       87.902       58.110    12657.969     7726.711     3376.778        5.021        1.188      276.814       57.416        0.043      347.682       26.824      859.864
09/06/2014  19:44:00     -267.556      -50.923      -10.866       97.672       77.874       42.881     9539.764     6064.337     1838.806        4.587        0.872      272.359       42.620        0.024      347.645       26.760      859.877
09/06/2014  19:45:00     -307.195      -91.664       -0.917      100.846       81.288       49.258    10169.885     6607.686     2426.372        6.098        0.960      320.579       48.480        0.023      347.659       26.784      859.897
09/06/2014  19:46:00     -356.174     -106.000      -18.118       95.431       93.993       56.204     9107.133     8834.691     3158.893        7.976        1.055      371.613       52.135        0.020      347.653       26.776      859.915
09/06/2014  19:47:00     -340.335      -76.477      -29.198      132.382      117.921       60.478    17524.904    13905.330     3657.569        7.880        1.754      348.822       57.111        0.027      347.642       26.756      859.933
09/06/2014  19:48:00     -393.064     -112.216      -31.639      136.739      140.331       58.284    18697.511    19692.799     3397.024       10.493        2.089      408.768       52.866        0.017      347.675       26.811      859.944
09/06/2014  19:49:00     -322.353     -104.095      -14.656      113.534      116.361       63.438    12890.021    13539.839     4024.342        7.270        1.523      338.743       59.891        0.031      347.652       26.774      859.951
09/06/2014  19:50:00     -221.026      -79.777       -7.348      106.257       83.914       50.505    11290.447     7041.525     2550.774        3.807        1.044      234.983       51.780        0.049      347.580       26.648      859.968
09/06/2014  19:51:00     -406.640      -89.171      -30.688      232.586      188.157       79.121    54096.022    35403.244     6260.140       13.499        4.788      416.303       91.678        0.048      347.599       26.682      859.948
09/06/2014  19:52:00     -416.272      -53.360      -28.545      128.053      165.302       66.864    16397.626    27324.810     4470.742       11.256        2.410      419.678       65.362        0.024      347.646       26.763      859.969
09/06/2014  19:53:00     -366.079      -46.327      -16.985      140.222      124.346       73.662    19662.121    15462.008     5426.017        8.849        2.028      368.999       80.852        0.048      347.605       26.693      859.995
09/06/2014  19:54:00     -302.447     -123.666       -9.492      134.659       88.871       57.528    18132.969     7897.996     3309.427        6.809        1.467      326.753       43.764        0.018      347.585       26.657      859.991
09/06/2014  19:55:00     -262.452      -54.342      -27.122      118.179       92.408       43.443    13966.200     8539.283     1887.307        4.848        1.220      268.019       36.747        0.019      347.518       26.541      860.021
09/06/2014  19:56:00     -239.169      -46.245        0.635      109.957       83.658       53.326    12090.498     6998.630     2843.693        4.063        1.097      243.599       59.960        0.061      347.453       26.430      860.054
09/06/2014  19:57:00     -318.915       -9.338      -14.139       87.972       95.157       55.845     7739.083     9054.938     3118.617        6.095        0.996      319.051       54.233        0.029      347.493       26.497      860.055
09/06/2014  19:58:00     -280.675      -83.051      -13.701      110.352       79.975       47.310    12177.643     6395.942     2238.201        5.333        1.041      292.705       28.452        0.009      347.475       26.467      860.056
09/06/2014  19:59:00     -271.052      -80.210      -14.819       79.383       65.884       40.624     6301.709     4340.702     1650.345        4.621        0.615      282.671       40.409        0.020      347.442       26.409      860.057
09/06/2014  20:00:00     -368.815        3.123      -38.345      148.991      163.739       63.776    22198.372    26810.363     4067.438        9.528        2.654      368.828       66.620        0.033      347.499       26.507      860.042
09/06/2014  20:01:00     -306.859      -45.392      -31.573      138.125      107.756       63.761    19078.628    11611.350     4065.421        6.598        1.738      310.198       64.888        0.044      347.427       26.385      860.020
09/06/2014  20:02:00     -164.851      -70.026       15.695      112.054      121.273       48.189    12556.206    14707.124     2322.188        3.095        1.479      179.107       54.165        0.091      347.348       26.250      860.043
09/06/2014  20:03:00     -297.895     -136.408      -18.532      103.764       77.437       59.348    10767.036     5996.437     3522.227        6.399        1.014      327.642       51.272        0.024      347.426       26.382      860.039
09/06/2014  20:04:00     -239.698      -45.729       -5.751       93.914       73.547       48.759     8819.770     5409.089     2377.402        3.809        0.830      244.021       46.650        0.037      347.354       26.259      860.062
09/06/2014  20:05:00     -236.975      -25.250      -30.663      101.959       92.398       52.333    10395.724     8537.473     2738.759        3.970        1.084      238.316       47.820        0.040      347.415       26.364      860.083
09/06/2014  20:06:00     -242.394      -82.948       -2.084      132.243      134.400       68.668    17488.181    18063.340     4715.228        5.295        2.013      256.193       69.135        0.073      347.340       26.236      860.098
09/06/2014  20:07:00     -270.383     -105.416       -1.287      198.158      143.659       76.098    39266.708    20638.016     5790.856        7.495        3.285      290.206       85.324        0.086      347.377       26.299      860.097
09/06/2014  20:08:00     -378.771      -54.632      -23.362      171.742      107.582       73.046    29495.270    11573.867     5335.649        9.669        2.320      382.691       81.308        0.045      347.471       26.459      860.112
09/06/2014  20:09:00     -264.895      -37.396       -5.372      110.872       84.256       63.702    12292.550     7099.076     4057.983        4.752        1.172      267.522       51.575        0.037      347.406       26.348      860.133
09/06/2014  20:10:00     -236.565      -66.907      -14.634       83.355      101.258       51.668     6948.032    10253.098     2669.549        4.026        0.994      245.845       45.015        0.034      347.381       26.306      860.149
09/06/2014  20:11:00     -143.873      -73.256       -2.052      113.135       69.167       46.934    12799.425     4784.103     2202.816        2.292        0.989      161.449       55.463        0.118      347.334       26.224      860.141
09/06/2014  20:12:00     -294.437       46.913      -10.231      121.114      121.951       72.366    14668.581    14871.971     5236.883        6.188        1.739      298.151       52.837        0.031      347.359       26.266      860.135
09/06/2014  20:13:00     -165.182      -60.915       -1.486      114.827       61.055       51.014    13185.294     3727.761     2602.405        2.525        0.976      176.056       59.932        0.116      347.300       26.166      860.147
09/06/2014  20:14:00     -323.402       12.229       -1.721      198.647      137.338       76.519    39460.520    18861.863     5855.231        8.445        3.209      323.633       79.682        0.061      347.314       26.190      860.153
09/06/2014  20:15:00     -316.728      -20.463        0.213      152.362      112.725       70.922    23214.178    12706.877     5029.862        7.084        2.048      317.389       70.430        0.049      347.339       26.234      860.157
09/06/2014  20:16:00     -310.234     -151.554      -19.754      140.151      135.149       73.495    19642.180    18265.266     5401.583        8.145        2.165      345.274       74.819        0.047      347.403       26.344      860.163
09/06/2014  20:17:00     -277.312      -57.693        0.321      178.043      139.172       75.673    31699.477    19368.760     5726.399        6.850        2.840      283.250       83.658        0.087      347.353       26.257      860.146
09/06/2014  20:18:00     -443.612     -127.241      -11.600      237.944      154.844       90.720    56617.110    23976.677     8230.091       15.096        4.441      461.500      106.439        0.053      347.390       26.321      860.146
09/06/2014  20:19:00     -426.873     -144.630      -24.899      194.152      153.035       87.409    37694.835    23419.668     7640.362       13.625        3.438      450.709       93.534        0.043      347.411       26.356      860.153
09/06/2014  20:20:00     -228.918     -121.360        1.018      179.616      114.637       67.948    32262.009    13141.643     4616.893        5.857        2.501      259.098       83.342        0.103      347.348       26.249      860.163
09/06/2014  20:21:00     -205.784     -196.064        4.685      164.128      129.819       74.909    26938.070    16852.862     5611.410        6.510        2.470      284.232       89.188        0.098      347.373       26.292      860.170
09/06/2014  20:22:00     -201.174      -74.802        9.761      153.027       95.183       61.817    23417.136     9059.825     3821.285        4.122        1.815      214.631       78.274        0.133      347.321       26.203      860.183
09/06/2014  20:23:00     -355.878     -163.927       -8.533      131.916      137.899       85.162    17401.735    19016.130     7252.635        9.862        2.184      391.817       75.544        0.037      347.320       26.200      860.188
09/06/2014  20:24:00     -256.308      -74.480       11.480      163.854      117.968       83.054    26848.264    13916.413     6897.950        5.951        2.383      266.911       87.404        0.107      347.280       26.132      860.181
09/06/2014  20:25:00     -250.699     -136.005       -2.194      199.389      128.658       90.733    39755.998    16552.813     8232.417        7.294        3.227      285.215      105.071        0.136      347.250       26.081      860.187
09/06/2014  20:26:00     -368.675     -100.054      -28.604      124.778      121.999       77.939    15569.446    14883.833     6074.476        9.163        1.826      382.011       66.401        0.030      347.262       26.100      860.189
09/06/2014  20:27:00     -207.447     -148.058        3.998      164.856      130.435       83.520    27177.399    17013.224     6975.669        5.806        2.558      254.864       90.317        0.126      347.227       26.041      860.175
09/06/2014  20:28:00     -363.567     -116.266      -21.495      206.209      126.658       75.008    42522.033    16042.373     5626.225       10.516        3.210      381.705       90.477        0.056      347.226       26.038      860.193
09/06/2014  20:29:00     -356.618     -158.545      -15.218      145.297      138.433       70.279    21111.107    19163.566     4939.187        9.887        2.261      390.273       67.191        0.030      347.174       25.947      860.208
09/06/2014  20:30:00     -330.169     -158.812      -11.666      183.815      168.113       75.640    33787.971    28261.844     5721.362       10.106        3.389      366.378       87.796        0.057      347.194       25.983      860.218
09/06/2014  20:31:00     -278.618     -115.776      -21.562      114.118      139.813       61.092    13022.846    19547.546     3732.195        6.389        1.815      301.715       58.884        0.038      347.171       25.942      860.243
09/06/2014  20:32:00     -160.198     -105.289       -4.547      120.984      112.620       57.973    14637.093    12683.251     3360.906        3.372        1.534      191.701       66.384        0.120      347.124       25.864      860.252
09/06/2014  20:33:00     -183.650     -121.540       22.478      170.677      124.483       69.669    29130.620    15496.006     4853.823        4.923        2.474      220.225       80.384        0.133      347.096       25.816      860.272
09/06/2014  20:34:00     -320.878        2.439      -21.137      185.105      101.009       56.876    34263.822    10202.890     3234.841        7.555        2.385      320.887       67.256        0.044      347.119       25.853      860.283
09/06/2014  20:35:00     -343.352     -106.410       -8.636      156.298      119.830       69.257    24429.204    14359.237     4796.560        8.643        2.179      359.463       72.031        0.040      347.098       25.817      860.307
09/06/2014  20:36:00     -156.780      -97.439        5.865      104.448      107.483       58.721    10909.430    11552.497     3448.130        3.000        1.296      184.592       55.366        0.090      347.062       25.757      860.319
09/06/2014  20:37:00     -403.694      -30.181      -21.898      160.659      111.302       70.228    25811.313    12388.101     4931.961       10.374        2.157      404.820       69.554        0.030      347.073       25.775      860.332
09/06/2014  20:38:00     -176.390      -51.240        7.992      159.002      121.994       72.713    25281.756    14882.417     5287.134        3.962        2.273      183.681       75.404        0.169      347.034       25.709      860.316
09/06/2014  20:39:00     -292.413      -52.016       -6.467      137.038      101.779       61.141    18779.361    10359.048     3738.201        6.056        1.644      297.003       65.606        0.049      347.026       25.695      860.333
09/06/2014  20:40:00     -182.275      -67.594        0.954       88.252       95.197       47.893     7788.360     9062.511     2293.693        2.847        0.957      194.404       44.287        0.052      346.996       25.644      860.361
09/06/2014  20:41:00      -58.493      -78.798       16.305      117.975       89.497       51.705    13918.058     8009.730     2673.381        1.724        1.230       98.135       56.993        0.337      346.949       25.563      860.376
09/06/2014  20:42:00     -133.692        7.387      -13.682       77.814       62.541       36.303     6055.007     3911.407     1317.900        1.470        0.564      133.896       32.764        0.060      346.954       25.573      860.397
09/06/2014  20:43:00     -282.039      -69.513      -17.303      162.537       86.077       53.422    26418.192     7409.238     2853.884        6.067        1.834      290.479       53.288        0.034      347.008       25.662      860.395
09/06/2014  20:44:00     -269.774      -60.873      -18.691      103.033      103.068       50.090    10615.707    10623.116     2508.969        5.029        1.187      276.557       45.232        0.027      346.977       25.608      860.427
09/06/2014  20:45:00     -285.396      -42.073      -10.675      144.419      112.651       66.468    20856.891    12690.328     4417.936        6.064        1.898      288.480       69.093        0.057      346.964       25.586      860.427
09/06/2014  20:46:00     -415.847     -100.941      -15.552      147.580      102.955       60.921    21779.994    10599.633     3711.427       10.972        1.805      427.922       71.053        0.028      346.946       25.555      860.431
09/06/2014  20:47:00     -400.645      -81.326        0.496      136.572      129.337       74.464    18651.854    16727.936     5544.883       10.402        2.046      408.816       77.138        0.036      346.936       25.537      860.452
09/06/2014  20:48:00     -339.458      -13.919      -36.604      118.482       84.505       59.489    14038.022     7141.144     3538.908        7.074        1.236      339.743       54.178        0.025      346.954       25.569      860.489
09/06/2014  20:49:00     -372.227      -79.814      -20.528      118.844      106.258       61.446    14123.831    11290.711     3775.623        8.726        1.460      380.688       60.552        0.025      346.945       25.553      860.519
09/06/2014  20:50:00     -400.492     -113.257      -19.115      140.094       86.557       54.272    19626.408     7492.070     2945.443       10.182        1.503      416.198       59.391        0.020      346.949       25.562      860.536
09/06/2014  20:51:00     -420.631     -133.763      -16.866      178.755       96.073       71.948    31953.341     9229.969     5176.454       12.073        2.318      441.388       84.686        0.037      346.951       25.564      860.538
09/06/2014  20:52:00     -243.558      -74.649       -7.804      135.759      106.641       61.473    18430.635    11372.330     3778.900        4.926        1.679      254.741       62.261        0.060      346.903       25.481      860.561
09/06/2014  20:53:00     -294.877      -27.569      -31.570       67.199       65.530       42.607     4515.719     4294.214     1815.330        4.967        0.531      296.163       37.431        0.016      346.909       25.491      860.574
09/06/2014  20:54:00     -258.521      -33.381       -9.239      136.948       82.104       48.286    18754.708     6741.106     2331.502        4.793        1.391      260.667       58.642        0.051      346.872       25.430      860.567
09/06/2014  20:55:00     -364.448      -59.900      -12.269      125.898       88.541       61.762    15850.221     7839.447     3814.606        8.203        1.375      369.338       68.902        0.035      346.911       25.495      860.573
09/06/2014  20:56:00     -129.255      -72.314        9.314      112.836       97.559       56.043    12731.869     9517.758     3140.773        2.370        1.270      148.108       46.321        0.098      346.848       25.389      860.564
09/06/2014  20:57:00     -154.277      -51.623       -1.222      112.893       75.774       31.688    12744.717     5741.757     1004.134        2.298        0.975      162.685       37.641        0.054      346.795       25.297      860.557
09/06/2014  20:58:00     -278.444      -15.959       -4.419      129.243       89.019       73.097    16703.718     7924.428     5343.203        5.388        1.499      278.901       65.955        0.056      346.835       25.364      860.565
09/06/2014  20:59:00     -278.095      -96.346      -15.667      134.791      114.291       69.150    18168.495    13062.377     4781.672        6.143        1.801      294.311       67.969        0.053      346.869       25.424      860.556
09/06/2014  21:00:00     -311.954      -39.298      -19.934      109.759       88.682       54.091    12047.060     7864.483     2925.865        6.104        1.142      314.420       55.435        0.031      346.843       25.380      860.584
09/06/2014  21:01:00     -304.454      -10.696      -14.799      127.841      119.861       53.382    16343.374    14366.706     2849.663        6.329        1.678      304.642       55.134        0.033      346.829       25.355      860.595
09/06/2014  21:02:00     -287.487      -86.820       13.531      198.624      136.563       79.622    39451.564    18649.534     6339.596        7.739        3.222      300.310       95.303        0.101      346.867       25.420      860.591
09/06/2014  21:03:00     -328.971      -80.174      -17.122      150.029      100.765       65.889    22508.728    10153.672     4341.413        7.597        1.850      338.600       65.583        0.038      346.890       25.460      860.585
09/06/2014  21:04:00     -359.872     -102.276      -17.607      121.821       99.929       66.922    14840.257     9985.721     4478.510        8.479        1.465      374.123       65.179        0.030      346.843       25.378      860.586
09/06/2014  21:05:00     -317.015      -81.060      -10.487      134.834       94.654       71.733    18180.272     8959.422     5145.598        6.973        1.614      327.215       73.438        0.050      346.828       25.355      860.617
09/06/2014  21:06:00     -317.584       -8.542        0.514      139.861      129.030       69.147    19561.091    16648.762     4781.377        7.096        2.050      317.699       79.850        0.063      346.852       25.395      860.614
09/06/2014  21:07:00     -362.906     -101.215      -10.207      159.457      107.801       63.837    25426.472    11621.035     4075.161        9.158        2.056      376.756       60.772        0.026      346.894       25.467      860.606
09/06/2014  21:08:00     -428.803      -43.888      -12.477      218.002      143.969       80.825    47524.756    20727.207     6532.670       13.036        3.739      431.043       99.399        0.053      346.855       25.399      860.617
09/06/2014  21:09:00     -387.684     -100.627      -19.269      144.576      147.626       70.282    20902.220    21793.297     4939.613       10.421        2.382      400.530       67.281        0.028      346.898       25.473      860.639
09/06/2014  21:10:00     -283.524     -172.094       11.074      184.751      148.371       83.330    34133.074    22013.899     6943.818        8.660        3.155      331.666       98.259        0.088      346.880       25.444      860.633
09/06/2014  21:11:00     -265.021      -29.445       12.526      208.983      158.247       76.026    43674.067    25042.132     5779.946        7.287        3.725      266.651       92.304        0.120      346.862       25.413      860.594
09/06/2014  21:12:00     -287.342      -85.605       -2.333      161.978      153.424       66.249    26236.965    23538.778     4388.879        7.202        2.708      299.823       67.283        0.050      346.868       25.422      860.621
09/06/2014  21:13:00     -351.370     -165.135      -10.138      140.214      126.796       69.574    19660.066    16077.298     4840.573        9.570        2.029      388.240       76.482        0.039      346.867       25.421      860.608
09/06/2014  21:14:00     -372.118     -113.273      -34.620      192.204      123.934       75.702    36942.436    15359.557     5730.732       10.526        2.902      388.976       84.007        0.047      346.869       25.423      860.603
09/06/2014  21:15:00     -323.701       -7.940      -20.096      122.657       91.038       64.215    15044.824     8287.885     4123.552        6.635        1.373      323.799       58.779        0.033      346.829       25.354      860.634
09/06/2014  21:16:00     -337.795     -150.715      -23.339      150.508      104.487       64.842    22652.674    10917.529     4204.435        8.756        1.889      369.893       72.476        0.038      346.895       25.469      860.622
09/06/2014  21:17:00     -179.557      -95.262        0.174      135.580      112.710       57.982    18381.866    12703.493     3361.905        3.788        1.722      203.262       61.971        0.093      346.804       25.313      860.618
09/06/2014  21:18:00     -255.413      -40.340      -11.819      146.314      122.590       58.373    21407.802    15028.208     3407.369        5.342        1.992      258.579       64.686        0.063      346.842       25.377      860.615
09/06/2014  21:19:00     -239.853      -88.216      -12.455      110.580       98.312       59.680    12227.854     9665.256     3561.705        4.546        1.273      255.561       61.705        0.058      346.802       25.308      860.615
09/06/2014  21:20:00     -377.372     -103.471      -14.248      174.562      114.075       66.968    30471.855    13012.995     4484.734       10.064        2.398      391.301       70.781        0.033      346.816       25.331      860.614
09/06/2014  21:21:00     -286.079      -99.715      -16.018      125.510      128.435       60.658    15752.822    16495.664     3679.366        6.398        1.796      302.959       61.231        0.041      346.839       25.372      860.619
09/06/2014  21:22:00     -271.710     -115.730        8.491      197.076      121.481       72.995    38839.040    14757.689     5328.205        7.310        2.946      295.330       85.051        0.083      346.820       25.339      860.625
09/06/2014  21:23:00     -281.205     -139.340       -6.399      114.913       95.862       58.730    13204.970     9189.444     3449.237        6.218        1.292      313.834       52.476        0.028      346.832       25.361      860.635
09/06/2014  21:24:00     -120.576      -89.373       22.711      151.437      103.250       70.555    22933.042    10660.460     4977.947        3.080        1.929      150.087       79.247        0.279      346.746       25.215      860.621
09/06/2014  21:25:00     -102.101      -67.126        2.735      125.363      102.973       54.919    15715.926    10603.438     3016.070        2.213        1.467      122.190       61.318        0.252      346.758       25.234      860.619
09/06/2014  21:26:00     -179.076     -124.481       -4.212      110.008      104.138       49.387    12101.769    10844.733     2439.054        3.648        1.269      218.091       44.858        0.042      346.761       25.240      860.623
09/06/2014  21:27:00     -312.705      -79.898       -9.408      114.688       97.250       54.931    13153.283     9457.622     3017.424        6.494        1.281      322.751       61.404        0.036      346.729       25.181      860.621
09/06/2014  21:28:00      -97.097      -68.358       12.556      121.158       90.903       52.238    14679.346     8263.355     2728.839        1.996        1.284      118.746       55.902        0.222      346.653       25.053      860.625
09/06/2014  21:29:00     -180.106      -31.661        1.839      134.882       92.518       54.811    18193.024     8559.546     3004.247        3.160        1.488      182.867       53.981        0.087      346.675       25.091      860.646
09/06/2014  21:30:00     -273.556     -170.398      -16.577       92.416       92.220       58.818     8540.768     8504.578     3459.609        6.232        1.025      322.286       51.496        0.026      346.746       25.211      860.655
09/06/2014  21:31:00     -168.666      -92.179        3.240      121.275       78.976       58.147    14707.515     6237.280     3381.076        3.064        1.216      192.211       65.174        0.115      346.699       25.131      860.644
09/06/2014  21:32:00      -84.968      -55.933        1.728       90.156       69.458       46.076     8128.069     4824.443     2123.018        1.271        0.754      101.725       53.921        0.281      346.677       25.095      860.646
09/06/2014  21:33:00     -147.322      -85.555       -2.757       77.525       71.529       39.902     6010.079     5116.388     1592.151        2.087        0.636      170.363       38.987        0.052      346.637       25.026      860.652
09/06/2014  21:34:00     -258.346      -61.515      -19.984      123.297       71.895       49.302    15202.159     5168.935     2430.728        4.686        1.140      265.569       55.825        0.044      346.586       24.937      860.617
09/06/2014  21:35:00     -243.276     -127.678        4.456       93.554       98.063       53.457     8752.296     9616.403     2857.658        4.836        1.061      274.745       49.265        0.032      346.500       24.789      860.622
09/06/2014  21:36:00     -252.000     -177.314        0.514      177.681      145.289       78.429    31570.665    21108.871     6151.129        7.688        2.942      308.130       93.645        0.092      346.565       24.902      860.621
09/06/2014  21:37:00     -218.459     -127.073       -5.055      134.983      104.775       57.734    18220.282    10977.754     3333.250        4.821        1.627      252.729       72.430        0.082      346.568       24.906      860.619
09/06/2014  21:38:00     -132.808      -70.586       17.544      116.086      110.257       68.667    13476.058    12156.577     4715.185        2.663        1.517      150.401       67.454        0.201      346.534       24.848      860.637
09/06/2014  21:39:00     -337.829      -85.556      -19.242      182.724      110.757       63.932    33388.111    12267.058     4087.350        8.577        2.487      348.494       72.739        0.044      346.686       25.109      860.650
09/06/2014  21:40:00     -195.107      -50.188       -8.360      112.827       78.611       53.434    12730.041     6179.669     2855.145        3.121        1.088      201.458       54.517        0.073      346.700       25.134      860.649
09/06/2014  21:41:00     -144.870      -76.331       -4.081      112.621       68.030       39.997    12683.427     4628.049     1599.743        2.287        0.946      163.749       47.858        0.085      346.690       25.118      860.651
09/06/2014  21:42:00      -67.207     -134.097       -0.939       68.369       67.949       36.849     4674.307     4617.070     1357.814        1.657        0.532      149.996       28.184        0.035      346.650       25.047      860.644
09/06/2014  21:43:00     -162.195      -69.107      -12.086       54.599       50.790       27.748     2981.060     2579.643      769.968        1.878        0.317      176.303       18.760        0.011      346.614       24.988      860.657
09/06/2014  21:44:00     -103.281      -57.186       -4.406       51.344       42.629       24.921     2636.225     1817.210      621.074        0.951        0.254      118.056       24.865        0.044      346.554       24.886      860.667
09/06/2014  21:45:00     -163.640       42.892      -16.719       70.119       66.162       41.709     4916.709     4377.437     1739.660        1.996        0.552      169.168       33.506        0.039      346.552       24.879      860.651
09/06/2014  21:46:00      -82.030      -41.480        1.065       66.366       52.436       25.593     4404.489     2749.575      654.982        0.813        0.390       91.921       28.447        0.096      346.451       24.710      860.668
09/06/2014  21:47:00      -33.216      -57.223        5.865       89.873       59.702       32.017     8077.069     3564.294     1025.090        0.854        0.633       66.165       38.624        0.341      346.472       24.743      860.677
09/06/2014  21:48:00      -86.511      -67.711        3.010       49.101       39.171       36.579     2410.944     1534.397     1338.026        0.868        0.264      109.859       25.934        0.056      346.437       24.684      860.688
09/06/2014  21:49:00      -54.557      -29.882        7.924       58.422       35.374       24.075     3413.090     1251.351      579.609        0.459        0.262       62.204       26.717        0.184      346.481       24.760      860.694
09/06/2014  21:50:00     -117.119       11.349       -5.716       65.212       47.430       30.529     4252.667     2249.626      932.035        1.066        0.372      117.668       18.243        0.024      346.532       24.847      860.714
09/06/2014  21:51:00      -68.895       -3.868       -1.873       68.383       49.199       25.633     4676.205     2420.530      657.062        0.626        0.388       69.004       19.855        0.083      346.470       24.740      860.737
09/06/2014  21:52:00       -0.950      -83.971      -19.442       45.697       27.938       19.471     2088.236      780.547      379.105        0.534        0.162       83.976        7.820        0.009      346.394       24.609      860.739
09/06/2014  21:53:00       17.304      -34.598        4.760       27.221       38.803       22.687      740.999     1505.661      514.686        0.214        0.138       38.684       23.426        0.367      346.211       24.296      860.774
09/06/2014  21:54:00       -9.285       74.735      100.621       27.481       47.821       41.273      755.196     2286.837     1703.446        1.027        0.237       75.310       36.654        0.237      346.143       24.179      860.746
09/06/2014  21:55:00       -6.073       45.645       79.922       36.721       40.617       31.483     1348.417     1649.757      991.205        0.625        0.199       46.047       27.823        0.365      346.231       24.330      860.750
09/06/2014  21:56:00       57.629        5.881        0.197       38.532       69.883       27.039     1484.741     4883.637      731.128        0.523        0.355       57.928       27.338        0.223      346.323       24.487      860.774
09/06/2014  21:57:00       15.372      -48.301        2.635       20.587       47.096       25.892      423.805     2218.066      670.407        0.294        0.166       50.688       32.276        0.405      346.374       24.575      860.798
09/06/2014  21:58:00       50.364       54.185        8.734       30.627       25.918       22.799      938.014      671.761      519.793        0.384        0.106       73.977       17.593        0.057      346.219       24.308      860.797
09/06/2014  21:59:00       99.183       68.018        5.371       37.023       26.834       26.112     1370.718      720.088      681.841        0.863        0.139      120.265       15.818        0.017      346.131       24.157      860.806
09/06/2014  22:00:00       86.740       46.834       -0.941       21.254       22.021       16.226      451.734      484.904      263.293        0.546        0.060       98.576        4.551        0.002      346.063       24.041      860.822
09/06/2014  22:01:00       11.680      -16.245       -0.891       13.923       35.463       10.918      193.849     1257.613      119.199        0.099        0.079       20.008       14.046        0.493      345.998       23.929      860.840
09/06/2014  22:02:00       18.260      -21.999       21.519       38.228       23.359       23.844     1461.398      545.662      568.558        0.193        0.129       28.590       25.076        0.769      346.039       24.001      860.848
09/06/2014  22:03:00       68.368        2.458        7.256       19.816       30.179       16.282      392.674      910.753      265.116        0.315        0.078       68.412        9.201        0.018      346.001       23.935      860.856
09/06/2014  22:04:00       74.274       39.450        6.415       33.266       31.475       23.755     1106.600      990.646      564.323        0.489        0.133       84.101       10.547        0.016      345.977       23.894      860.850
09/06/2014  22:05:00       29.294       26.540        8.048       12.312       13.304       14.562      151.577      176.990      212.054        0.108        0.027       39.529        9.744        0.061      345.950       23.849      860.863
09/06/2014  22:06:00       31.880       24.301        8.349       18.032       15.901       10.575      325.154      252.831      111.829        0.118        0.034       40.086        6.060        0.023      345.962       23.869      860.863
09/06/2014  22:07:00        5.144      -38.920       12.849       22.924       33.905       21.742      525.498     1149.565      472.709        0.193        0.107       39.259       16.011        0.166      345.790       23.574      860.854
09/06/2014  22:08:00        0.211       -3.025       29.555       14.738       28.702       16.129      217.209      823.814      260.135        0.109        0.065        3.032       17.516       33.373      345.832       23.644      860.851
09/06/2014  22:09:00       41.127       53.177       53.921       33.998       27.469       20.478     1155.896      754.522      419.357        0.488        0.116       67.225        9.028        0.018      345.817       23.619      860.844
09/06/2014  22:10:00       77.935       51.448       49.191       42.032       36.714       37.384     1766.680     1347.900     1397.597        0.783        0.226       93.386       22.064        0.056      345.808       23.604      860.854
09/06/2014  22:11:00      106.856       58.701       38.588       49.769       38.830       40.217     2476.957     1507.792     1617.402        1.098        0.280      121.918       32.952        0.073      345.918       23.792      860.854
09/06/2014  22:12:00       45.345       15.595       35.494       50.591       33.560       27.546     2559.411     1126.240      758.778        0.400        0.222       47.952       26.902        0.315      345.785       23.564      860.854
09/06/2014  22:13:00       57.004       52.235       41.730       39.588       33.447       31.709     1567.177     1118.706     1005.471        0.570        0.185       77.317       27.329        0.125      345.752       23.509      860.867
09/06/2014  22:14:00       83.340       22.613       18.723       50.291       43.019       31.302     2529.214     1850.638      979.819        0.658        0.268       86.354       26.849        0.097      345.703       23.422      860.882
09/06/2014  22:15:00       71.572      -35.079       21.359       44.030       41.716       28.133     1938.638     1740.191      791.483        0.564        0.224       79.706       26.550        0.111      345.899       23.760      860.902
09/06/2014  22:16:00       14.199      -10.162        7.680       28.148       19.794       23.235      792.293      391.816      539.888        0.104        0.086       17.461       11.387        0.425      345.940       23.829      860.909
09/06/2014  22:17:00      -53.354        2.165       -9.777       28.556       26.612       20.211      815.444      708.215      408.469        0.244        0.097       53.398       13.251        0.062      345.760       23.520      860.913
09/06/2014  22:18:00      -47.809      -27.909        2.932       39.724       29.865       17.466     1577.973      891.903      305.047        0.292        0.139       55.359       15.719        0.081      345.533       23.131      860.935
09/06/2014  22:19:00      -47.758      -14.777        0.434       26.635       25.206       16.669      709.440      635.343      277.861        0.206        0.081       49.992       17.381        0.121      345.432       22.958      860.943
09/06/2014  22:20:00      -61.663      -21.966       -6.485       18.115       21.551       11.428      328.171      464.425      130.589        0.262        0.046       65.459        7.751        0.014      345.523       23.113      860.940
09/06/2014  22:21:00      -59.532       11.984       -0.677       23.642       15.941       12.184      558.937      254.118      148.438        0.232        0.048       60.726       11.441        0.035      345.597       23.241      860.947
09/06/2014  22:22:00      -49.395       20.815       -7.390       16.496       14.865        8.962      272.126      220.955       80.311        0.175        0.029       53.601        7.596        0.020      345.643       23.319      860.957
09/06/2014  22:23:00      -53.167       66.556      -11.701       13.801       36.051       12.610      190.481     1299.692      159.022        0.452        0.082       85.185       15.381        0.033      345.938       23.826      860.958
09/06/2014  22:24:00      -25.587       63.132      -15.381       21.119       24.973       11.264      446.013      623.627      126.874        0.304        0.060       68.120       13.425        0.039      346.038       23.999      860.953
09/06/2014  22:25:00       30.467       29.002        2.331       14.809       10.762       12.332      219.300      115.828      152.070        0.113        0.024       42.064        8.769        0.043      345.982       23.902      860.968
09/06/2014  22:26:00       40.230       54.486       10.615       20.613       28.368       19.534      424.894      804.727      381.575        0.316        0.081       67.729       15.695        0.054      345.803       23.594      860.967
09/06/2014  22:27:00       48.502       45.667        5.790       36.915       31.457       27.898     1362.705      989.553      778.303        0.380        0.157       66.617       12.074        0.033      345.779       23.554      860.965
09/06/2014  22:28:00       96.330       55.844        1.376       32.453       27.785       24.143     1053.185      771.992      582.894        0.740        0.120      111.346       11.677        0.011      345.865       23.701      860.965
09/06/2014  22:29:00       64.973       37.883        8.079       60.419       27.232       21.024     3650.486      741.558      442.027        0.528        0.242       75.210       15.634        0.043      345.761       23.522      860.977
09/06/2014  22:30:00        7.449      106.603      -16.984       32.946       35.397       16.688     1085.450     1252.960      278.492        0.716        0.131      106.863       14.254        0.018      345.910       23.778      860.984
09/06/2014  22:31:00       39.400       82.826       -8.940       37.959       54.515       26.898     1440.864     2971.843      723.527        0.681        0.257       91.720       27.740        0.091      345.649       23.332      860.991
09/06/2014  22:32:00        9.829       56.570       -8.995       23.386       33.309       15.655      546.921     1109.487      245.079        0.264        0.095       57.417       13.381        0.054      345.722       23.456      860.994
09/06/2014  22:33:00      -65.826       51.536      -13.073       38.014       36.803       17.237     1445.029     1354.447      297.126        0.513        0.155       83.601       16.534        0.039      345.523       23.113      860.998
09/06/2014  22:34:00      -69.477       31.181       -9.724       23.380       23.934       15.494      546.640      572.852      240.054        0.363        0.068       76.153       13.852        0.033      345.464       23.012      860.998
09/06/2014  22:35:00     -123.233        2.102      -12.144       27.111       17.161       13.969      735.013      294.504      195.138        0.828        0.061      123.250       14.638        0.014      345.368       22.848      861.003
09/06/2014  22:36:00     -142.203      -21.488       -9.647       50.301       26.121       23.021     2530.185      682.281      529.973        1.226        0.187      143.818        9.658        0.005      345.476       23.033      861.003
09/06/2014  22:37:00      -32.260       41.383       -6.667       47.407       41.580       22.314     2247.385     1728.901      497.922        0.364        0.224       52.472       10.750        0.042      345.621       23.282      860.986
09/06/2014  22:38:00      -94.255        8.759      -13.237       25.312       19.808       15.174      640.675      392.377      230.259        0.520        0.063       94.661       13.386        0.020      345.672       23.369      860.990
09/06/2014  22:39:00      -45.577       11.959      -12.676       16.422       14.849        8.406      269.678      220.495       70.655        0.147        0.028       47.120        6.697        0.020      345.721       23.455      860.973
09/06/2014  22:40:00      -53.919      -23.711       -6.515       35.624       20.298       13.417     1269.059      412.018      180.003        0.269        0.093       58.902       15.410        0.068      345.698       23.414      860.971
09/06/2014  22:41:00      -91.374       37.234      -13.359       25.407       27.119       14.490      645.514      735.428      209.962        0.575        0.080       98.669       10.669        0.012      345.627       23.292      860.981
09/06/2014  22:42:00      -85.337       -3.113      -13.697       40.587       32.606       17.508     1647.289     1063.137      306.543        0.525        0.151       85.393       13.319        0.024      345.564       23.185      860.963
09/06/2014  22:43:00      -78.237      -22.631        2.089       30.815       36.200       19.606      949.562     1310.433      384.382        0.464        0.132       81.444       12.260        0.023      345.309       22.747      860.956
09/06/2014  22:44:00     -107.596       13.914       -6.347       43.070       19.578       15.968     1855.021      383.283      254.983        0.715        0.125      108.492       19.266        0.032      345.409       22.918      860.963
09/06/2014  22:45:00      -41.111       20.721        2.118       21.167       27.044       15.178      448.062      731.389      230.380        0.177        0.070       46.038       13.661        0.088      345.222       22.599      860.961
09/06/2014  22:46:00     -107.438       66.024      -20.196       52.407       56.526       25.570     2746.466     3195.143      653.841        1.145        0.330      126.103       36.557        0.084      345.305       22.738      860.952
09/06/2014  22:47:00     -165.283      116.717      -37.911       29.580       38.878       21.991      875.003     1511.497      483.622        2.262        0.144      202.339       21.992        0.012      345.211       22.578      860.948
09/06/2014  22:48:00     -174.624      132.162      -36.530       38.447       48.874       26.105     1478.135     2388.703      681.497        2.692        0.227      218.999       26.730        0.015      345.412       22.921      860.947
09/06/2014  22:49:00     -109.468       85.388      -18.622       40.422       35.982       24.416     1633.919     1294.731      596.164        1.157        0.176      138.832       16.186        0.014      345.253       22.652      860.935
09/06/2014  22:50:00     -130.988      100.121      -23.880       43.209       41.556       30.833     1867.001     1726.939      950.692        1.615        0.227      164.870       24.677        0.022      345.306       22.742      860.940
09/06/2014  22:51:00     -135.798       50.168      -20.848       39.288       74.938       23.178     1543.554     5615.758      537.215        1.454        0.385      144.768       13.648        0.009      345.273       22.683      860.958
09/06/2014  22:52:00     -192.562      -25.311      -20.197       45.289       61.406       27.127     2051.100     3770.704      735.863        2.234        0.328      194.218       25.581        0.017      345.107       22.399      860.959
09/06/2014  22:53:00     -120.753      -11.784      -12.708       36.367       49.300       26.723     1322.552     2430.504      714.118        0.967        0.223      121.327       16.897        0.019      345.087       22.369      860.952
09/06/2014  22:54:00     -127.441       11.965      -11.094       67.146       42.720       33.225     4508.596     1825.005     1103.869        1.197        0.372      128.002       34.047        0.071      345.126       22.435      860.951
09/06/2014  22:55:00      -97.407        1.942      -12.095       35.352       40.482       28.279     1249.732     1638.818      799.725        0.666        0.184       97.426       20.856        0.046      345.107       22.402      860.957
09/06/2014  22:56:00     -100.786      -29.573      -18.695       28.927       24.615       18.934      836.784      605.908      358.479        0.659        0.090      105.035       14.739        0.020      345.147       22.470      860.950
09/06/2014  22:57:00     -139.798      -23.155      -14.004       40.271       46.644       27.324     1621.771     2175.628      746.579        1.241        0.227      141.703       20.522        0.021      345.109       22.407      860.957
09/06/2014  22:58:00     -124.783        2.256      -16.948       54.249       47.823       29.303     2942.947     2287.052      858.688        1.097        0.304      124.803       29.571        0.056      345.079       22.354      860.948
09/06/2014  22:59:00     -146.980      -26.042      -13.655       40.205       42.086       24.573     1616.425     1771.240      603.830        1.323        0.200      149.270       17.519        0.014      344.941       22.117      860.948
09/06/2014  23:00:00     -165.051      -27.537      -15.783       59.170       42.171       37.109     3501.145     1778.406     1377.098        1.745        0.333      167.332       34.996        0.044      344.953       22.138      860.946
09/06/2014  23:01:00     -189.362       15.815      -22.175       63.471       43.820       28.187     4028.536     1920.157      794.534        2.167        0.337      190.021       25.935        0.019      345.034       22.276      860.939
09/06/2014  23:02:00     -154.176      -34.060      -14.561       50.897       59.482       29.221     2590.516     3538.099      853.860        1.606        0.349      157.893       26.857        0.029      344.949       22.130      860.933
09/06/2014  23:03:00     -189.882      -27.004      -16.522       51.076       39.480       28.260     2608.795     1558.633      798.601        2.101        0.248      191.793       22.212        0.013      344.983       22.188      860.922
09/06/2014  23:04:00     -140.592        0.233      -14.329       39.007       46.610       24.377     1521.548     2172.455      594.238        1.213        0.214      140.592       17.018        0.015      344.911       22.065      860.917
09/06/2014  23:05:00     -158.778      -11.705      -18.493       32.084       30.501       24.204     1029.357      930.311      585.844        1.412        0.127      159.209       17.001        0.011      344.938       22.113      860.920
09/06/2014  23:06:00     -175.226       -6.520      -11.853       32.841       65.218       26.323     1078.540     4253.355      692.902        1.846        0.301      175.348       16.290        0.009      344.900       22.047      860.900
09/06/2014  23:07:00     -149.874        3.713      -14.835       38.616       36.178       18.369     1491.187     1308.852      337.411        1.292        0.157      149.920       15.610        0.011      344.814       21.900      860.907
09/06/2014  23:08:00     -101.922      -10.451      -14.130       34.251       21.408       16.552     1173.138      458.323      273.955        0.630        0.095      102.456       10.642        0.011      344.785       21.852      860.902
09/06/2014  23:09:00     -142.202      -32.433      -11.768       55.097       36.431       22.031     3035.674     1327.193      485.383        1.313        0.242      145.854       24.977        0.029      344.823       21.915      860.887
09/06/2014  23:10:00     -162.735      -20.691      -10.695       65.320       38.402       31.809     4266.661     1474.685     1011.804        1.689        0.338      164.045       32.775        0.040      344.767       21.818      860.890
09/06/2014  23:11:00     -186.894      -48.516      -18.454       37.515       37.329       25.147     1407.339     1393.488      632.368        2.053        0.172      193.089       18.144        0.009      344.753       21.793      860.875
09/06/2014  23:12:00     -186.176      -49.204      -22.113       34.751       48.385       25.156     1207.662     2341.060      632.805        2.088        0.209      192.568       10.020        0.003      344.762       21.809      860.863
09/06/2014  23:13:00     -135.904      -21.093      -15.397       43.801       41.992       23.240     1918.538     1763.314      540.078        1.169        0.211      137.531       21.858        0.025      344.755       21.796      860.864
09/06/2014  23:14:00     -119.461       19.754      -16.106       32.023       40.473       23.998     1025.488     1638.045      575.904        0.908        0.162      121.083        6.651        0.003      344.847       21.956      860.870
09/06/2014  23:15:00     -137.882        3.852      -17.983       42.378       41.270       24.951     1795.854     1703.199      622.572        1.173        0.206      137.935       17.893        0.017      344.871       21.997      860.868
09/06/2014  23:16:00      -98.442       32.621      -20.861       38.487       73.795       35.130     1481.212     5445.746     1234.109        0.967        0.408      103.706       31.738        0.094      344.812       21.897      860.866
09/06/2014  23:17:00     -109.560       25.545      -18.016       32.042       57.336       24.710     1026.686     3287.395      610.590        0.895        0.246      112.498       27.323        0.059      344.868       21.992      860.874
09/06/2014  23:18:00     -155.198       55.661      -19.025       51.804       51.083       31.639     2683.667     2609.522     1001.021        1.692        0.315      164.877       22.500        0.019      344.853       21.965      860.891
09/06/2014  23:19:00     -156.493       88.817      -17.917       71.447       46.000       35.860     5104.707     2116.013     1285.922        2.060        0.425      179.940       24.194        0.018      344.849       21.958      860.903
09/06/2014  23:20:00     -121.107       44.581      -24.367       43.351       47.705       31.404     1879.330     2275.736      986.210        1.119        0.257      129.052       23.078        0.032      344.888       22.026      860.912
09/06/2014  23:21:00     -102.570       82.682      -21.898       42.287       50.535       27.075     1788.156     2553.759      733.062        1.145        0.254      131.745       22.774        0.030      344.818       21.907      860.931
09/06/2014  23:22:00     -151.902       43.816      -13.198       59.586       45.136       27.579     3550.475     2037.281      760.598        1.576        0.317      158.095       29.329        0.034      344.920       22.079      860.943
09/06/2014  23:23:00     -132.538       20.209      -22.243       63.042       57.270       35.846     3974.317     3279.908     1284.903        1.350        0.427      134.069       36.421        0.074      344.983       22.189      860.931
09/06/2014  23:24:00      -77.967        4.288      -15.639       42.290       44.105       28.134     1788.478     1945.283      791.500        0.543        0.226       78.084       22.720        0.085      344.856       21.971      860.946
09/06/2014  23:25:00     -108.786       69.778      -14.876       49.102       44.237       26.471     2411.014     1956.937      700.698        1.100        0.253      129.242       24.444        0.036      344.850       21.961      860.955
09/06/2014  23:26:00     -128.064       52.785      -22.639       37.666       58.388       29.239     1418.703     3409.134      854.902        1.269        0.284      138.516       22.226        0.026      344.865       21.988      860.957
09/06/2014  23:27:00     -198.659       80.904      -30.659       63.091       46.083       33.331     3980.420     2123.621     1110.929        2.708        0.361      214.502       20.386        0.009      344.962       22.151      860.968
09/06/2014  23:28:00     -152.203       56.416      -20.403       45.483       65.580       37.136     2068.715     4300.801     1379.099        1.726        0.387      162.322       27.265        0.028      344.936       22.106      860.979
09/06/2014  23:29:00     -119.183       54.127      -17.010       40.246       64.355       32.477     1619.772     4141.510     1054.746        1.212        0.341      130.898       19.404        0.022      344.895       22.039      860.988
09/06/2014  23:30:00     -164.327       51.103      -25.447       61.516       42.051       34.167     3784.177     1768.312     1167.364        1.849        0.336      172.090       34.242        0.040      344.952       22.135      860.989
09/06/2014  23:31:00     -144.187        4.159       -9.744       48.722       53.374       35.957     2373.865     2848.757     1292.918        1.371        0.326      144.247       25.571        0.031      344.852       21.965      860.995
09/06/2014  23:32:00     -173.080       23.759      -23.419       67.529       70.805       48.202     4560.216     5013.417     2323.445        2.148        0.595      174.703       40.533        0.054      344.965       22.156      860.992
09/06/2014  23:33:00     -179.185       -7.462      -33.110       57.471       69.528       38.084     3302.958     4834.181     1450.388        2.142        0.479      179.340       36.253        0.041      344.977       22.176      860.982
09/06/2014  23:34:00     -180.452      -48.186      -22.519       59.516       50.059       29.381     3542.141     2505.855      863.249        2.115        0.346      186.775       16.543        0.008      344.878       22.007      860.978
09/06/2014  23:35:00     -169.871      -33.825       -2.511       69.522       51.715       34.365     4833.261     2674.411     1180.931        1.935        0.434      173.206       34.106        0.039      344.835       21.934      860.980
09/06/2014  23:36:00     -187.400      -15.945      -16.918       63.666       50.904       37.241     4053.339     2591.219     1386.869        2.184        0.402      188.077       35.344        0.035      344.823       21.913      860.976
09/06/2014  23:37:00     -190.154      -26.758      -16.879       76.730       67.177       38.632     5887.560     4512.791     1492.434        2.452        0.595      192.028       41.194        0.046      344.799       21.873      860.984
09/06/2014  23:38:00     -183.774      -11.491      -15.953       59.067       65.408       34.274     3488.924     4278.167     1174.688        2.155        0.447      184.133       29.498        0.026      344.799       21.873      860.990
09/06/2014  23:39:00     -159.668      -34.666      -17.018       54.881       53.489       31.000     3011.975     2861.110      960.990        1.691        0.342      163.388       24.325        0.022      344.722       21.741      860.988
09/06/2014  23:40:00     -160.984      -61.364      -15.818       49.957       39.773       30.294     2495.725     1581.856      917.699        1.746        0.250      172.283       24.224        0.020      344.689       21.686      860.988
09/06/2014  23:41:00     -164.818      -15.029       -7.889       62.235       50.040       34.110     3873.218     2503.992     1163.484        1.750        0.377      165.502       33.837        0.042      344.620       21.568      860.988
09/06/2014  23:42:00     -172.390      -17.921      -35.169       48.046       33.185       21.285     2308.434     1101.243      453.043        1.757        0.193      173.319       12.689        0.005      344.650       21.619      860.983
09/06/2014  23:43:00     -135.012      -59.093       -4.508       50.999       50.428       32.493     2600.891     2543.020     1055.783        1.397        0.310      147.378       25.822        0.031      344.579       21.497      860.986
09/06/2014  23:44:00     -128.358      -26.968       -3.243       68.165       34.923       28.645     4646.436     1219.631      820.551        1.195        0.334      131.161       21.119        0.026      344.547       21.441      860.979
09/06/2014  23:45:00     -184.740      -40.445      -19.682       43.923       34.002       24.713     1929.241     1156.130      610.722        1.992        0.185      189.115       21.143        0.012      344.624       21.574      860.979
09/06/2014  23:46:00     -122.663      -50.574       -2.952       51.337       44.824       29.990     2635.465     2009.194      899.393        1.158        0.277      132.680       30.028        0.051      344.565       21.473      860.978
09/06/2014  23:47:00     -149.159      -28.676      -16.196       37.178       49.236       26.988     1382.168     2424.197      728.371        1.393        0.227      151.891       24.825        0.027      344.621       21.570      860.984
09/06/2014  23:48:00     -132.115      -49.682      -13.444       32.205       27.859       19.337     1037.138      776.103      373.925        1.114        0.109      141.148       12.510        0.008      344.624       21.575      860.983
09/06/2014  23:49:00     -133.841      -32.857       -9.912       33.573       40.391       23.723     1127.163     1631.429      562.769        1.121        0.166      137.815       13.730        0.010      344.639       21.601      860.985
09/06/2014  23:50:00     -140.303      -24.581       -4.355       46.191       43.875       23.878     2133.614     1924.988      570.175        1.247        0.231      142.440       25.279        0.031      344.509       21.378      861.009
09/06/2014  23:51:00     -151.706      -48.632      -16.138       46.637       33.781       24.209     2175.028     1141.154      586.081        1.477        0.195      159.310       24.265        0.023      344.460       21.293      861.020
09/06/2014  23:52:00     -115.012      -57.580       -3.549       44.068       41.965       23.238     1941.957     1761.096      539.990        1.040        0.212      128.620       22.955        0.032      344.441       21.263      861.028
09/06/2014  23:53:00     -102.953      -35.479        3.248       71.520       36.329       30.547     5115.141     1319.772      933.122        0.962        0.368      108.895       34.521        0.100      344.450       21.278      861.036
09/06/2014  23:54:00     -171.167        1.713      -16.436       40.563       41.758       21.833     1645.327     1743.711      476.672        1.672        0.193      171.175       11.697        0.005      344.517       21.392      861.057
09/06/2014  23:55:00     -137.815      -35.899       -6.281       81.201       62.050       29.938     6593.588     3850.199      896.274        1.583        0.567      142.414       30.067        0.045      344.515       21.386      861.061
09/06/2014  23:56:00     -129.993       -5.144      -10.829       57.279       39.187       25.067     3280.843     1535.602      628.352        1.124        0.272      130.095       24.622        0.036      344.440       21.259      861.075
09/06/2014  23:57:00     -141.100       -6.064      -12.599       29.489       25.228       18.329      869.573      636.434      335.942        1.097        0.092      141.230       14.922        0.011      344.464       21.302      861.092
09/06/2014  23:58:00      -87.157       -6.625       -3.924       32.788       31.513       20.135     1075.080      993.080      405.400        0.506        0.124       87.409       15.726        0.032      344.366       21.134      861.113
09/06/2014  23:59:00      -43.708       -4.867       -1.640       23.170       31.052       13.868      536.837      964.251      192.318        0.181        0.085       43.978       15.277        0.121      344.409       21.208      861.118
